[[{"header":{"parameterUnit":"m.s-1","parameterCategory":1,"la1":31.0,"la2":29.5877,"lo1":-88.7671,"lo2":-86.6584,"dy":0.0162,"dx":0.0185,"nx":115,"ny":88,"refTime":"2023-09-13T18:00:00:Z","depth":0,"parameterNumber":2,"parameterNumberName":"U-component_of_WINDS"},"data":[0.0,0.0,0.0,0.0,0.0,0.0,0.0,0.0,0.0,0.0,0.0,0.0,0.0,0.0,0.0,0.0,0.0,0.0,0.0,0.0,0.0,0.0,0.0,0.0,0.0,0.0,0.0,0.0,0.0,0.0,0.0,0.0,0.0,0.0,0.0,0.0,0.0,0.0,0.0,0.0,0.0,0.0,0.0,0.0,0.0,0.0,0.0,0.0,0.0,0.0,0.0,0.0,0.0,0.0,0.0,0.0,0.0,0.0,0.0,0.0,0.0,0.0,0.0,0.0,0.0,0.0,0.0,0.0,0.0,0.0,0.0,0.0,0.0,0.0,0.0,0.0,0.0,0.0,0.0,0.0,0.0,0.0,0.0,0.0,0.0,0.0,0.0,0.0,0.0,0.0,0.0,0.0,0.0,0.0,0.0,0.0,0.0,0.0,0.0,0.0,0.0,0.0,0.0,0.0,0.0,0.0,0.0,0.0,0.0,0.0,0.0,0.0,0.0,0.0,0.0,0.0,0.0,0.0,0.0,0.0,0.0,0.0,0.0,0.0,0.0,0.0,0.0,0.0,0.0,0.0,0.0,0.0,0.0,0.0,0.0,0.0,0.0,0.0,0.0,0.0,0.0,0.0,0.0,0.0,0.0,0.0,0.0,0.0,0.0,0.0,0.0,0.0,0.0,0.0,0.0,0.0,0.0,0.0,0.0,0.0,0.0,0.0,0.0,0.0,0.0,0.0,0.0,0.0,0.0,0.0,0.0,0.0,0.0,0.0,0.0,0.0,0.0,0.0,0.0,0.0,0.0,0.0,0.0,0.0,0.0,0.0,0.0,0.0,0.0,0.0,0.0,0.0,0.0,0.0,0.0,0.0,0.0,0.0,0.0,0.0,0.0,0.0,0.0,0.0,0.0,0.0,0.0,0.0,0.0,0.0,0.0,0.0,0.0,0.0,0.0,0.0,0.0,0.0,0.0,0.0,0.0,0.0,0.0,0.0,0.0,0.0,0.0,0.0,0.0,0.0,0.0,0.0,0.0,0.0,0.0,0.0,0.0,0.0,0.0,0.0,0.0,0.0,0.0,0.0,0.0,0.0,0.0,0.0,0.0,0.0,0.0,0.0,0.0,0.0,0.0,0.0,0.0,0.0,0.0,0.0,0.0,0.0,0.0,0.0,0.0,0.0,0.0,0.0,0.0,0.0,0.0,0.0,0.0,0.0,0.0,0.0,0.0,0.0,0.0,0.0,0.0,0.0,0.0,0.0,0.0,0.0,0.0,0.0,0.0,0.0,0.0,0.0,0.0,0.0,0.0,0.0,0.0,0.0,0.0,0.0,0.0,0.0,0.0,0.0,0.0,0.0,0.0,0.0,0.0,0.0,0.0,0.0,0.0,0.0,0.0,0.0,0.0,0.0,0.0,0.0,0.0,0.0,0.0,0.0,0.0,0.0,0.0,0.0,0.0,0.0,0.0,0.0,0.0,0.0,0.0,0.0,0.0,0.0,0.0,0.0,0.0,0.0,0.0,0.0,0.0,0.0,0.0,0.0,0.0,0.0,0.0,0.0,0.0,0.0,0.0,0.0,0.0,0.0,0.0,0.0,0.0,0.0,0.0,0.0,0.0,0.0,0.0,0.0,0.0,0.0,0.0,0.0,0.0,0.0,0.0,0.0,0.0,0.0,0.0,0.0,0.0,0.0,0.0,0.0,0.0,0.0,0.0,0.0,0.0,0.0,0.0,0.0,0.0,0.0,0.0,0.0,0.0,0.0,0.0,0.0,0.0,0.0,0.0,0.0,0.0,0.0,0.0,0.0,0.0,0.0,0.0,0.0,0.0,0.0,0.0,0.0,0.0,0.0,0.0,0.0,0.0,0.0,0.0,0.0,0.0,0.0,0.0,0.0,0.0,0.0,0.0,0.0,0.0,0.0,0.0,0.0,0.0,0.0,0.0,0.0,0.0,0.0,0.0,0.0,0.0,0.0,0.0,0.0,0.0,0.0,0.0,0.0,0.0,0.0,0.0,0.0,0.0,0.0,0.0,0.0,0.0,0.0,0.0,0.0,0.0,0.0,0.0,0.0,0.0,0.0,0.0,0.0,0.0,0.0,0.0,0.0,0.0,0.0,0.0,0.0,0.0,0.0,0.0,0.0,0.0,0.0,0.0,0.0,0.0,0.0,0.0,0.0,0.0,0.0,0.0,0.0,0.0,0.0,0.0,0.0,0.0,0.0,0.0,0.0,0.0,0.0,0.0,0.0,0.0,0.0,0.0,0.0,0.0,0.0,0.0,0.0,0.0,0.0,0.0,0.0,0.0,0.0,0.0,0.0,0.0,0.0,0.0,0.0,0.0,0.0,0.0,0.0,0.0,0.0,0.0,0.0,0.0,0.0,0.0,0.0,0.0,0.0,0.0,0.0,0.0,0.0,0.0,0.0,0.0,0.0,0.0,0.0,0.0,0.0,0.0,0.0,0.0,0.0,0.0,0.0,0.0,0.0,0.0,0.0,0.0,0.0,0.0,0.0,0.0,0.0,0.0,0.0,0.0,0.0,0.0,0.0,0.0,0.0,0.0,0.0,0.0,0.0,0.0,0.0,0.0,0.0,0.0,0.0,0.0,0.0,0.0,0.0,0.0,0.0,0.0,0.0,0.0,0.0,0.0,0.0,0.0,0.0,0.0,0.0,0.0,0.0,0.0,0.0,0.0,0.0,0.0,0.0,0.0,0.0,0.0,0.0,0.0,0.0,0.0,0.0,0.0,0.0,0.0,0.0,0.0,0.0,0.0,0.0,0.0,0.0,0.0,0.0,0.0,0.0,0.0,0.0,0.0,0.0,0.0,0.0,0.0,0.0,0.0,0.0,0.0,0.0,0.0,0.0,0.0,0.0,0.0,0.0,0.0,0.0,0.0,0.0,0.0,0.0,0.0,0.0,0.0,0.0,0.0,0.0,0.0,0.0,0.0,0.0,0.0,0.0,0.0,0.0,0.0,0.0,0.0,0.0,0.0,0.0,0.0,0.0,0.0,0.0,0.0,0.0,0.0,0.0,0.0,0.0,0.0,0.0,0.0,0.0,0.0,0.0,0.0,0.0,0.0,0.0,0.0,0.0,0.0,0.0,0.0,0.0,0.0,0.0,0.0,0.0,0.0,0.0,0.0,0.0,0.0,0.0,0.0,0.0,0.0,0.0,0.0,0.0,0.0,0.0,0.0,0.0,0.0,0.0,0.0,0.0,0.0,0.0,0.0,0.0,0.0,0.0,0.0,0.0,0.0,0.0,0.0,0.0,0.0,0.0,0.0,0.0,0.0,0.0,0.0,0.0,0.0,0.0,0.0,0.0,0.0,0.0,0.0,0.0,0.0,0.0,0.0,0.0,0.0,0.0,0.0,0.0,0.0,0.0,0.0,0.0,0.0,0.0,0.0,0.0,0.0,0.0,0.0,0.0,0.0,0.0,0.0,0.0,0.0,0.0,0.0,0.0,0.0,0.0,0.0,0.0,0.0,0.0,0.0,0.0,0.0,0.0,0.0,0.0,0.0,0.0,0.0,0.0,0.0,0.0,0.0,0.0,0.0,0.0,0.0,0.0,0.0,0.0,0.0,0.0,0.0,0.0,0.0,0.0,0.0,0.0,0.0,0.0,0.0,0.0,0.0,0.0,0.0,0.0,0.0,0.0,0.0,0.0,0.0,0.0,0.0,0.0,0.0,0.0,0.0,0.0,0.0,0.0,0.0,0.0,0.0,0.0,0.0,0.0,0.0,0.0,0.0,0.0,0.0,0.0,0.0,0.0,0.0,0.0,0.0,0.0,0.0,0.0,0.0,0.0,0.0,0.0,0.0,0.0,0.0,0.0,0.0,0.0,0.0,0.0,0.0,0.0,0.0,0.0,0.0,0.0,0.0,0.0,0.0,0.0,0.0,0.0,0.0,0.0,0.0,0.0,0.0,0.0,0.0,0.0,0.0,0.0,0.0,0.0,0.0,0.0,0.0,0.0,0.0,0.0,0.0,0.0,0.0,0.0,0.0,0.0,0.0,0.0,0.0,0.0,0.0,0.0,0.0,0.0,0.0,0.0,0.0,0.0,0.0,0.0,0.0,0.0,0.0,0.0,0.0,0.0,0.0,0.0,0.0,0.0,0.0,0.0,0.0,0.0,0.0,0.0,0.0,0.0,0.0,0.0,0.0,0.0,0.0,0.0,0.0,0.0,0.0,0.0,0.0,0.0,0.0,0.0,0.0,0.0,0.0,0.0,0.0,0.0,0.0,0.0,0.0,0.0,0.0,0.0,1.9803,0.0,0.0,0.0,0.0,0.0,0.0,0.0,0.0,0.0,0.0,0.0,0.0,0.0,0.0,0.0,0.0,0.0,0.0,0.0,0.0,0.0,0.0,0.0,0.0,0.0,0.0,0.0,0.0,0.0,0.0,0.0,0.0,0.0,0.0,0.0,0.0,0.0,0.0,0.0,0.0,0.0,0.0,0.0,0.0,0.0,0.0,0.0,0.0,0.0,0.0,0.0,0.0,0.0,0.0,0.0,0.0,0.0,0.0,0.0,0.0,0.0,0.0,0.0,0.0,0.0,0.0,0.0,0.0,0.0,0.0,0.0,0.0,0.0,0.0,0.0,0.0,0.0,0.0,0.0,0.0,0.0,0.0,0.0,0.0,0.0,0.0,0.0,0.0,0.0,0.0,0.0,0.0,0.0,0.0,0.0,0.0,0.0,0.0,0.0,0.0,0.0,0.0,0.0,0.0,0.0,0.0,0.0,0.0,0.0,0.0,2.0482,2.0311,2.0294,2.0111,1.9726,0.0,0.0,0.0,0.0,0.0,0.0,0.0,0.0,0.0,0.0,0.0,0.0,0.0,0.0,0.0,0.0,0.0,0.0,0.0,0.0,0.0,0.0,0.0,0.0,0.0,0.0,0.0,0.0,0.0,0.0,0.0,0.0,0.0,0.0,0.0,0.0,0.0,0.0,0.0,0.0,0.0,0.0,0.0,0.0,0.0,0.0,0.0,0.0,0.0,0.0,0.0,0.0,0.0,0.0,0.0,0.0,0.0,0.0,0.0,0.0,0.0,0.0,0.0,0.0,0.0,0.0,0.0,0.0,0.0,0.0,0.0,0.0,0.0,0.0,0.0,0.0,0.0,0.0,0.0,0.0,0.0,0.0,0.0,0.0,0.0,0.0,0.0,0.0,0.0,0.0,0.0,0.0,0.0,0.0,0.0,0.0,0.0,0.0,0.0,0.0,0.0,0.0,0.0,0.0,0.0,0.0,0.0,0.0,0.0,0.0,0.0,0.0,2.0122,2.0026,1.9839,0.0,0.0,0.0,0.0,0.0,0.0,0.0,0.0,0.0,0.0,0.0,0.0,0.0,0.0,0.0,0.0,0.0,0.0,0.0,0.0,0.0,0.0,0.0,0.0,0.0,0.0,0.0,0.0,0.0,0.0,0.0,0.0,0.0,0.0,0.0,0.0,0.0,0.0,0.0,0.0,0.0,0.0,0.0,0.0,0.0,0.0,0.0,0.0,0.0,0.0,0.0,0.0,0.0,0.0,0.0,0.0,0.0,0.0,0.0,0.0,0.0,0.0,0.0,0.0,0.0,0.0,0.0,0.0,0.0,0.0,0.0,0.0,0.0,0.0,0.0,0.0,0.0,0.0,0.0,0.0,0.0,0.0,0.0,0.0,0.0,0.0,0.0,0.0,0.0,0.0,0.0,0.0,0.0,0.0,0.0,0.0,0.0,0.0,0.0,0.0,0.0,0.0,0.0,0.0,0.0,0.0,0.0,0.0,0.0,0.0,2.143,2.143,2.1407,0.0,2.0297,0.0,0.0,0.0,0.0,0.0,0.0,0.0,0.0,0.0,0.0,0.0,0.0,0.0,0.0,0.0,0.0,0.0,0.0,0.0,0.0,0.0,0.0,0.0,0.0,0.0,0.0,0.0,0.0,0.0,0.0,0.0,0.0,0.0,0.0,0.0,0.0,0.0,0.0,0.0,0.0,0.0,0.0,0.0,0.0,0.0,0.0,0.0,0.0,0.0,0.0,0.0,0.0,0.0,0.0,0.0,0.0,0.0,0.0,0.0,0.0,0.0,0.0,0.0,0.0,0.0,0.0,0.0,0.0,0.0,0.0,0.0,0.0,0.0,0.0,0.0,0.0,0.0,0.0,0.0,0.0,0.0,0.0,0.0,0.0,0.0,0.0,0.0,0.0,0.0,0.0,0.0,0.0,0.0,0.0,0.0,0.0,0.0,0.0,0.0,0.0,0.0,0.0,0.0,0.0,0.0,0.0,0.0,0.0,0.0,0.0,2.1126,2.0846,2.06,2.0304,0.0,0.0,0.0,0.0,0.0,0.0,0.0,0.0,0.0,0.0,0.0,0.0,0.0,0.0,0.0,0.0,0.0,0.0,0.0,0.0,0.0,0.0,0.0,0.0,0.0,0.0,0.0,0.0,0.0,0.0,0.0,0.0,0.0,0.0,0.0,0.0,0.0,0.0,0.0,0.0,0.0,0.0,0.0,0.0,0.0,0.0,0.0,0.0,0.0,0.0,0.0,0.0,0.0,0.0,0.0,0.0,0.0,0.0,0.0,0.0,0.0,0.0,0.0,0.0,0.0,0.0,0.0,0.0,0.0,0.0,0.0,0.0,0.0,0.0,0.0,0.0,0.0,0.0,0.0,0.0,0.0,0.0,0.0,0.0,0.0,0.0,0.0,0.0,0.0,0.0,0.0,0.0,0.0,0.0,0.0,0.0,0.0,0.0,0.0,0.0,0.0,0.0,0.0,0.0,0.0,0.0,0.0,0.0,0.0,0.0,2.115,2.0829,2.0507,2.0087,1.9856,1.988,0.0,0.0,0.0,0.0,0.0,0.0,0.0,0.0,0.0,0.0,0.0,0.0,0.0,0.0,0.0,0.0,0.0,0.0,0.0,0.0,0.0,0.0,0.0,0.0,0.0,0.0,0.0,0.0,0.0,0.0,0.0,0.0,0.0,0.0,0.0,0.0,0.0,0.0,0.0,0.0,0.0,0.0,0.0,0.0,0.0,0.0,0.0,0.0,0.0,0.0,0.0,0.0,0.0,0.0,0.0,0.0,0.0,0.0,0.0,0.0,0.0,0.0,0.0,0.0,0.0,0.0,0.0,0.0,0.0,0.0,0.0,0.0,0.0,0.0,0.0,0.0,0.0,0.0,0.0,0.0,0.0,0.0,0.0,0.0,0.0,0.0,0.0,0.0,0.0,0.0,0.0,0.0,0.0,0.0,0.0,0.0,0.0,0.0,0.0,0.0,0.0,0.0,0.0,0.0,0.0,0.0,0.0,0.0,2.1039,2.1015,2.0983,2.0951,2.0524,2.0272,0.0,0.0,0.0,0.0,0.0,0.0,0.0,0.0,0.0,0.0,0.0,0.0,0.0,0.0,0.0,0.0,0.0,0.0,0.0,0.0,0.0,0.0,0.0,0.0,0.0,0.0,0.0,0.0,0.0,0.0,0.0,0.0,0.0,0.0,0.0,0.0,0.0,0.0,0.0,0.0,0.0,0.0,0.0,0.0,0.0,0.0,0.0,0.0,0.0,0.0,0.0,0.0,0.0,0.0,0.0,0.0,0.0,0.0,0.0,0.0,0.0,0.0,0.0,0.0,0.0,0.0,0.0,0.0,0.0,0.0,0.0,0.0,0.0,0.0,0.0,0.0,0.0,0.0,0.0,0.0,0.0,0.0,0.0,0.0,0.0,0.0,0.0,0.0,0.0,0.0,0.0,0.0,0.0,0.0,0.0,0.0,0.0,0.0,0.0,0.0,0.0,0.0,0.0,0.0,0.0,0.0,0.0,0.0,0.0,2.0999,2.0715,2.0698,2.0959,2.0302,1.9918,0.0,0.0,0.0,0.0,0.0,0.0,0.0,0.0,0.0,0.0,0.0,0.0,0.0,0.0,0.0,0.0,0.0,0.0,0.0,0.0,0.0,0.0,0.0,0.0,0.0,0.0,0.0,0.0,0.0,0.0,0.0,0.0,0.0,0.0,0.0,0.0,0.0,0.0,0.0,0.0,0.0,0.0,0.0,0.0,0.0,0.0,0.0,0.0,0.0,0.0,0.0,0.0,0.0,0.0,0.0,0.0,0.0,0.0,0.0,0.0,0.0,0.0,0.0,0.0,0.0,0.0,0.0,0.0,0.0,0.0,0.0,0.0,0.0,0.0,0.0,0.0,0.0,0.0,0.0,0.0,0.0,0.0,0.0,0.0,0.0,0.0,0.0,0.0,0.0,0.0,0.0,0.0,0.0,0.0,0.0,0.0,0.0,0.0,0.0,0.0,0.0,0.0,0.0,0.0,0.0,0.0,0.0,0.0,0.0,2.0788,0.0,2.0277,2.0532,2.0006,1.9723,0.0,0.0,0.0,0.0,0.0,0.0,0.0,0.0,0.0,0.0,0.0,0.0,0.0,0.0,0.0,0.0,0.0,0.0,0.0,0.0,0.0,0.0,0.0,0.0,0.0,0.0,0.0,0.0,0.0,0.0,0.0,0.0,0.0,0.0,0.0,0.0,0.0,0.0,0.0,0.0,0.0,0.0,0.0,0.0,0.0,0.0,0.0,0.0,0.0,0.0,0.0,0.0,0.0,0.0,0.0,0.0,0.0,0.0,0.0,0.0,0.0,0.0,0.0,0.0,0.0,0.0,0.0,0.0,0.0,0.0,0.0,0.0,0.0,0.0,0.0,0.0,0.0,0.0,0.0,0.0,0.0,0.0,0.0,0.0,0.0,0.0,0.0,0.0,0.0,0.0,0.0,0.0,0.0,0.0,0.0,0.0,0.0,0.0,0.0,0.0,0.0,0.0,0.0,0.0,0.0,0.0,0.0,0.0,2.0788,2.0331,1.9927,1.9756,1.9735,1.9729,1.9723,0.0,0.0,0.0,0.0,0.0,0.0,0.0,0.0,0.0,0.0,0.0,0.0,0.0,0.0,0.0,0.0,0.0,0.0,0.0,0.0,0.0,0.0,0.0,0.0,0.0,0.0,0.0,0.0,0.0,0.0,0.0,0.0,0.0,0.0,0.0,0.0,0.0,0.0,0.0,0.0,0.0,0.0,0.0,0.0,0.0,0.0,0.0,0.0,0.0,0.0,0.0,0.0,0.0,0.0,0.0,0.0,0.0,0.0,0.0,0.0,0.0,0.0,0.0,0.0,0.0,0.0,0.0,0.0,0.0,0.0,0.0,0.0,0.0,0.0,0.0,0.0,0.0,0.0,0.0,0.0,0.0,0.0,0.0,0.0,0.0,0.0,0.0,0.0,0.0,0.0,0.0,0.0,0.0,0.0,0.0,0.0,0.0,0.0,0.0,0.0,0.0,0.0,0.0,0.0,0.0,0.0,0.0,0.0,0.0,2.078,2.0076,1.9989,2.0556,2.0006,1.9723,0.0,0.0,0.0,0.0,0.0,0.0,0.0,0.0,0.0,0.0,0.0,0.0,0.0,0.0,0.0,0.0,0.0,0.0,0.0,0.0,0.0,0.0,0.0,0.0,0.0,0.0,0.0,0.0,0.0,0.0,0.0,0.0,0.0,0.0,0.0,0.0,0.0,0.0,0.0,0.0,0.0,0.0,0.0,0.0,0.0,0.0,0.0,0.0,0.0,0.0,0.0,0.0,0.0,0.0,0.0,0.0,0.0,0.0,0.0,0.0,0.0,0.0,0.0,0.0,0.0,0.0,0.0,0.0,0.0,0.0,0.0,0.0,0.0,0.0,0.0,0.0,0.0,0.0,0.0,0.0,0.0,0.0,0.0,0.0,0.0,0.0,0.0,0.0,0.0,0.0,0.0,0.0,0.0,0.0,0.0,0.0,0.0,0.0,0.0,0.0,0.0,0.0,0.0,0.0,0.0,0.0,0.0,0.0,0.0,2.0699,2.0067,1.9977,2.0506,1.998,1.9723,1.9723,0.0,0.0,0.0,0.0,0.0,0.0,0.0,0.0,0.0,0.0,0.0,0.0,0.0,0.0,0.0,0.0,0.0,0.0,0.0,0.0,0.0,0.0,0.0,0.0,0.0,0.0,0.0,0.0,0.0,0.0,0.0,0.0,0.0,0.0,0.0,0.0,0.0,0.0,0.0,0.0,0.0,0.0,0.0,0.0,0.0,0.0,0.0,0.0,0.0,0.0,0.0,0.0,0.0,0.0,0.0,0.0,0.0,0.0,0.0,0.0,0.0,0.0,0.0,0.0,0.0,0.0,0.0,0.0,0.0,0.0,0.0,0.0,0.0,0.0,0.0,0.0,0.0,0.0,0.0,0.0,0.0,0.0,0.0,0.0,0.0,0.0,0.0,0.0,0.0,0.0,0.0,0.0,0.0,0.0,0.0,0.0,0.0,0.0,0.0,0.0,0.0,0.0,0.0,0.0,0.0,0.0,0.0,0.0,2.0371,2.0007,1.9801,1.9756,1.9756,1.9753,0.0,0.0,0.0,0.0,0.0,0.0,0.0,0.0,0.0,0.0,0.0,0.0,0.0,0.0,0.0,0.0,0.0,0.0,0.0,0.0,0.0,0.0,0.0,0.0,0.0,0.0,0.0,0.0,0.0,0.0,0.0,0.0,0.0,0.0,0.0,0.0,0.0,0.0,0.0,0.0,0.0,0.0,0.0,0.0,0.0,0.0,0.0,0.0,0.0,0.0,0.0,0.0,0.0,0.0,0.0,0.0,0.0,0.0,0.0,0.0,0.0,0.0,0.0,0.0,0.0,0.0,0.0,0.0,0.0,0.0,0.0,0.0,0.0,0.0,0.0,0.0,0.0,0.0,0.0,0.0,0.0,0.0,0.0,0.0,0.0,0.0,0.0,0.0,0.0,0.0,0.0,0.0,0.0,0.0,0.0,0.0,0.0,0.0,0.0,0.0,0.0,0.0,0.0,0.0,0.0,0.0,0.0,0.0,0.0,2.1337,2.1239,2.0847,2.0185,2.0328,2.0438,0.0,0.0,0.0,0.0,0.0,0.0,0.0,0.0,0.0,0.0,0.0,0.0,0.0,0.0,0.0,0.0,0.0,0.0,0.0,0.0,0.0,0.0,0.0,0.0,0.0,0.0,0.0,0.0,0.0,0.0,0.0,0.0,0.0,0.0,0.0,0.0,0.0,0.0,0.0,0.0,0.0,0.0,0.0,0.0,0.0,0.0,0.0,0.0,0.0,0.0,0.0,0.0,0.0,0.0,0.0,0.0,0.0,0.0,0.0,0.0,0.0,0.0,0.0,0.0,0.0,0.0,0.0,0.0,0.0,0.0,0.0,0.0,0.0,0.0,0.0,0.0,0.0,0.0,0.0,0.0,0.0,0.0,0.0,0.0,0.0,0.0,0.0,0.0,0.0,0.0,0.0,0.0,0.0,0.0,0.0,0.0,0.0,0.0,0.0,0.0,0.0,0.0,0.0,0.0,0.0,0.0,0.0,0.0,2.1824,2.1699,2.1704,2.1441,2.0911,2.1044,2.1126,0.0,0.0,0.0,0.0,0.0,0.0,0.0,0.0,0.0,0.0,0.0,0.0,0.0,0.0,0.0,0.0,0.0,0.0,0.0,0.0,0.0,0.0,0.0,0.0,0.0,0.0,0.0,0.0,0.0,0.0,0.0,0.0,0.0,0.0,0.0,0.0,0.0,0.0,0.0,0.0,0.0,0.0,0.0,0.0,0.0,0.0,0.0,0.0,0.0,0.0,0.0,0.0,0.0,0.0,0.0,0.0,0.0,0.0,0.0,0.0,0.0,0.0,0.0,0.0,0.0,0.0,0.0,0.0,0.0,0.0,0.0,0.0,0.0,0.0,0.0,0.0,0.0,0.0,0.0,0.0,0.0,0.0,0.0,0.0,0.0,0.0,0.0,0.0,0.0,0.0,0.0,0.0,0.0,0.0,0.0,0.0,0.0,0.0,0.0,0.0,0.0,0.0,0.0,0.0,0.0,0.0,0.0,0.0,2.1889,2.1899,2.1899,2.1899,2.1889,2.1854,2.1799,0.0,0.0,0.0,0.0,0.0,0.0,0.0,0.0,0.0,0.0,0.0,0.0,0.0,0.0,0.0,0.0,0.0,0.0,0.0,0.0,0.0,0.0,0.0,0.0,0.0,0.0,0.0,0.0,0.0,0.0,0.0,0.0,0.0,0.0,0.0,0.0,0.0,0.0,0.0,0.0,0.0,0.0,0.0,0.0,0.0,0.0,0.0,0.0,0.0,0.0,0.0,0.0,0.0,0.0,0.0,0.0,0.0,0.0,0.0,0.0,0.0,0.0,0.0,0.0,0.0,0.0,0.0,0.0,0.0,0.0,0.0,0.0,0.0,0.0,0.0,0.0,0.0,0.0,0.0,0.0,0.0,0.0,0.0,0.0,0.0,0.0,0.0,0.0,0.0,0.0,0.0,0.0,0.0,0.0,0.0,0.0,0.0,0.0,0.0,0.0,0.0,0.0,0.0,0.0,0.0,0.0,0.0,0.0,2.3046,2.3197,2.3191,2.3191,2.3191,2.2737,2.2483,0.0,0.0,0.0,0.0,0.0,0.0,0.0,0.0,0.0,0.0,0.0,0.0,0.0,0.0,0.0,0.0,0.0,0.0,0.0,0.0,0.0,0.0,0.0,0.0,0.0,0.0,0.0,0.0,0.0,0.0,0.0,0.0,0.0,0.0,0.0,0.0,0.0,0.0,0.0,0.0,0.0,0.0,0.0,0.0,0.0,0.0,0.0,0.0,2.4601,0.0,0.0,0.0,0.0,0.0,0.0,0.0,0.0,0.0,0.0,0.0,0.0,0.0,0.0,0.0,0.0,0.0,0.0,0.0,0.0,0.0,0.0,0.0,0.0,0.0,0.0,0.0,0.0,0.0,0.0,0.0,0.0,0.0,0.0,0.0,0.0,0.0,0.0,0.0,0.0,0.0,0.0,0.0,0.0,0.0,0.0,0.0,0.0,0.0,0.0,0.0,0.0,0.0,0.0,0.0,0.0,0.0,0.0,0.0,2.3489,2.3591,2.3584,2.3584,2.3584,2.3023,2.2824,0.0,0.0,0.0,0.0,0.0,0.0,0.0,0.0,0.0,0.0,0.0,0.0,0.0,0.0,0.0,0.0,0.0,0.0,0.0,0.0,0.0,0.0,0.0,0.0,0.0,0.0,0.0,0.0,0.0,0.0,0.0,0.0,0.0,0.0,0.0,0.0,0.0,0.0,0.0,0.0,0.0,0.0,0.0,0.0,0.0,0.0,0.0,0.0,0.0,0.0,0.0,0.0,0.0,0.0,0.0,0.0,0.0,0.0,0.0,0.0,0.0,0.0,0.0,0.0,0.0,0.0,0.0,0.0,0.0,0.0,0.0,0.0,0.0,0.0,0.0,0.0,0.0,0.0,0.0,0.0,0.0,0.0,0.0,0.0,0.0,0.0,0.0,0.0,0.0,0.0,0.0,0.0,0.0,0.0,0.0,0.0,0.0,0.0,0.0,0.0,0.0,0.0,0.0,0.0,0.0,0.0,0.0,2.3584,2.3584,2.3584,2.3584,2.3584,2.3584,2.3009,2.299,2.3562,0.0,0.0,0.0,0.0,0.0,0.0,0.0,0.0,0.0,0.0,0.0,0.0,0.0,0.0,0.0,0.0,0.0,0.0,0.0,0.0,0.0,0.0,0.0,0.0,0.0,0.0,0.0,0.0,0.0,0.0,0.0,0.0,0.0,0.0,0.0,0.0,0.0,0.0,2.2692,2.3271,0.0,0.0,0.0,0.0,0.0,0.0,0.0,0.0,2.4095,0.0,0.0,0.0,0.0,0.0,0.0,0.0,0.0,0.0,0.0,0.0,0.0,0.0,0.0,0.0,0.0,0.0,0.0,0.0,0.0,0.0,0.0,0.0,0.0,0.0,0.0,0.0,0.0,0.0,0.0,0.0,0.0,0.0,0.0,0.0,0.0,0.0,0.0,0.0,0.0,0.0,0.0,0.0,0.0,0.0,0.0,0.0,0.0,0.0,0.0,0.0,0.0,0.0,0.0,0.0,0.0,2.3595,2.3584,2.3584,2.3584,2.3584,2.3584,2.3588,2.3009,2.2976,2.3508,0.0,0.0,0.0,0.0,0.0,0.0,0.0,0.0,0.0,0.0,0.0,0.0,0.0,0.0,0.0,0.0,0.0,0.0,0.0,0.0,0.0,0.0,0.0,0.0,0.0,0.0,0.0,0.0,0.0,0.0,0.0,0.0,0.0,0.0,0.0,0.0,0.0,0.0,0.0,2.455,2.464,0.0,0.0,0.0,0.0,0.0,0.0,0.0,0.0,2.4823,0.0,0.0,0.0,0.0,0.0,0.0,0.0,0.0,0.0,0.0,0.0,0.0,0.0,0.0,0.0,0.0,0.0,0.0,0.0,0.0,0.0,0.0,0.0,0.0,0.0,0.0,0.0,0.0,0.0,0.0,0.0,0.0,0.0,0.0,0.0,0.0,0.0,0.0,0.0,0.0,0.0,0.0,0.0,0.0,0.0,0.0,0.0,0.0,0.0,0.0,0.0,0.0,0.0,0.0,0.0,2.361,2.3943,2.4122,2.4111,2.4451,2.4457,2.4072,2.3483,2.3108,0.0,0.0,0.0,0.0,0.0,0.0,0.0,0.0,0.0,0.0,0.0,0.0,0.0,0.0,0.0,0.0,0.0,0.0,0.0,0.0,0.0,0.0,0.0,0.0,0.0,0.0,0.0,0.0,0.0,0.0,0.0,0.0,0.0,0.0,0.0,0.0,0.0,0.0,0.0,0.0,2.5047,2.492,2.4126,0.0,0.0,0.0,0.0,0.0,0.0,2.5448,2.5427,0.0,0.0,0.0,0.0,0.0,0.0,0.0,0.0,0.0,0.0,0.0,0.0,0.0,0.0,0.0,0.0,0.0,0.0,0.0,0.0,0.0,0.0,0.0,0.0,0.0,0.0,0.0,0.0,0.0,0.0,0.0,0.0,0.0,0.0,0.0,0.0,0.0,0.0,0.0,0.0,0.0,0.0,0.0,0.0,0.0,0.0,0.0,0.0,0.0,0.0,0.0,0.0,0.0,0.0,0.0,2.4029,2.453,2.4799,2.4829,2.5179,2.5096,2.4507,2.3767,2.312,0.0,0.0,0.0,0.0,0.0,0.0,0.0,0.0,0.0,0.0,0.0,0.0,0.0,0.0,0.0,0.0,0.0,0.0,0.0,0.0,0.0,0.0,0.0,0.0,0.0,0.0,0.0,0.0,0.0,0.0,0.0,0.0,0.0,0.0,0.0,0.0,0.0,0.0,0.0,0.0,0.0,2.5037,2.4513,2.4187,0.0,0.0,0.0,0.0,2.6157,2.5906,0.0,0.0,0.0,0.0,0.0,0.0,0.0,0.0,0.0,0.0,0.0,0.0,0.0,0.0,0.0,0.0,0.0,0.0,0.0,0.0,0.0,0.0,0.0,0.0,0.0,0.0,0.0,0.0,0.0,0.0,0.0,0.0,0.0,0.0,0.0,0.0,0.0,0.0,0.0,0.0,0.0,0.0,0.0,0.0,0.0,0.0,0.0,0.0,0.0,0.0,0.0,0.0,0.0,0.0,0.0,0.0,2.536,2.5438,2.5483,2.546,2.4917,2.4579,2.4494,2.3238,2.2778,0.0,0.0,0.0,0.0,0.0,0.0,0.0,0.0,0.0,0.0,0.0,0.0,0.0,0.0,0.0,0.0,0.0,0.0,0.0,0.0,0.0,0.0,0.0,0.0,0.0,0.0,0.0,0.0,0.0,0.0,0.0,0.0,0.0,0.0,0.0,0.0,0.0,0.0,0.0,0.0,0.0,2.5185,2.4649,2.5035,2.5428,0.0,0.0,2.5521,2.5693,2.5635,0.0,0.0,0.0,0.0,0.0,0.0,0.0,0.0,0.0,0.0,0.0,0.0,0.0,0.0,0.0,0.0,0.0,0.0,0.0,0.0,0.0,0.0,0.0,0.0,0.0,0.0,0.0,0.0,0.0,0.0,0.0,0.0,0.0,0.0,0.0,0.0,0.0,0.0,0.0,0.0,0.0,0.0,0.0,0.0,0.0,0.0,0.0,0.0,0.0,0.0,0.0,0.0,0.0,0.0,0.0,2.5319,2.5603,2.5974,2.5973,2.558,2.5588,2.5233,2.4422,2.3792,2.3387,0.0,0.0,0.0,0.0,0.0,0.0,0.0,0.0,0.0,0.0,0.0,0.0,0.0,0.0,0.0,0.0,0.0,0.0,0.0,0.0,0.0,0.0,0.0,0.0,0.0,0.0,0.0,0.0,0.0,0.0,0.0,0.0,0.0,0.0,0.0,0.0,0.0,0.0,0.0,0.0,0.0,0.0,2.5238,2.5423,0.0,0.0,0.0,2.6435,2.7125,0.0,0.0,0.0,0.0,0.0,0.0,0.0,0.0,0.0,0.0,0.0,0.0,0.0,0.0,0.0,0.0,0.0,0.0,0.0,0.0,0.0,0.0,0.0,0.0,0.0,0.0,0.0,0.0,0.0,0.0,0.0,0.0,0.0,0.0,0.0,0.0,0.0,0.0,0.0,0.0,0.0,0.0,0.0,0.0,0.0,0.0,0.0,0.0,0.0,0.0,0.0,0.0,0.0,0.0,0.0,0.0,0.0,2.6108,2.6599,2.649,2.5776,2.6052,2.5605,2.435,2.4104,0.0,0.0,0.0,0.0,0.0,0.0,0.0,0.0,0.0,0.0,0.0,0.0,0.0,0.0,0.0,0.0,0.0,0.0,0.0,0.0,0.0,0.0,0.0,0.0,0.0,0.0,0.0,2.3838,0.0,0.0,0.0,0.0,0.0,0.0,0.0,0.0,0.0,0.0,0.0,0.0,0.0,0.0,2.6458,2.5925,2.5977,2.6285,0.0,0.0,2.7175,2.8137,2.791,2.7733,0.0,0.0,0.0,0.0,0.0,0.0,0.0,0.0,0.0,0.0,0.0,0.0,0.0,0.0,0.0,0.0,0.0,0.0,0.0,0.0,0.0,0.0,0.0,0.0,0.0,0.0,0.0,0.0,0.0,0.0,0.0,0.0,0.0,0.0,0.0,0.0,0.0,0.0,0.0,0.0,0.0,0.0,0.0,0.0,0.0,0.0,0.0,0.0,0.0,0.0,0.0,0.0,0.0,0.0,0.0,2.7448,2.751,2.7155,2.6438,2.581,2.5119,2.4308,2.3573,2.3168,0.0,0.0,0.0,0.0,0.0,0.0,0.0,0.0,0.0,0.0,0.0,0.0,0.0,0.0,0.0,0.0,0.0,0.0,0.0,0.0,0.0,0.0,0.0,0.0,0.0,0.0,0.0,0.0,0.0,0.0,0.0,0.0,0.0,0.0,0.0,0.0,0.0,0.0,0.0,0.0,0.0,2.7137,2.6597,2.7063,2.7465,0.0,0.0,2.7565,2.766,2.7638,2.7625,2.7663,0.0,0.0,0.0,0.0,0.0,0.0,0.0,0.0,0.0,0.0,0.0,0.0,0.0,0.0,0.0,0.0,0.0,0.0,0.0,0.0,0.0,0.0,0.0,0.0,0.0,0.0,0.0,0.0,0.0,0.0,0.0,0.0,0.0,0.0,0.0,0.0,0.0,0.0,0.0,0.0,0.0,0.0,0.0,0.0,0.0,0.0,0.0,0.0,0.0,0.0,0.0,0.0,0.0,2.7117,2.693,2.6917,2.6335,2.5189,2.4866,2.4366,2.3575,2.3248,2.3095,0.0,0.0,0.0,0.0,0.0,0.0,0.0,0.0,0.0,0.0,0.0,0.0,0.0,0.0,0.0,0.0,0.0,0.0,0.0,0.0,0.0,0.0,0.0,0.0,0.0,0.0,0.0,0.0,2.5812,2.6378,2.6779,0.0,0.0,0.0,0.0,0.0,0.0,0.0,0.0,0.0,0.0,2.7442,2.7235,2.7435,0.0,0.0,2.7585,2.775,2.8156,2.8216,2.8366,2.877,2.8843,0.0,0.0,0.0,0.0,0.0,0.0,0.0,0.0,0.0,0.0,0.0,0.0,0.0,0.0,0.0,0.0,0.0,0.0,0.0,0.0,0.0,0.0,0.0,0.0,0.0,0.0,0.0,0.0,0.0,0.0,0.0,0.0,0.0,0.0,0.0,0.0,0.0,0.0,0.0,0.0,0.0,0.0,0.0,0.0,0.0,0.0,0.0,0.0,0.0,0.0,0.0,0.0,2.7242,2.6496,2.6656,2.6035,2.4571,2.47,2.4392,2.3655,2.3625,2.3609,0.0,0.0,0.0,0.0,0.0,0.0,0.0,0.0,0.0,0.0,0.0,0.0,0.0,0.0,0.0,0.0,0.0,0.0,0.0,0.0,0.0,0.0,0.0,0.0,0.0,0.0,0.0,0.0,2.6509,2.7078,2.7555,0.0,0.0,0.0,0.0,0.0,0.0,0.0,0.0,0.0,0.0,2.7902,2.7914,2.8064,2.8212,2.8199,2.8199,2.8364,2.8831,2.8891,2.9056,2.9533,0.0,0.0,0.0,0.0,0.0,0.0,0.0,0.0,0.0,0.0,0.0,0.0,0.0,0.0,0.0,0.0,0.0,0.0,0.0,0.0,0.0,0.0,0.0,0.0,0.0,0.0,0.0,0.0,0.0,0.0,0.0,0.0,0.0,0.0,0.0,0.0,0.0,0.0,0.0,0.0,0.0,0.0,0.0,0.0,0.0,0.0,0.0,0.0,0.0,0.0,0.0,0.0,0.0,2.7244,2.6539,2.6992,2.6539,2.5135,2.559,2.5462,2.4773,2.4766,2.4766,2.4754,0.0,0.0,0.0,0.0,0.0,0.0,0.0,0.0,0.0,0.0,0.0,0.0,0.0,0.0,0.0,0.0,0.0,0.0,0.0,0.0,0.0,0.0,0.0,0.0,0.0,0.0,2.6572,2.718,2.757,0.0,0.0,0.0,0.0,0.0,0.0,0.0,0.0,0.0,0.0,2.8156,2.8577,2.8592,2.9129,2.9503,2.9518,2.9518,2.9548,2.9563,2.9592,2.9593,0.0,0.0,0.0,0.0,0.0,0.0,0.0,0.0,0.0,0.0,0.0,0.0,0.0,0.0,0.0,0.0,0.0,0.0,0.0,0.0,0.0,0.0,0.0,0.0,0.0,0.0,0.0,2.5478,2.5528,0.0,0.0,0.0,0.0,0.0,0.0,0.0,0.0,0.0,0.0,0.0,2.7206,2.7333,0.0,0.0,0.0,0.0,0.0,0.0,0.0,0.0,0.0,0.0,0.0,0.0,2.7261,2.696,2.6561,2.5891,2.4946,2.5065,2.5052,2.4804,2.4816,2.4816,2.4816,0.0,0.0,0.0,0.0,0.0,0.0,0.0,0.0,0.0,0.0,0.0,0.0,0.0,0.0,0.0,0.0,0.0,0.0,0.0,0.0,0.0,0.0,0.0,0.0,0.0,2.727,0.0,0.0,0.0,0.0,0.0,0.0,0.0,0.0,0.0,0.0,0.0,2.8425,2.8873,2.9114,2.9264,2.9264,2.9458,2.9608,0.0,0.0,0.0,0.0,0.0,0.0,0.0,0.0,0.0,0.0,0.0,0.0,0.0,0.0,3.0583,2.9758,2.9608,2.9608,2.9608,0.0,0.0,0.0,0.0,0.0,0.0,0.0,0.0,0.0,0.0,0.0,0.0,0.0,0.0,0.0,0.0,2.6503,0.0,0.0,0.0,0.0,0.0,0.0,0.0,0.0,2.7149,2.698,2.7353,2.7489,2.7515,0.0,2.8195,2.8275,0.0,0.0,0.0,0.0,0.0,0.0,0.0,0.0,2.7342,2.6761,2.6383,2.5825,2.5129,2.5285,2.5398,2.5385,2.5385,2.5398,2.5398,2.5398,2.5398,0.0,0.0,0.0,0.0,0.0,0.0,0.0,0.0,0.0,0.0,0.0,0.0,0.0,0.0,0.0,0.0,0.0,0.0,0.0,0.0,0.0,0.0,0.0,2.8289,0.0,0.0,0.0,0.0,0.0,0.0,0.0,0.0,0.0,2.8996,2.8949,2.9101,2.9533,2.9773,2.9907,2.9922,0.0,0.0,0.0,0.0,0.0,0.0,0.0,3.0987,3.1436,3.1496,3.1496,3.1496,3.1496,3.1496,3.1496,0.0,0.0,3.0417,3.0253,3.0268,3.0268,3.0268,3.0268,3.0268,3.0253,3.0253,0.0,0.0,0.0,0.0,0.0,0.0,0.0,0.0,2.8412,2.8152,0.0,2.753,0.0,0.0,0.0,0.0,0.0,0.0,0.0,0.0,2.7658,2.7687,2.7672,2.77,2.7672,2.7705,2.8349,2.8635,2.859,2.7951,0.0,0.0,0.0,0.0,0.0,0.0,2.7501,2.606,2.6445,2.6346,2.5669,2.618,2.6491,2.6461,2.6461,2.6461,2.6474,2.6461,2.6474,2.6474,2.6461,0.0,0.0,0.0,0.0,0.0,0.0,0.0,0.0,0.0,0.0,0.0,0.0,0.0,0.0,0.0,0.0,0.0,0.0,0.0,0.0,2.9204,0.0,0.0,0.0,0.0,0.0,0.0,0.0,0.0,0.0,0.0,2.9683,2.9638,2.9638,2.9668,0.0,0.0,0.0,0.0,3.1481,3.1481,3.1496,3.1481,3.1481,3.1496,3.1496,3.1496,0.0,0.0,3.1496,3.1496,3.1496,3.1496,3.1496,3.1496,3.1466,3.1421,3.1436,3.1436,3.1406,3.1481,3.1466,3.1303,3.129,3.1833,0.0,0.0,0.0,0.0,3.0565,3.0356,2.9989,2.9821,2.9464,2.9022,2.8858,0.0,0.0,0.0,0.0,0.0,0.0,2.9769,2.9586,2.9206,2.9024,2.9024,2.9037,2.9022,2.9024,2.9219,2.9309,2.9282,2.849,2.8503,2.9282,0.0,0.0,0.0,0.0,2.7166,2.716,2.6777,2.6456,2.626,2.6411,2.6487,2.6487,2.6487,2.6487,2.6487,2.6487,2.6487,2.6487,2.6487,0.0,0.0,0.0,0.0,0.0,0.0,0.0,0.0,0.0,0.0,0.0,0.0,0.0,0.0,0.0,0.0,0.0,0.0,0.0,2.9322,2.9488,2.9608,0.0,0.0,0.0,0.0,0.0,0.0,0.0,0.0,0.0,3.0943,3.0537,3.0417,0.0,0.0,3.1197,3.1212,3.1376,3.1496,3.1496,0.0,0.0,0.0,3.1496,3.1496,3.1496,3.1496,3.1496,3.1496,3.1496,3.1496,3.1481,3.1496,3.1496,3.1496,3.1496,3.1481,3.1496,3.1496,3.1496,3.1467,3.1058,3.0644,3.3215,3.2779,3.2467,3.1924,3.1295,3.1284,3.109,3.0766,3.0553,3.0211,2.9805,2.9581,2.9557,2.9697,3.0371,0.0,0.0,0.0,3.0377,3.0119,2.9766,2.9608,2.9608,2.9608,2.9608,2.9608,2.9832,2.9787,2.9467,2.887,2.8853,2.9305,0.0,0.0,2.8592,2.7632,2.7134,2.7187,2.6748,2.6487,2.6487,2.6487,2.6487,2.6487,2.6487,2.6487,2.6487,2.6487,2.6487,2.6487,2.6487,2.6487,0.0,0.0,0.0,0.0,0.0,0.0,0.0,0.0,0.0,0.0,0.0,2.8524,2.9042,0.0,0.0,0.0,2.9611,3.0072,3.0314,3.0357,0.0,0.0,0.0,0.0,0.0,0.0,0.0,3.0883,3.1241,3.1496,3.1496,3.1152,3.1047,3.1451,3.1496,3.1496,3.1496,0.0,3.1496,3.1496,3.1496,3.1496,3.1496,3.1496,3.1496,3.1496,3.1234,3.1043,3.1014,3.0762,3.051,3.0495,3.0509,3.0509,3.051,3.0509,3.0762,3.1351,3.1234,3.1014,3.1014,3.0359,2.9767,3.3604,3.3444,3.2718,3.2084,3.1577,3.1565,3.1577,3.1528,3.0986,3.0724,3.0621,3.0076,3.0116,3.0608,3.1162,0.0,3.0582,3.0582,3.0286,2.9771,2.9743,2.9743,2.9743,2.9758,2.9743,2.9773,3.0257,3.0115,2.939,2.9053,2.8907,2.8864,2.8232,2.782,2.771,2.7637,2.7246,2.6516,2.6487,2.6487,2.6487,2.6487,2.6487,2.6487,2.6487,2.6487,2.6487,2.6487,2.6487,2.6487,2.6487,2.6487,2.6504,0.0,0.0,0.0,0.0,0.0,0.0,0.0,0.0,0.0,0.0,0.0,0.0,0.0,0.0,0.0,2.9761,0.0,3.1451,3.1496,0.0,0.0,0.0,3.1496,3.1496,3.1496,3.1496,3.1496,0.0,0.0,3.1496,0.0,3.1496,3.1496,3.1496,3.1496,3.1496,3.1423,3.1424,3.1481,3.1438,3.1409,3.1467,3.1409,3.1278,3.1146,3.0673,3.0223,3.0148,2.9628,2.9081,2.9099,2.9004,2.9036,2.9004,2.9129,2.9473,3.097,3.0688,3.0194,3.0163,2.9504,2.8907,3.3763,3.2839,3.2643,3.2731,3.3089,3.3073,3.3073,3.3061,3.2937,3.2575,3.2093,3.193,3.1674,3.1272,3.1411,3.1411,3.1257,3.1257,3.1173,3.1032,3.1046,3.1046,3.1032,3.1047,3.1061,3.1019,3.0558,3.0247,2.9993,2.868,2.8002,2.7986,2.7237,2.7137,2.7653,2.7108,2.6709,2.6487,2.6487,2.6487,2.6487,2.6487,2.6487,2.6487,2.6487,2.6487,2.6487,2.6487,2.6487,2.6487,2.6487,2.6487,2.6487,2.6692,0.0,0.0,0.0,0.0,0.0,0.0,0.0,0.0,0.0,2.9129,2.9777,0.0,2.9822,0.0,3.0704,3.1331,3.1496,3.1496,0.0,0.0,3.1496,3.1496,3.1496,3.1496,3.1496,3.1496,3.1496,3.1496,3.1496,3.1496,3.1496,3.1496,3.1481,3.1496,3.1481,3.097,3.0807,3.1322,3.1028,3.0807,3.1322,3.097,3.0403,2.9704,2.9426,2.9317,2.9315,2.916,2.8989,2.8989,2.8989,2.8989,2.8982,2.8989,2.9081,2.9504,2.9426,2.9331,2.9286,2.862,2.8019,3.3684,3.3005,3.299,3.3218,3.3505,3.2913,3.2648,3.2664,3.2664,3.2461,3.212,3.212,3.1881,3.1496,3.1496,3.1496,3.1496,3.1496,3.1496,3.1496,3.1496,3.1496,3.1496,3.1146,3.0955,3.094,3.0118,2.952,2.9097,2.8165,2.7534,2.7162,2.6726,2.6714,2.7129,2.6714,2.6487,2.6487,2.6487,2.6487,2.6487,2.6487,2.6487,2.6487,2.6487,2.6487,2.6487,2.6487,2.6487,2.6487,2.6487,2.6487,2.6487,2.6487,2.6487,0.0,0.0,0.0,0.0,0.0,0.0,0.0,0.0,0.0,0.0,0.0,2.9457,3.0238,3.0703,3.1102,3.1452,3.119,3.097,3.097,3.0614,3.0389,3.0404,3.0389,3.0389,3.0389,3.0374,3.0404,3.0389,3.0404,3.0475,3.0704,3.0732,3.0884,3.1232,3.0961,3.082,3.1016,3.1104,3.1057,3.1135,3.073,3.0287,2.9803,2.9411,2.9179,2.9163,2.8842,2.859,2.859,2.8603,2.8603,2.859,2.8398,2.8302,2.8497,2.8408,2.8322,2.8384,2.7769,2.7162,3.3574,3.3499,3.3499,3.3499,3.3425,3.2243,3.175,3.1764,3.175,3.175,3.1765,3.175,3.175,3.175,3.175,3.175,3.1765,3.175,3.175,3.175,3.1765,3.1691,3.1545,3.0861,3.0469,3.03,2.9475,2.8617,2.7795,2.7709,2.7244,2.6533,2.6487,2.6487,2.6487,2.6487,2.6487,2.6487,2.6487,2.6487,2.6487,2.6487,2.6487,2.6487,2.6487,2.6487,2.6487,2.6487,2.6487,2.6487,2.6487,2.6487,2.6487,2.6487,2.6487,0.0,2.7162,0.0,0.0,0.0,0.0,0.0,0.0,0.0,0.0,2.7716,2.8392,2.9996,3.0118,3.0419,3.1117,3.0554,3.0133,3.0117,2.9471,2.8989,2.9002,2.8989,2.8989,2.8989,2.9071,2.9097,2.9188,2.9152,2.9426,2.9914,2.9896,3.0115,3.0785,3.089,3.0749,3.0594,3.1331,3.1368,3.0637,3.0422,3.0341,3.0194,2.9603,2.9254,2.9184,2.8618,2.8121,2.8126,2.8136,2.8132,2.8109,2.7736,2.7629,2.806,2.7819,2.7618,2.7742,2.7349,2.6735,3.4009,3.3514,3.3499,3.3499,3.3469,3.323,3.311,3.311,3.314,3.311,3.311,3.3125,3.3125,3.3125,3.3125,3.3095,3.3125,3.3125,3.311,3.311,3.3125,3.2714,3.2001,3.1843,3.1348,3.0519,2.9709,2.8991,2.8328,2.7691,2.7083,2.6499,2.6487,2.6487,2.6487,0.0,0.0,0.0,2.6487,2.6487,2.6487,2.6487,2.6487,2.6487,2.6487,0.0,2.6487,2.6487,2.6487,2.6487,2.6487,0.0,0.0,0.0,0.0,0.0,0.0,0.0,0.0,0.0,0.0,0.0,2.6714,2.6994,2.7637,2.7716,2.8119,2.9129,2.9254,2.9301,2.9471,2.9348,2.9239,2.9239,2.9083,2.8989,2.8989,2.8987,2.8989,2.9002,2.9366,2.9623,2.9585,3.0033,3.0266,3.0286,2.9885,2.974,3.0303,3.0081,2.9976,3.048,3.0844,3.0603,2.9752,2.9679,2.95,2.8764,2.8502,2.8413,2.8439,2.8335,2.8122,2.8147,2.8109,2.8134,2.8147,2.8009,2.7996,2.8097,2.8021,2.7963,2.8024,2.7909,2.7795,3.4817,0.0,3.4487,3.4487,0.0,3.4487,3.4487,3.4442,3.3784,3.3499,3.3499,3.3499,3.3499,3.3499,3.3499,3.3499,3.3499,3.3499,3.3499,3.3484,3.3022,3.2568,3.2091,3.1182,3.0511,2.9977,2.9148,2.861,2.8291,2.7873,2.7562,2.7286,2.7286,2.7286,2.7286,2.7286,2.704,2.6487,2.6487,2.6487,2.6487,2.6487,2.6487,2.6487,0.0,0.0,0.0,0.0,0.0,0.0,0.0,0.0,0.0,0.0,0.0,2.6487,2.6487,2.6487,2.6487,2.6487,2.6487,2.6487,2.6487,2.6675,2.7091,2.7112,2.7451,2.8279,2.836,2.8524,2.8939,2.862,2.8363,2.833,2.8002,2.7769,2.7782,2.8003,2.8145,2.8211,2.8639,2.8977,2.8947,2.9184,2.9464,2.9692,2.9416,2.9376,2.9877,2.9952,3.0144,3.0748,3.0448,3.0077,2.9706,2.9608,2.9503,2.9051,2.8957,2.8938,2.8938,2.8957,2.8938,2.8938,2.8938,2.8938,2.8913,2.8706,2.858,2.8825,2.8693,2.8631,2.8812,2.8499,2.8109,3.5833,3.5848,3.5832,3.5848,3.5848,3.5817,3.5757,3.5594,0.0,0.0,0.0,3.3858,3.3844,3.3858,3.3844,3.3828,3.3844,3.3844,3.3751,3.3549,3.2793,3.226,3.1867,3.0408,2.9644,2.9425,2.8753,2.836,2.826,2.8247,2.8179,2.8122,2.8109,2.8109,2.8109,2.8109,2.7657,2.6826,2.6688,2.66,2.6499,2.6487,2.6487,2.6487,2.6487,2.6487,2.6487,2.6487,2.6487,2.6487,2.6487,2.6487,2.6487,2.6487,2.6487,2.6487,2.6487,2.6487,2.6487,2.6487,2.6487,2.6487,2.6487,2.6487,2.6487,2.6487,2.6794,2.7434,2.7471,2.7772,2.8476,2.7937,2.7523,2.7598,2.7041,2.6692,2.6818,2.716,2.7526,2.7512,2.7986,2.8247,2.8321,2.8452,2.853,2.8963,2.917,2.9208,2.9699,3.0033,3.0322,3.0675,3.0259,2.9793,2.9786,2.9787,2.9779,2.971,2.9729,2.9779,2.9779,2.9779,2.9779,2.9691,2.9779,2.9741,2.9741,2.9358,2.9245,2.9691,2.9428,2.9208,2.9566,2.9082,2.8486,3.7135,3.7118,3.7135,3.715,3.7135,3.7135,3.6836,3.6299,3.5549,3.522,3.522,3.522,3.5204,3.5204,3.522,3.522,3.522,3.522,3.4755,0.0,3.3802,3.2883,3.1355,3.1058,3.0524,2.977,2.9598,2.9302,2.8844,2.8794,2.8555,2.8172,2.8109,2.8122,2.8109,2.8109,2.8021,2.7871,2.7406,2.6964,2.6512,2.6487,2.6487,2.6487,2.6504,2.6487,2.6487,2.6487,2.6487,2.6487,2.6487,2.6487,2.6487,2.6487,2.6487,2.6487,2.6487,2.6487,2.6487,2.6487,2.6487,2.6487,2.6487,2.6487,2.6487,2.6487,2.6538,2.6662,2.6722,2.6696,2.6833,2.682,2.6967,2.7308,2.7274,2.7374,2.7745,2.7908,2.7996,2.7996,2.8455,2.8775,2.8831,2.9202,2.9478,2.9616,2.9578,2.9691,2.9767,2.9832,2.9903,2.9966,2.9908,2.9792,2.9779,2.9779,2.9779,2.9779,2.9779,2.9779,2.9779,2.9779,2.9779,2.9779,2.9779,2.9779,2.9779,2.9754,2.9679,2.9779,2.9654,2.9679,2.9779,2.9578,2.9497,3.7387,3.7387,3.7387,3.7387,3.7387,3.7387,3.7255,3.6971,3.6655,3.6148,3.5519,3.5489,3.5489,3.5489,3.5489,3.5489,3.5472,3.4922,3.4442,3.3942,3.2961,3.2033,3.1204,3.0677,3.0235,2.9811,2.9779,2.9654,2.9408,2.9402,2.9277,2.9026,2.9026,2.9013,2.9026,2.9013,2.8875,2.853,2.8009,2.7607,2.7374,2.7085,2.6922,2.6939,2.6663,2.6487,2.6487,2.6487,2.6487,2.6487,2.6487,2.6487,2.6487,2.6487,2.6487,2.6487,2.6487,2.6487,2.6487,2.6487,2.6487,2.6487,2.6487,2.6625,2.6909,2.6663,2.6487,2.6512,2.6751,2.6939,2.6952,2.7198,2.7457,2.7695,2.772,2.7833,2.8084,2.838,2.8518,2.858,2.9032,2.9371,2.9383,2.9628,2.9779,2.9779,2.9779,2.9779,2.9779,2.9779,2.9779,2.9779,2.9779,2.9779,2.9779,2.9779,2.9779,2.9779,2.9779,2.9779,2.9779,2.9779,2.9779,2.9779,2.9779,2.9779,2.9779,2.9779,2.9779,2.9779,2.9779,2.9779,2.9779,2.9779,2.9779,3.7836,3.7851,3.7851,3.7836,3.7836,3.7836,3.7793,3.7629,3.7614,3.6867,3.5716,3.5839,3.5938,3.5907,3.5561,3.5372,3.5243,3.4201,3.3567,3.3237,3.187,3.11,3.0833,3.012,2.9779,2.9779,2.9779,2.9779,2.9779,2.9779,2.9779,2.9779,2.9779,2.9779,2.9779,2.9779,2.9546,2.9095,2.8699,2.836,2.8109,2.7682,2.7487,2.7449,2.7072,2.6813,2.67,2.6675,2.6625,2.6499,2.6487,2.6487,2.6487,2.6487,2.6487,2.6487,2.6487,2.6487,2.6499,2.6629,2.6688,2.6688,2.6801,2.7022,2.7386,2.711,2.6846,2.6901,2.7261,2.7487,2.7525,2.7808,2.816,2.826,2.8285,2.8373,2.8511,2.8856,2.9107,2.9157,2.9528,2.9767,2.9779,2.9779,2.9779,2.9779,2.9779,2.9779,2.9779,2.9779,2.9779,2.9779,2.9779,2.9779,2.9779,2.9779,2.9779,2.9779,2.9779,2.9779,2.9779,2.9779,2.9779,2.9779,2.9779,2.9779,2.9779,2.9779,2.9779,2.9779,2.9779,2.9779,2.9779,2.9779,2.9779,3.9197,3.9212,3.9167,3.9212,3.9167,3.9167,3.8838,3.8315,3.8287,3.7393,3.5991,3.683,3.7142,3.7016,3.5655,3.503,3.4903,3.3424,3.2331,3.1613,3.1291,3.0752,3.01,2.9875,2.9792,2.9804,2.9817,2.9829,2.9779,2.9779,2.9779,2.9779,2.9779,2.9779,2.9779,2.9779,2.9767,2.9704,2.9666,2.9139,2.8172,2.8059,2.8034,2.8003,2.7971,2.7738,2.7248,2.7223,2.7014,2.6549,2.6524,2.6512,2.6512,2.6499,2.6499,2.6524,2.6512,2.6487,2.6537,2.6964,2.7223,2.7261,2.765,2.7934,2.8021,2.7984,2.7946,2.7971,2.7991,2.8034,2.8021,2.8122,2.838,2.8794,2.8831,2.9045,2.9465,2.9679,2.9736,2.9716,2.9729,2.9779,2.9779,2.9779,2.9779,2.9779,2.9779,2.9779,2.9779,2.9779,2.9779,2.9779,2.9779,2.9779,2.9779,2.9779,2.9779,2.9779,2.9779,2.9779,2.9779,2.9779,2.9779,2.9779,2.9779,2.9779,2.9779,2.9779,2.9779,2.9779,2.9779,2.9779,2.9779,2.9779,2.9779,3.9406,3.9406,3.9406,3.9406,3.9406,3.9406,3.8887,3.8062,3.8029,3.73,3.6197,3.6523,3.6292,3.5552,3.4868,3.4587,3.4486,3.328,3.2526,3.21,3.1597,3.1093,3.0773,3.0753,3.0583,3.0294,3.0262,3.0086,2.9829,2.9792,2.9779,2.9779,2.9779,2.9779,2.9779,2.9779,2.9779,2.9779,2.9779,2.9553,2.9139,2.8743,2.8568,2.8543,2.8254,2.8009,2.7795,2.777,2.767,2.7474,2.7437,2.7449,2.7431,2.7449,2.7449,2.7449,2.7449,2.7449,2.7462,2.7645,2.777,2.7758,2.7971,2.8235,2.8543,2.858,2.8706,2.9013,2.8781,2.8568,2.8605,2.89,2.9202,2.9402,2.944,2.9528,2.9741,2.9779,2.9779,2.9779,2.9779,2.9779,2.9779,2.9779,2.9779,2.9779,2.9779,2.9779,2.9779,2.9779,2.9779,2.9779,2.9779,2.9779,2.9779,2.9779,2.9779,2.9779,2.9779,2.9779,2.9779,2.9779,2.9779,2.9779,2.9779,2.9779,2.9779,2.9779,2.9779,2.9779,2.9779,2.9779,2.9779,2.9779,2.9779,3.9406,3.9406,3.9406,3.9213,3.8947,3.8962,3.8364,3.7439,3.7362,3.6774,3.5848,3.5774,3.512,3.4101,3.4105,3.4178,3.4016,3.2948,3.2409,3.2349,3.1706,3.1394,3.1406,3.1406,3.1198,3.0884,3.0834,3.062,3.0263,3.0068,3.0018,3.0005,2.9886,2.9779,2.9779,2.9779,2.9779,2.9779,2.9779,2.9779,2.9716,2.9358,2.9157,2.9107,2.8756,2.8499,2.8335,2.8317,2.826,2.8109,2.8109,2.8109,2.8109,2.8109,2.8109,2.8109,2.8109,2.8109,2.8109,2.8247,2.8335,2.8317,2.8473,2.8737,2.9045,2.9145,2.9352,2.9673,2.9415,2.9145,2.9195,2.9541,2.9767,2.9779,2.9779,2.9779,2.9779,2.9779,2.9779,2.9779,2.9779,2.9779,2.9779,2.9779,2.9779,2.9779,2.9779,2.9779,2.9779,2.9779,2.9779,2.9779,2.9779,2.9779,2.9779,2.9779,2.9779,2.9779,2.9779,2.9779,2.9779,2.9779,2.9779,2.9779,2.9779,2.9779,2.9779,2.9779,2.9779,2.9779,2.9779,2.9779,2.9779,2.9779,2.9779,3.9406,3.9388,3.9406,3.8764,3.7866,3.7881,3.7266,3.6271,3.6271,3.5708,3.4828,3.4767,3.4173,3.3263,3.3639,3.3827,3.3607,3.2283,3.165,3.165,3.1535,3.1432,3.1406,3.1406,3.1386,3.1381,3.1361,3.1311,3.1231,3.0796,3.055,3.0538,3.0093,2.9817,2.9849,2.9804,2.9779,2.9779,2.9779,2.9779,2.9779,2.9754,2.9704,2.9691,2.9723,2.9402,2.8944,2.8863,2.8656,2.8147,2.8185,2.816,2.8147,2.816,2.8185,2.8172,2.8147,2.816,2.8235,2.8618,2.8881,2.8932,2.9327,2.9679,2.9654,2.9666,2.9704,2.9779,2.9729,2.9691,2.9691,2.9729,2.9779,2.9779,2.9779,2.9779,2.9779,2.9779,2.9779,2.9779,2.9779,2.9779,2.9779,2.9779,2.9779,2.9779,2.9779,2.9779,2.9779,2.9779,2.9779,2.9779,2.9779,2.9779,2.9779,2.9779,2.9779,2.9779,2.9779,2.9779,2.9779,2.9779,2.9779,2.9779,2.9779,2.9779,2.9779,2.9779,2.9779,2.9779,2.9779,2.9779,2.9779,2.9779,2.9779,3.9013,3.8397,3.8364,3.7757,3.6813,3.6794,3.6186,3.5292,3.5238,3.465,3.3797,3.3691,3.3462,3.312,3.3255,3.3363,3.3296,3.2731,3.2487,3.2499,3.2487,3.2487,3.2487,3.2487,3.2252,3.1951,3.1926,3.1725,3.1399,3.1198,3.111,3.1022,3.0583,3.0319,3.0256,2.9967,2.9779,2.9792,2.9779,2.9779,2.9779,2.9779,2.9779,2.9779,2.9779,2.9691,2.9471,2.9478,2.939,2.9189,2.9189,2.9189,2.9189,2.9189,2.9189,2.9189,2.9176,2.9189,2.9214,2.9365,2.9478,2.949,2.9666,2.9779,2.9779,2.9779,2.9779,2.9779,2.9779,2.9779,2.9779,2.9779,2.9779,2.9779,2.9779,2.9779,2.9779,2.9779,2.9779,2.9779,2.9779,2.9779,2.9779,2.9779,2.9779,2.9779,2.9779,2.9779,2.9779,2.9779,2.9779,2.9779,2.9779,2.9779,2.9779,2.9779,2.9779,2.9779,2.9779,2.9779,2.9779,2.9779,2.9779,2.9779,2.9779,2.9779,2.9779,2.9779,2.9779,2.9779,2.9779,2.9779,2.9779,2.9867,2.9842,3.8252,3.7362,3.7286,3.6657,3.5754,3.5714,3.5149,3.4233,3.417,3.3776,3.3188,3.3102,3.3102,3.3102,3.3102,3.3102,3.3102,3.309,3.3102,3.3102,3.3102,3.3102,3.3102,3.3102,3.2901,3.2541,3.2491,3.229,3.1951,3.1758,3.167,3.1625,3.1122,3.0871,3.0751,3.0331,3.0055,3.0043,2.9892,2.9779,2.9779,2.9779,2.9779,2.9779,2.9779,2.9779,2.9779,2.9779,2.9779,2.9779,2.9779,2.9779,2.9779,2.9779,2.9779,2.9779,2.9779,2.9779,2.9779,2.9779,2.9779,2.9779,2.9779,2.9779,2.9779,2.9779,2.9779,2.9779,2.9779,2.9779,2.9779,2.9779,2.9779,2.9779,2.9779,2.9779,2.9779,2.9779,2.9779,2.9779,2.9779,2.9779,2.9779,2.9779,2.9779,2.9779,2.9779,2.9779,2.9779,2.9779,2.9779,2.9779,2.9779,2.9779,2.9792,2.9804,2.9829,2.9829,2.9792,2.9779,2.9779,2.9779,2.9779,2.9779,2.9779,2.9779,2.9779,2.976,2.976,2.974,2.9779,2.9779,2.9867,2.9993,2.997,3.7175,3.6257,3.6212,3.5608,3.4733,3.4684,3.41,3.3313,3.3197,3.3197,3.3102,3.3102,3.3102,3.3102,3.3102,3.3102,3.3102,3.3102,3.3102,3.3102,3.3102,3.3102,3.3102,3.3102,3.309,3.3014,3.3065,3.3065,3.2927,3.2453,3.2215,3.2127,3.1662,3.1411,3.1406,3.0896,3.062,3.0512,3.0193,2.9892,2.9804,2.9854,2.9842,2.9804,2.9779,2.9779,2.9779,2.9779,2.9779,2.9779,2.9779,2.9779,2.9779,2.9779,2.9779,2.9779,2.9779,2.9779,2.9779,2.9779,2.9779,2.9779,2.9779,2.9779,2.9779,2.9779,2.9817,2.988,2.988,2.9854,2.9917,2.9955,2.9892,2.9792,2.9842,2.9892,2.9854,2.9817,2.9804,2.9842,2.9842,2.9792,2.9779,2.9779,2.9779,2.9779,2.9779,2.9842,2.9905,2.993,2.9842,2.9905,3.0068,3.0206,3.0018,2.9842,2.9886,2.9899,2.9817,2.9779,2.9779,2.9779,2.9779,2.9779,2.9779,2.976,2.9255,2.9255,2.9346,2.9365,2.9534,2.9686,3.0016,3.0133,3.0139,3.6107,3.521,3.517,3.4547,3.3649,3.3598,3.3377,3.3111,3.3102,3.3102,3.3102,3.3102,3.3102,3.3102,3.3102,3.3102,3.3102,3.3102,3.3102,3.3102,3.3102,3.3102,3.3102,3.3102,3.3102,3.3102,3.3102,3.3102,3.3065,3.2901,3.2826,3.2704,3.2227,3.1976,3.1926,3.1436,3.1148,3.1122,3.1004,3.0733,3.0407,3.0349,3.0193,2.9842,2.9779,2.9779,2.9779,2.9779,2.9779,2.9792,2.9779,2.9779,2.9779,2.9779,2.9779,2.9779,2.9779,2.9779,2.9779,2.9792,2.9792,2.9792,2.9792,2.9779,2.9779,2.9817,3.0005,3.0281,3.0349,3.047,3.0796,3.0884,3.0602,2.9899,3.0131,3.0337,3.0357,3.0337,3.0337,3.0287,3.003,2.9817,2.9804,2.9829,2.988,2.9867,2.9867,2.9955,3.0269,3.0357,3.0545,3.0796,3.0834,3.0746,3.0665,3.059,3.0602,3.0401,3.0156,2.998,2.993,2.9779,2.9779,2.9721,2.9721,2.9443,2.8937,2.8629,2.8629,2.8653,2.8586,2.9129,2.9992,3.0118,2.9873,3.5047,3.4142,3.4108,3.3747,3.3124,3.3102,3.3102,3.3102,3.3102,3.3102,3.3102,3.3102,3.3102,3.3102,3.3102,3.3102,3.3102,3.3102,3.3102,3.3102,3.3102,3.3102,3.3102,3.3102,3.3102,3.3102,3.3102,3.3102,3.3102,3.3102,3.3102,3.3014,3.2704,3.2528,3.2478,3.1989,3.17,3.1675,3.1494,3.1235,3.0952,3.0889,3.0733,3.0444,3.0414,3.0394,3.0401,3.0382,3.0213,2.988,2.9779,2.9779,2.9779,2.9779,2.9779,2.9779,2.9779,2.9779,2.9779,2.9779,2.9905,3.0043,3.0093,3.0206,3.0331,3.0382,3.0583,3.0821,3.0909,3.1035,3.1319,3.1394,3.108,3.0495,3.0696,3.0896,3.0896,3.0876,3.0889,3.0846,3.0633,3.0419,3.0401,3.0414,3.0382,3.0382,3.0414,3.0444,3.0809,3.0896,3.1148,3.1311,3.1256,3.1243,3.1331,3.1344,3.1344,3.1004,3.0608,3.0382,3.0211,2.9917,2.9779,2.9534,2.9463,2.8905,2.8386,2.7735,2.7525,2.7528,2.7673,2.8414,2.9085,2.9194,2.9163,3.4003,3.3154,3.3124,3.3154,3.3102,3.3102,3.3102,3.3102,3.3102,3.3102,3.3102,3.3102,3.3102,3.3102,3.3102,3.3102,3.3102,3.3102,3.3102,3.3102,3.3102,3.3102,3.3102,3.3102,3.3102,3.3102,3.3102,3.3102,3.3102,3.3102,3.3102,3.309,3.3052,3.3065,3.2927,3.2503,3.2265,3.2202,3.1813,3.1595,3.1461,3.1457,3.1373,3.1298,3.126,3.1248,3.1243,3.1218,3.0866,3.0043,3.0018,3.0043,2.9942,2.988,2.9993,3.0018,2.9905,2.998,2.993,3.0055,3.0193,3.0595,3.067,3.0826,3.116,3.1193,3.1268,3.1411,3.1449,3.1494,3.1582,3.1633,3.1562,3.152,3.1461,3.1474,3.152,3.1507,3.1469,3.1444,3.1432,3.1381,3.1256,3.1268,3.1268,3.1248,3.1256,3.1268,3.1399,3.1449,3.1461,3.1599,3.1821,3.1871,3.2022,3.2022,3.2022,3.1859,3.1361,3.0959,3.0588,3.0244,2.9993,2.9696,2.9101,2.8506,2.7703,2.7005,2.6582,2.656,2.6968,2.7636,2.8102,2.8402,2.8466,3.3356,3.3102,3.3102,3.3102,3.3102,3.3102,3.3102,3.3102,3.3102,3.3102,3.3102,3.3102,3.3102,3.3102,3.3102,3.3102,3.3102,3.3102,3.3102,3.3102,3.3102,3.3102,3.3102,3.3102,3.3102,3.3102,3.3102,3.3102,3.3102,3.3102,3.3102,3.3102,3.3102,3.3102,3.3052,3.2927,3.2876,3.2876,3.2751,3.2365,3.2039,3.2001,3.1788,3.1432,3.1444,3.1444,3.1419,3.1406,3.1331,3.1035,3.0992,3.0992,3.0916,3.0916,3.0891,3.0904,3.0922,3.0947,3.0954,3.0942,3.1042,3.1148,3.1185,3.1248,3.1369,3.1406,3.1587,3.1851,3.2001,3.2177,3.2525,3.26,3.2612,3.26,3.2227,3.2152,3.2424,3.2252,3.1989,3.1964,3.1675,3.1545,3.1507,3.1507,3.1507,3.1507,3.1545,3.1612,3.1888,3.2014,3.2039,3.2499,3.2726,3.27,3.27,3.27,3.27,3.2663,3.2227,3.1662,3.1223,3.0733,3.0545,3.032,2.9272,2.8541,2.7161,2.608,2.5888,2.5851,2.5979,2.653,2.7536,2.8064,2.7772,3.3102,3.3102,3.3102,3.3102,3.3102,3.3102,3.3102,3.3102,3.3102,3.3102,3.3102,3.3102,3.3102,3.3102,3.3102,3.3102,3.3102,3.3102,3.3102,3.3102,3.3102,3.3102,3.3102,3.3102,3.3102,3.3102,3.3102,3.3102,3.3102,3.3102,3.3102,3.3102,3.3102,3.3102,3.3102,3.3102,3.3102,3.309,3.3102,3.2914,3.2625,3.2579,3.2453,3.216,3.2123,3.2123,3.2123,3.2123,3.1934,3.1545,3.1394,3.1406,3.1406,3.1406,3.1406,3.1406,3.1406,3.1394,3.1406,3.1406,3.1532,3.1675,3.1717,3.1876,3.2072,3.2123,3.2311,3.2516,3.2566,3.2763,3.3002,3.3102,3.3102,3.3014,3.2801,3.2717,3.3077,3.2754,3.2604,3.2491,3.2315,3.2102,3.211,3.2097,3.2097,3.2148,3.2223,3.234,3.2516,3.2566,3.2616,3.2939,3.3102,3.2989,3.2927,3.2927,3.2914,3.2927,3.2813,3.2265,3.1738,3.1243,3.1072,3.0638,2.9521,2.8448,2.733,2.6225,2.5576,2.5485,2.5329,2.5799,2.6937,2.7814,2.7495,3.3102,3.3102,3.3102,3.3102,3.3102,3.3102,3.3102,3.3102,3.3102,3.3102,3.3102,3.3102,3.3102,3.3102,3.3102,3.3102,3.3102,3.3102,3.3102,3.3102,3.3102,3.3102,3.3102,3.3102,3.3102,3.3102,3.3102,3.3102,3.3102,3.3102,3.3102,3.3102,3.3102,3.3102,3.3102,3.3102,3.3102,3.3102,3.3102,3.3077,3.3002,3.2989,3.2939,3.2914,3.2889,3.2914,3.2952,3.2952,3.26,3.1658,3.1582,3.1695,3.1658,3.162,3.1645,3.1695,3.1758,3.1733,3.1645,3.1758,3.1813,3.2202,3.2303,3.2491,3.2839,3.2914,3.2939,3.2989,3.309,3.3052,3.3077,3.3102,3.3102,3.309,3.3065,3.309,3.3102,3.3102,3.3102,3.3102,3.3077,3.309,3.3102,3.3102,3.3052,3.265,3.2713,3.2763,3.2851,3.2876,3.2914,3.3027,3.3102,3.3102,3.3077,3.3077,3.3065,3.3065,3.3052,3.27,3.2152,3.1738,3.1574,3.1042,3.0047,2.9204,2.8397,2.7282,2.6087,2.545,2.5503,2.6021,2.6734,2.7404,2.7482,3.3102,3.3102,3.3102,3.3102,3.3102,3.3102,3.3102,3.3102,3.3102,3.3102,3.3102,3.3102,3.3102,3.3102,3.3102,3.3102,3.3102,3.3102,3.3102,3.3102,3.3102,3.3102,3.3102,3.3102,3.3102,3.3102,3.3102,3.3102,3.3102,3.3102,3.3102,3.3102,3.3102,3.3102,3.3102,3.3102,3.3102,3.3102,3.3102,3.3102,3.3102,3.3102,3.3102,3.3102,3.3102,3.3102,3.3102,3.3102,3.2977,3.2788,3.2709,3.26,3.2612,3.2638,3.2625,3.2612,3.265,3.2688,3.2713,3.265,3.2763,3.2813,3.2839,3.2964,3.3052,3.3102,3.3102,3.3102,3.3102,3.3102,3.3102,3.3102,3.3102,3.3102,3.3102,3.3102,3.3102,3.3102,3.3102,3.3102,3.3102,3.3102,3.3102,3.3102,3.3102,3.3102,3.3102,3.3102,3.3102,3.3102,3.3102,3.3102,3.3102,3.3102,3.3102,3.3102,3.3102,3.3102,3.3102,3.3077,3.255,3.2265,3.2102,3.1497,3.065,2.9922,2.9429,2.8053,2.6787,2.6258,2.5785,2.6202,2.6688,2.7222,2.7683,3.3102,3.3102,3.3102,3.3102,3.3102,3.3102,3.3102,3.3102,3.3102,3.3102,3.3102,3.3102,3.3102,3.3102,3.3102,3.3102,3.3102,3.3102,3.3102,3.3102,3.3102,3.3102,3.3102,3.3102,3.3102,3.3102,3.3102,3.3102,3.3102,3.3102,3.3102,3.3102,3.3102,3.3102,3.3102,3.3102,3.3102,3.3102,3.3102,3.3102,3.3102,3.3102,3.3102,3.3102,3.3102,3.3102,3.3102,3.3102,3.3102,3.3102,3.3102,3.3102,3.3102,3.3102,3.3102,3.3102,3.3102,3.3102,3.309,3.3102,3.3077,3.3102,3.3102,3.3102,3.3102,3.3102,3.3102,3.3102,3.3102,3.3102,3.3102,3.3102,3.3102,3.3102,3.3102,3.3102,3.3102,3.3102,3.3102,3.3102,3.3102,3.3102,3.3102,3.3102,3.3102,3.3102,3.3102,3.3102,3.3102,3.3102,3.3102,3.3102,3.3102,3.3102,3.3102,3.3102,3.3102,3.3102,3.3102,3.3102,3.2889,3.2751,3.2641,3.2052,3.1512,3.1161,3.0496,2.9023,2.7839,2.717,2.6792,2.6669,2.692,2.7772,2.8002,3.3102,3.3102,3.3102,3.3102,3.3102,3.3102,3.3102,3.3102,3.3102,3.3102,3.3102,3.3102,3.3102,3.3102,3.3102,3.3102,3.3102,3.3102,3.3102,3.3102,3.3102,3.3102,3.3102,3.3102,3.3102,3.3102,3.3102,3.3102,3.3102,3.3102,3.3102,3.3102,3.3102,3.3102,3.3102,3.3102,3.3102,3.3102,3.3102,3.3102,3.3102,3.3102,3.3102,3.3102,3.3102,3.3102,3.3102,3.3102,3.3102,3.3102,3.3102,3.3102,3.3102,3.3102,3.3102,3.3102,3.3102,3.3102,3.3102,3.3102,3.3102,3.3102,3.3102,3.3102,3.3102,3.3102,3.3102,3.3102,3.3102,3.3102,3.3102,3.3102,3.3102,3.3102,3.3102,3.3102,3.3102,3.3102,3.3102,3.3102,3.3102,3.3102,3.3102,3.3102,3.3102,3.3102,3.3102,3.3102,3.3102,3.3102,3.3102,3.3102,3.3102,3.3102,3.3102,3.3102,3.3102,3.3102,3.3102,3.3102,3.3102,3.3014,3.2901,3.2989,3.2601,3.2157,3.1651,3.0649,2.9511,2.8437,2.7947,2.7964,2.8184,2.8507,2.8564,3.3102,3.3102,3.3102,3.3102,3.3102,3.3102,3.3102,3.3102,3.3102,3.3102,3.3102,3.3102,3.3102,3.3102,3.3102,3.3102,3.3102,3.3102,3.3102,3.3102,3.3102,3.3102,3.3102,3.3102,3.3102,3.3102,3.3102,3.3102,3.3102,3.3102,3.3102,3.3102,3.3102,3.3102,3.3102,3.3102,3.3102,3.3102,3.3102,3.3102,3.3102,3.3102,3.3102,3.3102,3.3102,3.3102,3.3102,3.3102,3.3102,3.3102,3.3102,3.3102,3.3102,3.3102,3.3102,3.3102,3.3102,3.3102,3.3102,3.3102,3.3102,3.3102,3.3102,3.3102,3.3102,3.3102,3.3102,3.3102,3.3102,3.3102,3.3102,3.3102,3.3102,3.3102,3.3102,3.3102,3.3102,3.3102,3.3102,3.3102,3.3102,3.3102,3.3102,3.3102,3.3102,3.3102,3.3102,3.3102,3.3102,3.3102,3.3102,3.3102,3.3102,3.3102,3.3102,3.3102,3.3102,3.3102,3.3102,3.3102,3.3102,3.3102,3.3102,3.3102,3.3102,3.2825,3.2324,3.1843,3.1089,2.9954,2.9613,2.9338,2.9384,2.9487,2.9977,3.3102,3.3102,3.3102,3.3102,3.3102,3.3102,3.3102,3.3102,3.3102,3.3102,3.3102,3.3102,3.3102,3.3102,3.3102,3.3102,3.3102,3.3102,3.3102,3.3102,3.3102,3.3102,3.3102,3.3102,3.3102,3.3102,3.3102,3.3102,3.3102,3.3102,3.3102,3.3102,3.3102,3.3102,3.3102,3.3102,3.3102,3.3102,3.3102,3.3102,3.3102,3.3102,3.3102,3.3102,3.3102,3.3102,3.3102,3.3102,3.3102,3.3102,3.3102,3.3102,3.3102,3.3102,3.3102,3.3102,3.3102,3.3102,3.3102,3.3102,3.3102,3.3102,3.3102,3.3102,3.3102,3.3102,3.3102,3.3102,3.3102,3.3102,3.3102,3.3102,3.3102,3.3102,3.3102,3.3102,3.3102,3.3102,3.3102,3.3102,3.3102,3.3102,3.3102,3.3102,3.3102,3.3102,3.3102,3.3102,3.3102,3.3102,3.3102,3.3102,3.3102,3.3102,3.3102,3.3102,3.3102,3.3102,3.3102,3.3102,3.3102,3.3102,3.3102,3.3102,3.3102,3.3102,3.2982,3.2491,3.1943,3.1412,3.0855,3.0429,3.0361,3.0496,3.0889,3.3102,3.3102,3.3102,3.3102,3.3102,3.3102,3.3102,3.3102,3.3102,3.3102,3.3102,3.3102,3.3102,3.3102,3.3102,3.3102,3.3068,3.2884,3.2776,3.3004,3.272,3.2732,3.3081,3.3102,3.3102,3.3102,3.3102,3.3102,3.3102,3.3102,3.3102,3.3102,3.3102,3.3102,3.3102,3.3102,3.3102,3.3102,3.3102,3.3102,3.3102,3.3102,3.3102,3.3102,3.3102,3.3102,3.3102,3.3102,3.3102,3.3102,3.3102,3.3102,3.3102,3.3102,3.3102,3.3102,3.3102,3.3102,3.3102,3.3102,3.3102,3.3102,3.3102,3.3102,3.3102,3.3102,3.3102,3.3102,3.3102,3.3102,3.3102,3.3102,3.3102,3.3102,3.3102,3.3102,3.3102,3.3102,3.3102,3.3102,3.3102,3.3102,3.3102,3.3102,3.3102,3.3102,3.3102,3.3102,3.3102,3.3102,3.3102,3.3102,3.3102,3.3102,3.3102,3.3102,3.3102,3.3102,3.3102,3.3102,3.3102,3.3102,3.3081,3.2982,3.3102,3.3102,3.3102,3.3081,3.259,3.2096,3.1721,3.1567,3.1579,3.1412,3.1534,3.3102,3.3102,3.3102,3.3102,3.3102,3.3102,3.3102,3.3102,3.3102,3.3102,3.3102,3.3102,3.3102,3.3102,3.3102,3.3102,3.2819,3.2118,3.2196,3.284,3.214,3.2205,3.2982,3.3102,3.3102,3.3102,3.3102,3.3102,3.3102,3.3102,3.3102,3.3102,3.3102,3.3102,3.3102,3.3102,3.3102,3.3102,3.3102,3.3102,3.3102,3.3102,3.3102,3.3102,3.3102,3.3102,3.3102,3.3102,3.3102,3.3102,3.3102,3.3102,3.3102,3.3102,3.3102,3.3102,3.3102,3.3102,3.3102,3.3102,3.3102,3.3102,3.3102,3.3102,3.3102,3.3102,3.3102,3.3102,3.3102,3.3102,3.3102,3.3102,3.3102,3.3102,3.3102,3.3102,3.3102,3.3102,3.3102,3.3102,3.3102,3.3102,3.3102,3.3102,3.3102,3.3102,3.3102,3.3102,3.3102,3.3102,3.3102,3.3102,3.3102,3.3102,3.3102,3.3102,3.3102,3.3102,3.3102,3.3059,3.2797,3.2711,3.2819,3.2797,3.284,3.2819,3.2698,3.2698,3.2862,3.2797,3.2426,3.259,3.2874,3.2633,3.2174,3.3102,3.3102,3.3102,3.3102,3.3102,3.3102,3.3102,3.3102,3.3102,3.3102,3.3102,3.3102,3.3102,3.3102,3.3102,3.3102,3.2819,3.1733,3.1909,3.2568,3.1943,3.1865,3.284,3.3102,3.3102,3.3102,3.3102,3.3102,3.3102,3.3102,3.3102,3.3102,3.3102,3.3102,3.3102,3.3102,3.3102,3.3102,3.3102,3.3102,3.3102,3.3102,3.3102,3.3102,3.3102,3.3102,3.3102,3.3102,3.3102,3.3102,3.3102,3.3102,3.3102,3.3102,3.3102,3.3102,3.3102,3.3102,3.3102,3.3102,3.3102,3.3102,3.3102,3.3102,3.3102,3.3102,3.3102,3.3102,3.3102,3.3102,3.3102,3.3102,3.3102,3.3102,3.3102,3.3102,3.3102,3.3102,3.3102,3.3102,3.3102,3.3102,3.3102,3.3102,3.3102,3.3102,3.3102,3.3102,3.3102,3.3102,3.3102,3.3102,3.3102,3.3102,3.3102,3.3102,3.3102,3.3102,3.3102,3.2918,3.2326,3.2196,3.2239,3.1921,3.1534,3.1667,3.2008,3.2382,3.259,3.2853,3.3102,3.2896,3.272,3.3047,3.2633,3.3102,3.3102,3.3102,3.3102,3.3102,3.3102,3.3102,3.3102,3.3102,3.3102,3.3102,3.3102,3.3102,3.3102,3.3102,3.3102,3.2995,3.1478,3.1655,3.1855,3.1645,3.15,3.2295,3.2754,3.3102,3.3102,3.3102,3.3102,3.3102,3.3102,3.3102,3.3102,3.3102,3.3102,3.3102,3.3102,3.3102,3.3102,3.3102,3.3102,3.3102,3.3102,3.3102,3.3102,3.3102,3.3102,3.3102,3.3102,3.3102,3.3102,3.3102,3.3102,3.3102,3.3102,3.3102,3.3102,3.3102,3.3102,3.3102,3.3102,3.3102,3.3102,3.3102,3.3102,3.3102,3.3102,3.3102,3.3102,3.3102,3.3102,3.3102,3.3102,3.3102,3.3102,3.3102,3.3102,3.3102,3.3102,3.3102,3.3102,3.3102,3.3102,3.3102,3.3102,3.3102,3.3102,3.3102,3.3102,3.3102,3.3102,3.3102,3.3102,3.3102,3.3102,3.3102,3.3102,3.3102,3.3004,3.3004,3.2568,3.1821,3.1545,3.1557,3.1067,3.0294,3.0474,3.0788,3.1557,3.2251,3.213,3.2064,3.2196,3.2283,3.272,3.3025,3.3102,3.3102,3.3102,3.3102,3.3102,3.3102,3.3102,3.3102,3.3102,3.3102,3.3102,3.3102,3.3102,3.3102,3.3102,3.3102,3.3004,3.0608,3.0676,3.0743,3.0282,3.0361,3.1257,3.2239,3.2939,3.2948,3.3047,3.3102,3.3102,3.3102,3.3102,3.3102,3.3102,3.3102,3.3102,3.3102,3.3102,3.3102,3.3102,3.3102,3.3102,3.3102,3.3102,3.3102,3.3102,3.3102,3.3102,3.3102,3.3102,3.3102,3.3102,3.3102,3.3102,3.3102,3.3102,3.3102,3.3102,3.3102,3.3102,3.3102,3.3102,3.3102,3.3102,3.3102,3.3102,3.3102,3.3102,3.3102,3.3102,3.3102,3.3102,3.3102,3.3102,3.3102,3.3102,3.3102,3.3102,3.3102,3.3102,3.3102,3.3102,3.3102,3.3102,3.3102,3.3102,3.3102,3.3102,3.3102,3.3102,3.3102,3.3102,3.3102,3.3102,3.3102,3.3102,3.3081,3.2961,3.2711,3.2547,3.1877,3.1067,3.0933,3.0777,2.975,2.8993,2.9281,2.9442,2.9658,3.0,3.0665,3.0978,3.1156,3.1655,3.2183,3.2677,3.3102,3.3102,3.3102,3.3102,3.3102,3.3102,3.3102,3.3102,3.3102,3.3102,3.3038,3.3102,3.3102,3.3081,3.3102,3.3102,3.2754,3.0519,3.0451,3.0135,2.9624,2.9189,3.0124,3.1201,3.1921,3.214,3.2633,3.3102,3.3102,3.3102,3.3102,3.3102,3.2982,3.3102,3.3102,3.3102,3.3102,3.3102,3.3102,3.3102,3.3102,3.3102,3.3102,3.3102,3.3102,3.3102,3.3102,3.3102,3.3102,3.3102,3.3102,3.3102,3.3102,3.3102,3.3102,3.3102,3.3102,3.3102,3.3102,3.3102,3.3102,3.3102,3.3102,3.3102,3.3102,3.3102,3.3102,3.3102,3.3102,3.3102,3.3102,3.3102,3.3102,3.3102,3.3102,3.3102,3.3102,3.3102,3.3102,3.3102,3.3102,3.3102,3.3102,3.3102,3.3102,3.3102,3.3102,3.3102,3.3102,3.3102,3.3102,3.3102,3.3102,3.3102,3.3102,3.2982,3.2776,3.2404,3.203,3.0978,3.009,3.0022,2.9658,2.8553,2.7827,2.8098,2.8028,2.7497,2.8004,2.9338,2.9954,3.0203,3.0822,3.1456,3.2074,3.2939,3.309,3.3102,3.3102,3.3102,3.3102,3.2862,3.2556,3.2503,3.2283,3.2021,3.1987,3.1999,3.2064,3.2404,3.2469,3.1899,3.0519,3.0181,2.9613,2.8843,2.8262,2.9131,3.0316,3.139,3.15,3.2404,3.3102,3.3102,3.3102,3.2797,3.2568,3.2556,3.2612,3.3102,3.3102,3.3102,3.3102,3.3102,3.3102,3.3102,3.3102,3.3102,3.3102,3.3102,3.3102,3.3102,3.3102,3.3102,3.3102,3.3102,3.3102,3.3102,3.3102,3.3102,3.3102,3.3102,3.3102,3.3102,3.3102,3.3102,3.3102,3.3102,3.3102,3.3102,3.3102,3.3102,3.3102,3.3102,3.3102,3.3102,3.3102,3.3102,3.3102,3.3102,3.3102,3.3102,3.3102,3.3102,3.3102,3.3102,3.3102,3.3102,3.3102,3.3102,3.3102,3.3102,3.3102,3.3102,3.3102,3.3102,3.3102,3.3102,3.3102,3.3102,3.2503,3.1943,3.1667,3.1067,2.9772,2.9016,2.8924,2.8378,2.721,2.6754,2.6959,2.6863,2.6576,2.7342,2.8471,2.8796,2.8993,2.9384,3.0045,3.1156,3.2444,3.3077,3.2954,3.292,3.2762,3.3068,3.2348,3.1323,3.1245,3.0732,2.9931,2.9818,2.9795,3.0022,3.0933,3.1223,3.0978,2.9886,2.9338,2.897,2.7979,2.7636,2.8319,2.9453,3.0586,3.1412,3.2196,3.2797,3.3102,3.3102,3.2525,3.1645,3.1456,3.1689,3.2918,3.3081,3.3081,3.3081,3.2982,3.3102,3.3102,3.3102,3.3102,3.3102,3.3102,3.3102,3.3102,3.3102,3.3102,3.3102,3.3102,3.3102,3.3102,3.3102,3.3102,3.3102,3.3102,3.3102,3.3102,3.3102,3.3102,3.3102,3.3102,3.3102,3.3102,3.3102,3.3102,3.3102,3.3102,3.3102,3.3102,3.3102,3.3102,3.3102,3.3102,3.3102,3.3102,3.3102,3.3102,3.3102,3.3102,3.3102,3.3102,3.3102,3.3102,3.3102,3.3102,3.3102,3.3102,3.3102,3.3102,3.2918,3.2874,3.2568,3.2339,3.1645,3.1112,3.0844,3.009,2.8773,2.7898,2.7649,2.6887,2.5854,2.5917,2.6332,2.6091,2.5786,2.657,2.7228,2.75,2.7744,2.8062,2.8728,2.9908,2.9605,2.9791,2.9779,2.9791,2.9971,3.129,3.1134,3.0147,2.9965,2.975,2.9476,2.9396,2.9396,2.959,2.9681,3.0,2.9795,2.8796,2.8202,2.8085,2.7017,2.6476,2.6959,2.8132,2.9315,3.0147,3.1201,3.236,3.3102,3.2853,3.2273,3.1412,3.0192,3.0237,3.0777,3.1257,3.1821,3.2008,3.2534,3.3102,3.3081,3.3038,3.3038,3.3038,3.3038,3.3102,3.3102,3.3102,3.3102,3.3102,3.3102,3.3102,3.3102,3.3102,3.3102,3.3102,3.3102,3.3102,3.3102,3.3102,3.3102,3.3102,3.3102,3.3102,3.3102,3.3102,3.3102,3.3102,3.3102,3.3102,3.3102,3.3102,3.3102,3.3102,3.3102,3.3102,3.3102,3.3102,3.3102,3.3102,3.3102,3.3102,3.3102,3.3102,3.3102,3.3102,3.3102,3.3102,3.3102,3.3102,3.3102,3.2711,3.246,3.203,3.1522,3.0721,2.9818,2.9246,2.8634,2.7696,2.704,2.6668,2.6318,2.5732,2.5708,2.5708,2.5591,2.5512,2.5509,2.584,2.6229,2.662,2.7021,2.7789,2.8862,2.7945,2.8092,2.8103,2.783,2.7799,2.9387,2.9521,2.859,2.8245,2.8121,2.8075,2.8085,2.8062,2.8179,2.8564,2.8773,2.868,2.8038,2.7613,2.74,2.6294,2.5917,2.6173,2.6921,2.8119,2.8993,3.0011,3.1178,3.2217,3.1943,3.099,2.9727,2.8785,2.8168,2.8553,2.9442,3.0564,3.0777,3.1212,3.1557,3.1723,3.1987,3.2348,3.2513,3.2754,3.3102,3.3102,3.3102,3.3102,3.3102,3.3102,3.3102,3.3102,3.3102,3.3102,3.3102,3.3102,3.3102,3.3102,3.3102,3.3102,3.3102,3.3102,3.3102,3.3102,3.3102,3.3102,3.3102,3.3102,3.3102,3.3102,3.3102,3.3102,3.3102,3.3102,3.3102,3.3102,3.3102,3.3102,3.3102,3.3102,3.3102,3.3102,3.3102,3.3102,3.3102,3.3102,3.3102,3.3102,3.3102,3.2982,3.2568,3.2064,3.1545,3.0721,2.9681,2.875,2.7767,2.7197,2.6682,2.638,2.6076,2.5844,2.5698,2.5669,2.5591,2.54,2.5282,2.5079,2.501,2.5159,2.5565,2.5998,2.6685,2.7505,2.7469,2.7904,2.7938,2.7173,2.651,2.7404,2.7467,2.6781,2.6058,2.578,2.5741,2.588,2.6014,2.6103,2.7002,2.7487,2.7518,2.741,2.7339,2.7102,2.6135,2.5844,2.6028,2.6778,2.7447,2.8002,2.8819,2.9931,3.0899,3.0203,2.9004,2.7908,2.6959,2.6514,2.6996,2.7874,2.9016,2.9338,3.0181,3.0519,3.0799,3.1267,3.1821,3.2196,3.2612,3.3038,3.3102,3.3102,3.3102,3.3102,3.3102,3.3102,3.3102,3.3102,3.3102,3.3102,3.3102,3.3102,3.3102,3.3102,3.3102,3.3102,3.3102,3.3102,3.3102,3.3102,3.3102,3.3102,3.3102,3.3102,3.3102,3.3102,3.3102,3.3102,3.3102,3.3102,3.3102,3.3102,3.3102,3.3102,3.3102,3.3102,3.3102,3.3102,3.3102,3.3102,3.3102,3.3102,3.3102,3.3102,3.2896,3.2348,3.1777,3.1045,3.0033,2.8623,2.7827,2.6897,2.6466,2.6004,2.5723,2.5571,2.5435,2.5396,2.5542,2.5445,2.5074,2.4766,2.4463,2.443,2.4453,2.4536,2.4967,2.5019,2.562,2.4389,2.4534,2.4544,2.4336,2.4145,2.4769,2.5042,2.5076,2.4826,2.4771,2.4771,2.4771,2.4996,2.5316,2.5672,2.5994,2.6174,2.6255,2.6231,2.6048,2.5941,2.5781,2.5844,2.6197,2.6778,2.7376,2.8062,2.8704,2.943,2.8727,2.8155,2.7494,2.6269,2.582,2.5965,2.6452,2.7305,2.8226,2.9361,2.9806,3.0496,3.1346,3.1843,3.2283,3.2711,3.3059,3.3102,3.3102,3.3102,3.3102,3.3102,3.3102,3.3102,3.3102,3.3102,3.3102,3.3102,3.3102,3.3102,3.3102,3.3102,3.3102,3.3102,3.3102,3.3102,3.3102,3.3102,3.3102,3.3102,3.3102,3.3102,3.3102,3.3102,3.3102,3.3102,3.3102,3.3102,3.3102,3.3102,3.3102,3.3102,3.3102,3.3102,3.3102,3.3102,3.3102,3.3102,3.3102,3.2961,3.2918,3.2612,3.2052,3.0832,2.9897,2.8659,2.7284,2.672,2.61,2.5736,2.5445,2.5322,2.5176,2.5068,2.4986,2.4986,2.4859,2.4635,2.4303,2.3952,2.3838,2.3818,2.3838,2.3887,2.4085,2.4378,2.3101,2.3101,2.3101,2.3101,2.3162,2.3418,2.3669,2.3913,2.4245,2.4424,2.4424,2.4443,2.4537,2.4775,2.4904,2.509,2.5492,2.555,2.5628,2.583,2.5679,2.5708,2.5708,2.5732,2.6159,2.6682,2.703,2.7471,2.8179,2.8062,2.7494,2.673,2.5917,2.5795,2.5771,2.5917,2.6173,2.7078,2.7992,2.8844,2.9829,3.0889,3.1434,3.2042,3.2447,3.3059,3.3102,3.3102,3.3102,3.3102,3.3102,3.3102,3.3102,3.3102,3.3102,3.3102,3.3102,3.3102,3.3102,3.3102,3.3102,3.3102,3.3102,3.3102,3.3102,3.3102,3.3102,3.3102,3.3102,3.3102,3.3102,3.3102,3.3102,3.3102,3.3102,3.3102,3.3102,3.3102,3.3102,3.3102,3.3102,3.3102,3.3102,3.3102,3.3102,3.3102,3.3102,3.3102,3.2754,3.236,3.203,3.1545,2.9965,2.8495,2.7287,2.6377,2.5909,2.5503,2.5202,2.4971,2.4853,2.4775,2.4687,2.4489,2.4313,2.4215,2.4147,2.3796,2.3484,2.3396,2.3376,2.3435,2.3493,2.3562,2.3903,2.3101,2.3101,2.3101,2.3101,2.3101,2.3142,2.3162,2.3179,2.3913,2.4264,2.4235,2.4254,2.4245,2.4355,2.4375,2.4642,2.4912,2.5029,2.5244,2.563,2.5562,2.5581,2.5689,2.5732,2.5878,2.5781,2.5941,2.6548,2.7173,2.7173,2.662,2.5732,2.5732,2.5708,2.5708,2.5708,2.5868,2.6149,2.6658,2.72,2.7592,2.8414,2.9647,3.044,3.1789,3.3102,3.3102,3.3102,3.3102,3.3102,3.3102,3.3102,3.3102,3.3102,3.3102,3.3102,3.3102,3.3102,3.3102,3.3102,3.3102,3.3102,3.3102,3.3102,3.3102,3.3102,3.3102,3.3102,3.3102,3.3102,3.3102,3.3102,3.3102,3.3102,3.3102,3.3102,3.3102,3.3102,3.3102,3.3102,3.3102,3.3102,3.3102,3.3102,3.3102,3.3102,3.3102,3.3102,3.2578,3.1974,3.1276,3.0808,2.9171,2.7617,2.6735,2.5905,2.5328,2.4916,2.4678,2.4502,2.4414,2.4355,2.4274,2.404,2.3796,2.3757,2.3662,2.3396,2.3259,2.322,2.3201,2.313,2.3149,2.3271,2.3379,2.3101,2.3101,2.3101,2.3101,2.3101,2.3101,2.3101,2.3101,2.3286,2.3442,2.3435,2.3474,2.364,2.3916,2.3935,2.417,2.4492,2.4609,2.4853,2.5098,2.5225,2.5396,2.5606,2.563,2.5679,2.5708,2.5781,2.5878,2.6245,2.6245,2.6125,2.5757,2.5781,2.5893,2.5917,2.5917,2.61,2.6211,2.6802,2.7602,2.8553,2.9795,3.1134,3.1811,3.3038,3.3102,3.3102,3.3102,3.3102,3.3102,3.3102,3.3102,3.3102,3.3102,3.3102,3.3102,3.3102,3.3102,3.3102,3.3102,3.3102,3.3102,3.3102,3.3102,3.3102,3.3102,3.3102,3.3102,3.3102,3.3102,3.3102,3.3102,3.3102,3.3102,3.3102,3.3102,3.3102,3.3102,3.3102,3.3102,3.3102,3.3102,3.3102,3.3102,3.3102,3.3102,3.3102,3.2939,3.2249,3.1531,3.038,2.967,2.8256,2.6917,2.6063,2.5405,2.4808,2.4541,2.4352,2.4189,2.3984,2.3835,2.3718,2.3471,2.3276,2.3357,2.3376,2.3249,2.312,2.3101,2.3101,2.3101,2.32,2.3303,2.3196,2.3101,2.3101,2.3101,2.3101,2.3101,2.3101,2.3101,2.3101,2.3101,2.3101,2.3101,2.312,2.3269,2.3496,2.3506,2.374,2.4082,2.4141,2.4414,2.4691,2.4848,2.5068,2.5273,2.5454,2.5591,2.563,2.5689,2.5708,2.5708,2.5732,2.5757,2.5781,2.6014,2.6404,2.6514,2.6887,2.7163,2.7426,2.8015,2.897,3.0022,3.0933,3.1456,3.2196,3.2732,3.2939,3.3102,3.3102,3.3102,3.3102,3.3102,3.3102,3.3102,3.3102,3.3102,3.3102,3.3102,3.3102,3.3102,3.3102,3.3102,3.3102,3.3102,3.3102,3.3102,3.3102,3.3102,3.3102,3.3102,3.3102,3.3102,3.3102,3.3102,3.3102,3.3102,3.3102,3.3102,3.3102,3.3102,3.3102,3.3102,3.3102,3.3102,3.3102,3.3102,3.3102,3.3102,3.3102,3.2358,3.101,2.9849,2.8596,2.7255,2.6115,2.5215,2.4667,2.4248,2.4092,2.401,2.3757,2.3503,2.3318,2.311,2.313,2.313,2.314,2.312,2.3101,2.3101,2.3101,2.3101,2.3101,2.3244,2.3485,2.3572,2.3101,2.3101,2.3101,2.3101,2.3101,2.3101,2.3101,2.3101,2.3101,2.3101,2.3101,2.3101,2.3101,2.3101,2.311,2.3396,2.3581,2.3691,2.3965,2.4238,2.4326,2.4619,2.4873,2.5088,2.5381,2.5591,2.5698,2.5708,2.5708,2.5708,2.5781,2.5951,2.6548,2.7281,2.772,2.8342,2.8634,2.8669,2.9177,3.0079,3.0765,3.1245,3.1444,3.1843,3.2404,3.3059,3.3102,3.3102,3.3102,3.3102,3.3102,3.3102,3.3102,3.3102,3.3102,3.3102,3.3102,3.3102,3.3102,3.3102,3.3102,3.3102,3.3102,3.3102,3.3102,3.3102,3.3102,3.3102,3.3102,3.3102,3.3102,3.3102,3.3102,3.3102,3.3102,3.3102,3.3102,3.3102,3.3102,3.3102,3.3102,3.3102,3.3102,3.3102,3.3102,3.3102,3.3102,3.3102,3.2568,3.0743,2.9216,2.785,2.6442,2.5389,2.4438,2.404,2.3718,2.364,2.3562,2.3298,2.3101,2.3101,2.3101,2.3101,2.3101,2.3101,2.3101,2.3101,2.3101,2.3101,2.3101,2.32,2.38,2.4027,2.4189,2.3101,2.3101,2.3101,2.3101,2.3101,2.3101,2.3101,2.3101,2.3101,2.3101,2.3101,2.3101,2.3101,2.3101,2.3101,2.323,2.3298,2.3318,2.3555,2.3857,2.3896,2.418,2.4574,2.4945,2.5312,2.5523,2.5669,2.5708,2.5708,2.5708,2.5708,2.5781,2.5854,2.6269,2.6404,2.7329,2.8425,2.8878,3.0022,3.0944,3.1089,3.1522,3.1931,3.2404,3.2961,3.3102,3.3102,3.3102,3.3102,3.3102,3.3102,3.3102,3.3102,3.3102,3.3102,3.3102,3.3102,3.3102,3.3102,3.3102,3.3102,3.3102,3.3102,3.3102,3.3102,3.3102,3.3102,3.3102,3.3102,3.3102,3.3102,3.3102,3.3102,3.3102,3.3102,3.3102,3.3102,3.3102,3.3102,3.3102,3.3102,3.3102,3.3102,3.3102,3.3102,3.3102,3.3102,3.3056,3.2696,3.0765,2.8677,2.7257,2.5809,2.4761,2.3906,2.3601,2.3337,2.3249,2.321,2.313,2.3101,2.3101,2.3101,2.3101,2.3101,2.3101,2.3101,2.3101,2.3101,2.3101,2.3101,2.3299,2.4027,2.4691,2.4946]},{"header":{"parameterUnit":"m.s-1","parameterCategory":1,"la1":31.0,"la2":29.5877,"lo1":-88.7671,"lo2":-86.6584,"dy":0.0162,"dx":0.0185,"nx":115,"ny":88,"refTime":"2023-09-13T18:00:00:Z","depth":0,"parameterNumber":3,"parameterNumberName":"V-component_of_WINDS"},"data":[0.0,0.0,0.0,0.0,0.0,0.0,0.0,0.0,0.0,0.0,0.0,0.0,0.0,0.0,0.0,0.0,0.0,0.0,0.0,0.0,0.0,0.0,0.0,0.0,0.0,0.0,0.0,0.0,0.0,0.0,0.0,0.0,0.0,0.0,0.0,0.0,0.0,0.0,0.0,0.0,0.0,0.0,0.0,0.0,0.0,0.0,0.0,0.0,0.0,0.0,0.0,0.0,0.0,0.0,0.0,0.0,0.0,0.0,0.0,0.0,0.0,0.0,0.0,0.0,0.0,0.0,0.0,0.0,0.0,0.0,0.0,0.0,0.0,0.0,0.0,0.0,0.0,0.0,0.0,0.0,0.0,0.0,0.0,0.0,0.0,0.0,0.0,0.0,0.0,0.0,0.0,0.0,0.0,0.0,0.0,0.0,0.0,0.0,0.0,0.0,0.0,0.0,0.0,0.0,0.0,0.0,0.0,0.0,0.0,0.0,0.0,0.0,0.0,0.0,0.0,0.0,0.0,0.0,0.0,0.0,0.0,0.0,0.0,0.0,0.0,0.0,0.0,0.0,0.0,0.0,0.0,0.0,0.0,0.0,0.0,0.0,0.0,0.0,0.0,0.0,0.0,0.0,0.0,0.0,0.0,0.0,0.0,0.0,0.0,0.0,0.0,0.0,0.0,0.0,0.0,0.0,0.0,0.0,0.0,0.0,0.0,0.0,0.0,0.0,0.0,0.0,0.0,0.0,0.0,0.0,0.0,0.0,0.0,0.0,0.0,0.0,0.0,0.0,0.0,0.0,0.0,0.0,0.0,0.0,0.0,0.0,0.0,0.0,0.0,0.0,0.0,0.0,0.0,0.0,0.0,0.0,0.0,0.0,0.0,0.0,0.0,0.0,0.0,0.0,0.0,0.0,0.0,0.0,0.0,0.0,0.0,0.0,0.0,0.0,0.0,0.0,0.0,0.0,0.0,0.0,0.0,0.0,0.0,0.0,0.0,0.0,0.0,0.0,0.0,0.0,0.0,0.0,0.0,0.0,0.0,0.0,0.0,0.0,0.0,0.0,0.0,0.0,0.0,0.0,0.0,0.0,0.0,0.0,0.0,0.0,0.0,0.0,0.0,0.0,0.0,0.0,0.0,0.0,0.0,0.0,0.0,0.0,0.0,0.0,0.0,0.0,0.0,0.0,0.0,0.0,0.0,0.0,0.0,0.0,0.0,0.0,0.0,0.0,0.0,0.0,0.0,0.0,0.0,0.0,0.0,0.0,0.0,0.0,0.0,0.0,0.0,0.0,0.0,0.0,0.0,0.0,0.0,0.0,0.0,0.0,0.0,0.0,0.0,0.0,0.0,0.0,0.0,0.0,0.0,0.0,0.0,0.0,0.0,0.0,0.0,0.0,0.0,0.0,0.0,0.0,0.0,0.0,0.0,0.0,0.0,0.0,0.0,0.0,0.0,0.0,0.0,0.0,0.0,0.0,0.0,0.0,0.0,0.0,0.0,0.0,0.0,0.0,0.0,0.0,0.0,0.0,0.0,0.0,0.0,0.0,0.0,0.0,0.0,0.0,0.0,0.0,0.0,0.0,0.0,0.0,0.0,0.0,0.0,0.0,0.0,0.0,0.0,0.0,0.0,0.0,0.0,0.0,0.0,0.0,0.0,0.0,0.0,0.0,0.0,0.0,0.0,0.0,0.0,0.0,0.0,0.0,0.0,0.0,0.0,0.0,0.0,0.0,0.0,0.0,0.0,0.0,0.0,0.0,0.0,0.0,0.0,0.0,0.0,0.0,0.0,0.0,0.0,0.0,0.0,0.0,0.0,0.0,0.0,0.0,0.0,0.0,0.0,0.0,0.0,0.0,0.0,0.0,0.0,0.0,0.0,0.0,0.0,0.0,0.0,0.0,0.0,0.0,0.0,0.0,0.0,0.0,0.0,0.0,0.0,0.0,0.0,0.0,0.0,0.0,0.0,0.0,0.0,0.0,0.0,0.0,0.0,0.0,0.0,0.0,0.0,0.0,0.0,0.0,0.0,0.0,0.0,0.0,0.0,0.0,0.0,0.0,0.0,0.0,0.0,0.0,0.0,0.0,0.0,0.0,0.0,0.0,0.0,0.0,0.0,0.0,0.0,0.0,0.0,0.0,0.0,0.0,0.0,0.0,0.0,0.0,0.0,0.0,0.0,0.0,0.0,0.0,0.0,0.0,0.0,0.0,0.0,0.0,0.0,0.0,0.0,0.0,0.0,0.0,0.0,0.0,0.0,0.0,0.0,0.0,0.0,0.0,0.0,0.0,0.0,0.0,0.0,0.0,0.0,0.0,0.0,0.0,0.0,0.0,0.0,0.0,0.0,0.0,0.0,0.0,0.0,0.0,0.0,0.0,0.0,0.0,0.0,0.0,0.0,0.0,0.0,0.0,0.0,0.0,0.0,0.0,0.0,0.0,0.0,0.0,0.0,0.0,0.0,0.0,0.0,0.0,0.0,0.0,0.0,0.0,0.0,0.0,0.0,0.0,0.0,0.0,0.0,0.0,0.0,0.0,0.0,0.0,0.0,0.0,0.0,0.0,0.0,0.0,0.0,0.0,0.0,0.0,0.0,0.0,0.0,0.0,0.0,0.0,0.0,0.0,0.0,0.0,0.0,0.0,0.0,0.0,0.0,0.0,0.0,0.0,0.0,0.0,0.0,0.0,0.0,0.0,0.0,0.0,0.0,0.0,0.0,0.0,0.0,0.0,0.0,0.0,0.0,0.0,0.0,0.0,0.0,0.0,0.0,0.0,0.0,0.0,0.0,0.0,0.0,0.0,0.0,0.0,0.0,0.0,0.0,0.0,0.0,0.0,0.0,0.0,0.0,0.0,0.0,0.0,0.0,0.0,0.0,0.0,0.0,0.0,0.0,0.0,0.0,0.0,0.0,0.0,0.0,0.0,0.0,0.0,0.0,0.0,0.0,0.0,0.0,0.0,0.0,0.0,0.0,0.0,0.0,0.0,0.0,0.0,0.0,0.0,0.0,0.0,0.0,0.0,0.0,0.0,0.0,0.0,0.0,0.0,0.0,0.0,0.0,0.0,0.0,0.0,0.0,0.0,0.0,0.0,0.0,0.0,0.0,0.0,0.0,0.0,0.0,0.0,0.0,0.0,0.0,0.0,0.0,0.0,0.0,0.0,0.0,0.0,0.0,0.0,0.0,0.0,0.0,0.0,0.0,0.0,0.0,0.0,0.0,0.0,0.0,0.0,0.0,0.0,0.0,0.0,0.0,0.0,0.0,0.0,0.0,0.0,0.0,0.0,0.0,0.0,0.0,0.0,0.0,0.0,0.0,0.0,0.0,0.0,0.0,0.0,0.0,0.0,0.0,0.0,0.0,0.0,0.0,0.0,0.0,0.0,0.0,0.0,0.0,0.0,0.0,0.0,0.0,0.0,0.0,0.0,0.0,0.0,0.0,0.0,0.0,0.0,0.0,0.0,0.0,0.0,0.0,0.0,0.0,0.0,0.0,0.0,0.0,0.0,0.0,0.0,0.0,0.0,0.0,0.0,0.0,0.0,0.0,0.0,0.0,0.0,0.0,0.0,0.0,0.0,0.0,0.0,0.0,0.0,0.0,0.0,0.0,0.0,0.0,0.0,0.0,0.0,0.0,0.0,0.0,0.0,0.0,0.0,0.0,0.0,0.0,0.0,0.0,0.0,0.0,0.0,0.0,0.0,0.0,0.0,0.0,0.0,0.0,0.0,0.0,0.0,0.0,0.0,0.0,0.0,0.0,0.0,0.0,0.0,0.0,0.0,0.0,0.0,0.0,0.0,0.0,0.0,0.0,0.0,0.0,0.0,0.0,0.0,0.0,0.0,0.0,0.0,0.0,0.0,0.0,0.0,0.0,0.0,0.0,0.0,0.0,0.0,0.0,0.0,0.0,0.0,0.0,0.0,0.0,0.0,0.0,0.0,0.0,0.0,0.0,0.0,0.0,0.0,0.0,0.0,0.0,0.0,0.0,0.0,0.0,0.0,0.0,0.0,0.0,0.0,0.0,0.0,0.0,0.0,0.0,0.0,0.0,0.0,0.0,0.0,0.0,0.0,0.0,0.0,0.0,0.0,0.0,0.0,0.0,0.0,0.0,0.0,0.0,0.0,0.0,0.0,0.0,0.0,0.0,0.0,0.0,0.0,0.0,0.0,0.0,0.0,0.0,0.0,0.0,0.0,0.0,0.0,0.0,0.0,0.0,0.0,0.0,0.0,0.0,0.0,0.0,0.0,0.0,0.0,0.0,0.0,1.6324,0.0,0.0,0.0,0.0,0.0,0.0,0.0,0.0,0.0,0.0,0.0,0.0,0.0,0.0,0.0,0.0,0.0,0.0,0.0,0.0,0.0,0.0,0.0,0.0,0.0,0.0,0.0,0.0,0.0,0.0,0.0,0.0,0.0,0.0,0.0,0.0,0.0,0.0,0.0,0.0,0.0,0.0,0.0,0.0,0.0,0.0,0.0,0.0,0.0,0.0,0.0,0.0,0.0,0.0,0.0,0.0,0.0,0.0,0.0,0.0,0.0,0.0,0.0,0.0,0.0,0.0,0.0,0.0,0.0,0.0,0.0,0.0,0.0,0.0,0.0,0.0,0.0,0.0,0.0,0.0,0.0,0.0,0.0,0.0,0.0,0.0,0.0,0.0,0.0,0.0,0.0,0.0,0.0,0.0,0.0,0.0,0.0,0.0,0.0,0.0,0.0,0.0,0.0,0.0,0.0,0.0,0.0,0.0,0.0,0.0,1.5399,1.5656,1.5678,1.5943,1.6479,0.0,0.0,0.0,0.0,0.0,0.0,0.0,0.0,0.0,0.0,0.0,0.0,0.0,0.0,0.0,0.0,0.0,0.0,0.0,0.0,0.0,0.0,0.0,0.0,0.0,0.0,0.0,0.0,0.0,0.0,0.0,0.0,0.0,0.0,0.0,0.0,0.0,0.0,0.0,0.0,0.0,0.0,0.0,0.0,0.0,0.0,0.0,0.0,0.0,0.0,0.0,0.0,0.0,0.0,0.0,0.0,0.0,0.0,0.0,0.0,0.0,0.0,0.0,0.0,0.0,0.0,0.0,0.0,0.0,0.0,0.0,0.0,0.0,0.0,0.0,0.0,0.0,0.0,0.0,0.0,0.0,0.0,0.0,0.0,0.0,0.0,0.0,0.0,0.0,0.0,0.0,0.0,0.0,0.0,0.0,0.0,0.0,0.0,0.0,0.0,0.0,0.0,0.0,0.0,0.0,0.0,0.0,0.0,0.0,0.0,0.0,0.0,1.5898,1.6019,1.6281,0.0,0.0,0.0,0.0,0.0,0.0,0.0,0.0,0.0,0.0,0.0,0.0,0.0,0.0,0.0,0.0,0.0,0.0,0.0,0.0,0.0,0.0,0.0,0.0,0.0,0.0,0.0,0.0,0.0,0.0,0.0,0.0,0.0,0.0,0.0,0.0,0.0,0.0,0.0,0.0,0.0,0.0,0.0,0.0,0.0,0.0,0.0,0.0,0.0,0.0,0.0,0.0,0.0,0.0,0.0,0.0,0.0,0.0,0.0,0.0,0.0,0.0,0.0,0.0,0.0,0.0,0.0,0.0,0.0,0.0,0.0,0.0,0.0,0.0,0.0,0.0,0.0,0.0,0.0,0.0,0.0,0.0,0.0,0.0,0.0,0.0,0.0,0.0,0.0,0.0,0.0,0.0,0.0,0.0,0.0,0.0,0.0,0.0,0.0,0.0,0.0,0.0,0.0,0.0,0.0,0.0,0.0,0.0,0.0,0.0,1.405,1.405,1.4085,0.0,1.561,0.0,0.0,0.0,0.0,0.0,0.0,0.0,0.0,0.0,0.0,0.0,0.0,0.0,0.0,0.0,0.0,0.0,0.0,0.0,0.0,0.0,0.0,0.0,0.0,0.0,0.0,0.0,0.0,0.0,0.0,0.0,0.0,0.0,0.0,0.0,0.0,0.0,0.0,0.0,0.0,0.0,0.0,0.0,0.0,0.0,0.0,0.0,0.0,0.0,0.0,0.0,0.0,0.0,0.0,0.0,0.0,0.0,0.0,0.0,0.0,0.0,0.0,0.0,0.0,0.0,0.0,0.0,0.0,0.0,0.0,0.0,0.0,0.0,0.0,0.0,0.0,0.0,0.0,0.0,0.0,0.0,0.0,0.0,0.0,0.0,0.0,0.0,0.0,0.0,0.0,0.0,0.0,0.0,0.0,0.0,0.0,0.0,0.0,0.0,0.0,0.0,0.0,0.0,0.0,0.0,0.0,0.0,0.0,0.0,0.0,1.4503,1.4869,1.5208,1.5633,0.0,0.0,0.0,0.0,0.0,0.0,0.0,0.0,0.0,0.0,0.0,0.0,0.0,0.0,0.0,0.0,0.0,0.0,0.0,0.0,0.0,0.0,0.0,0.0,0.0,0.0,0.0,0.0,0.0,0.0,0.0,0.0,0.0,0.0,0.0,0.0,0.0,0.0,0.0,0.0,0.0,0.0,0.0,0.0,0.0,0.0,0.0,0.0,0.0,0.0,0.0,0.0,0.0,0.0,0.0,0.0,0.0,0.0,0.0,0.0,0.0,0.0,0.0,0.0,0.0,0.0,0.0,0.0,0.0,0.0,0.0,0.0,0.0,0.0,0.0,0.0,0.0,0.0,0.0,0.0,0.0,0.0,0.0,0.0,0.0,0.0,0.0,0.0,0.0,0.0,0.0,0.0,0.0,0.0,0.0,0.0,0.0,0.0,0.0,0.0,0.0,0.0,0.0,0.0,0.0,0.0,0.0,0.0,0.0,0.0,1.4468,1.4926,1.5366,1.5942,1.6259,1.6261,0.0,0.0,0.0,0.0,0.0,0.0,0.0,0.0,0.0,0.0,0.0,0.0,0.0,0.0,0.0,0.0,0.0,0.0,0.0,0.0,0.0,0.0,0.0,0.0,0.0,0.0,0.0,0.0,0.0,0.0,0.0,0.0,0.0,0.0,0.0,0.0,0.0,0.0,0.0,0.0,0.0,0.0,0.0,0.0,0.0,0.0,0.0,0.0,0.0,0.0,0.0,0.0,0.0,0.0,0.0,0.0,0.0,0.0,0.0,0.0,0.0,0.0,0.0,0.0,0.0,0.0,0.0,0.0,0.0,0.0,0.0,0.0,0.0,0.0,0.0,0.0,0.0,0.0,0.0,0.0,0.0,0.0,0.0,0.0,0.0,0.0,0.0,0.0,0.0,0.0,0.0,0.0,0.0,0.0,0.0,0.0,0.0,0.0,0.0,0.0,0.0,0.0,0.0,0.0,0.0,0.0,0.0,0.0,1.4629,1.4698,1.4709,1.4755,1.5343,1.5643,0.0,0.0,0.0,0.0,0.0,0.0,0.0,0.0,0.0,0.0,0.0,0.0,0.0,0.0,0.0,0.0,0.0,0.0,0.0,0.0,0.0,0.0,0.0,0.0,0.0,0.0,0.0,0.0,0.0,0.0,0.0,0.0,0.0,0.0,0.0,0.0,0.0,0.0,0.0,0.0,0.0,0.0,0.0,0.0,0.0,0.0,0.0,0.0,0.0,0.0,0.0,0.0,0.0,0.0,0.0,0.0,0.0,0.0,0.0,0.0,0.0,0.0,0.0,0.0,0.0,0.0,0.0,0.0,0.0,0.0,0.0,0.0,0.0,0.0,0.0,0.0,0.0,0.0,0.0,0.0,0.0,0.0,0.0,0.0,0.0,0.0,0.0,0.0,0.0,0.0,0.0,0.0,0.0,0.0,0.0,0.0,0.0,0.0,0.0,0.0,0.0,0.0,0.0,0.0,0.0,0.0,0.0,0.0,0.0,1.4686,1.5085,1.5107,1.4744,1.5667,1.6183,0.0,0.0,0.0,0.0,0.0,0.0,0.0,0.0,0.0,0.0,0.0,0.0,0.0,0.0,0.0,0.0,0.0,0.0,0.0,0.0,0.0,0.0,0.0,0.0,0.0,0.0,0.0,0.0,0.0,0.0,0.0,0.0,0.0,0.0,0.0,0.0,0.0,0.0,0.0,0.0,0.0,0.0,0.0,0.0,0.0,0.0,0.0,0.0,0.0,0.0,0.0,0.0,0.0,0.0,0.0,0.0,0.0,0.0,0.0,0.0,0.0,0.0,0.0,0.0,0.0,0.0,0.0,0.0,0.0,0.0,0.0,0.0,0.0,0.0,0.0,0.0,0.0,0.0,0.0,0.0,0.0,0.0,0.0,0.0,0.0,0.0,0.0,0.0,0.0,0.0,0.0,0.0,0.0,0.0,0.0,0.0,0.0,0.0,0.0,0.0,0.0,0.0,0.0,0.0,0.0,0.0,0.0,0.0,0.0,1.4983,0.0,1.57,1.5332,1.6075,1.6513,0.0,0.0,0.0,0.0,0.0,0.0,0.0,0.0,0.0,0.0,0.0,0.0,0.0,0.0,0.0,0.0,0.0,0.0,0.0,0.0,0.0,0.0,0.0,0.0,0.0,0.0,0.0,0.0,0.0,0.0,0.0,0.0,0.0,0.0,0.0,0.0,0.0,0.0,0.0,0.0,0.0,0.0,0.0,0.0,0.0,0.0,0.0,0.0,0.0,0.0,0.0,0.0,0.0,0.0,0.0,0.0,0.0,0.0,0.0,0.0,0.0,0.0,0.0,0.0,0.0,0.0,0.0,0.0,0.0,0.0,0.0,0.0,0.0,0.0,0.0,0.0,0.0,0.0,0.0,0.0,0.0,0.0,0.0,0.0,0.0,0.0,0.0,0.0,0.0,0.0,0.0,0.0,0.0,0.0,0.0,0.0,0.0,0.0,0.0,0.0,0.0,0.0,0.0,0.0,0.0,0.0,0.0,0.0,1.4983,1.5565,1.6173,1.6412,1.6468,1.6445,1.6513,0.0,0.0,0.0,0.0,0.0,0.0,0.0,0.0,0.0,0.0,0.0,0.0,0.0,0.0,0.0,0.0,0.0,0.0,0.0,0.0,0.0,0.0,0.0,0.0,0.0,0.0,0.0,0.0,0.0,0.0,0.0,0.0,0.0,0.0,0.0,0.0,0.0,0.0,0.0,0.0,0.0,0.0,0.0,0.0,0.0,0.0,0.0,0.0,0.0,0.0,0.0,0.0,0.0,0.0,0.0,0.0,0.0,0.0,0.0,0.0,0.0,0.0,0.0,0.0,0.0,0.0,0.0,0.0,0.0,0.0,0.0,0.0,0.0,0.0,0.0,0.0,0.0,0.0,0.0,0.0,0.0,0.0,0.0,0.0,0.0,0.0,0.0,0.0,0.0,0.0,0.0,0.0,0.0,0.0,0.0,0.0,0.0,0.0,0.0,0.0,0.0,0.0,0.0,0.0,0.0,0.0,0.0,0.0,0.0,1.4994,1.5987,1.6096,1.5333,1.6075,1.6513,0.0,0.0,0.0,0.0,0.0,0.0,0.0,0.0,0.0,0.0,0.0,0.0,0.0,0.0,0.0,0.0,0.0,0.0,0.0,0.0,0.0,0.0,0.0,0.0,0.0,0.0,0.0,0.0,0.0,0.0,0.0,0.0,0.0,0.0,0.0,0.0,0.0,0.0,0.0,0.0,0.0,0.0,0.0,0.0,0.0,0.0,0.0,0.0,0.0,0.0,0.0,0.0,0.0,0.0,0.0,0.0,0.0,0.0,0.0,0.0,0.0,0.0,0.0,0.0,0.0,0.0,0.0,0.0,0.0,0.0,0.0,0.0,0.0,0.0,0.0,0.0,0.0,0.0,0.0,0.0,0.0,0.0,0.0,0.0,0.0,0.0,0.0,0.0,0.0,0.0,0.0,0.0,0.0,0.0,0.0,0.0,0.0,0.0,0.0,0.0,0.0,0.0,0.0,0.0,0.0,0.0,0.0,0.0,0.0,1.5073,1.5998,1.6141,1.54,1.6107,1.6513,1.6513,0.0,0.0,0.0,0.0,0.0,0.0,0.0,0.0,0.0,0.0,0.0,0.0,0.0,0.0,0.0,0.0,0.0,0.0,0.0,0.0,0.0,0.0,0.0,0.0,0.0,0.0,0.0,0.0,0.0,0.0,0.0,0.0,0.0,0.0,0.0,0.0,0.0,0.0,0.0,0.0,0.0,0.0,0.0,0.0,0.0,0.0,0.0,0.0,0.0,0.0,0.0,0.0,0.0,0.0,0.0,0.0,0.0,0.0,0.0,0.0,0.0,0.0,0.0,0.0,0.0,0.0,0.0,0.0,0.0,0.0,0.0,0.0,0.0,0.0,0.0,0.0,0.0,0.0,0.0,0.0,0.0,0.0,0.0,0.0,0.0,0.0,0.0,0.0,0.0,0.0,0.0,0.0,0.0,0.0,0.0,0.0,0.0,0.0,0.0,0.0,0.0,0.0,0.0,0.0,0.0,0.0,0.0,0.0,1.5738,1.6292,1.6541,1.6412,1.6504,1.6538,0.0,0.0,0.0,0.0,0.0,0.0,0.0,0.0,0.0,0.0,0.0,0.0,0.0,0.0,0.0,0.0,0.0,0.0,0.0,0.0,0.0,0.0,0.0,0.0,0.0,0.0,0.0,0.0,0.0,0.0,0.0,0.0,0.0,0.0,0.0,0.0,0.0,0.0,0.0,0.0,0.0,0.0,0.0,0.0,0.0,0.0,0.0,0.0,0.0,0.0,0.0,0.0,0.0,0.0,0.0,0.0,0.0,0.0,0.0,0.0,0.0,0.0,0.0,0.0,0.0,0.0,0.0,0.0,0.0,0.0,0.0,0.0,0.0,0.0,0.0,0.0,0.0,0.0,0.0,0.0,0.0,0.0,0.0,0.0,0.0,0.0,0.0,0.0,0.0,0.0,0.0,0.0,0.0,0.0,0.0,0.0,0.0,0.0,0.0,0.0,0.0,0.0,0.0,0.0,0.0,0.0,0.0,0.0,0.0,1.7472,1.7684,1.7146,1.5913,1.6701,1.7149,0.0,0.0,0.0,0.0,0.0,0.0,0.0,0.0,0.0,0.0,0.0,0.0,0.0,0.0,0.0,0.0,0.0,0.0,0.0,0.0,0.0,0.0,0.0,0.0,0.0,0.0,0.0,0.0,0.0,0.0,0.0,0.0,0.0,0.0,0.0,0.0,0.0,0.0,0.0,0.0,0.0,0.0,0.0,0.0,0.0,0.0,0.0,0.0,0.0,0.0,0.0,0.0,0.0,0.0,0.0,0.0,0.0,0.0,0.0,0.0,0.0,0.0,0.0,0.0,0.0,0.0,0.0,0.0,0.0,0.0,0.0,0.0,0.0,0.0,0.0,0.0,0.0,0.0,0.0,0.0,0.0,0.0,0.0,0.0,0.0,0.0,0.0,0.0,0.0,0.0,0.0,0.0,0.0,0.0,0.0,0.0,0.0,0.0,0.0,0.0,0.0,0.0,0.0,0.0,0.0,0.0,0.0,0.0,1.7147,1.8168,1.8192,1.7714,1.6726,1.7367,1.7727,0.0,0.0,0.0,0.0,0.0,0.0,0.0,0.0,0.0,0.0,0.0,0.0,0.0,0.0,0.0,0.0,0.0,0.0,0.0,0.0,0.0,0.0,0.0,0.0,0.0,0.0,0.0,0.0,0.0,0.0,0.0,0.0,0.0,0.0,0.0,0.0,0.0,0.0,0.0,0.0,0.0,0.0,0.0,0.0,0.0,0.0,0.0,0.0,0.0,0.0,0.0,0.0,0.0,0.0,0.0,0.0,0.0,0.0,0.0,0.0,0.0,0.0,0.0,0.0,0.0,0.0,0.0,0.0,0.0,0.0,0.0,0.0,0.0,0.0,0.0,0.0,0.0,0.0,0.0,0.0,0.0,0.0,0.0,0.0,0.0,0.0,0.0,0.0,0.0,0.0,0.0,0.0,0.0,0.0,0.0,0.0,0.0,0.0,0.0,0.0,0.0,0.0,0.0,0.0,0.0,0.0,0.0,0.0,1.8245,1.8355,1.8355,1.8355,1.8367,1.8318,1.8292,0.0,0.0,0.0,0.0,0.0,0.0,0.0,0.0,0.0,0.0,0.0,0.0,0.0,0.0,0.0,0.0,0.0,0.0,0.0,0.0,0.0,0.0,0.0,0.0,0.0,0.0,0.0,0.0,0.0,0.0,0.0,0.0,0.0,0.0,0.0,0.0,0.0,0.0,0.0,0.0,0.0,0.0,0.0,0.0,0.0,0.0,0.0,0.0,0.0,0.0,0.0,0.0,0.0,0.0,0.0,0.0,0.0,0.0,0.0,0.0,0.0,0.0,0.0,0.0,0.0,0.0,0.0,0.0,0.0,0.0,0.0,0.0,0.0,0.0,0.0,0.0,0.0,0.0,0.0,0.0,0.0,0.0,0.0,0.0,0.0,0.0,0.0,0.0,0.0,0.0,0.0,0.0,0.0,0.0,0.0,0.0,0.0,0.0,0.0,0.0,0.0,0.0,0.0,0.0,0.0,0.0,0.0,0.0,1.8559,1.9421,1.9459,1.9459,1.9459,1.9058,1.8844,0.0,0.0,0.0,0.0,0.0,0.0,0.0,0.0,0.0,0.0,0.0,0.0,0.0,0.0,0.0,0.0,0.0,0.0,0.0,0.0,0.0,0.0,0.0,0.0,0.0,0.0,0.0,0.0,0.0,0.0,0.0,0.0,0.0,0.0,0.0,0.0,0.0,0.0,0.0,0.0,0.0,0.0,0.0,0.0,0.0,0.0,0.0,0.0,1.7306,0.0,0.0,0.0,0.0,0.0,0.0,0.0,0.0,0.0,0.0,0.0,0.0,0.0,0.0,0.0,0.0,0.0,0.0,0.0,0.0,0.0,0.0,0.0,0.0,0.0,0.0,0.0,0.0,0.0,0.0,0.0,0.0,0.0,0.0,0.0,0.0,0.0,0.0,0.0,0.0,0.0,0.0,0.0,0.0,0.0,0.0,0.0,0.0,0.0,0.0,0.0,0.0,0.0,0.0,0.0,0.0,0.0,0.0,0.0,1.9191,1.9773,1.9811,1.9811,1.9811,1.9838,1.971,0.0,0.0,0.0,0.0,0.0,0.0,0.0,0.0,0.0,0.0,0.0,0.0,0.0,0.0,0.0,0.0,0.0,0.0,0.0,0.0,0.0,0.0,0.0,0.0,0.0,0.0,0.0,0.0,0.0,0.0,0.0,0.0,0.0,0.0,0.0,0.0,0.0,0.0,0.0,0.0,0.0,0.0,0.0,0.0,0.0,0.0,0.0,0.0,0.0,0.0,0.0,0.0,0.0,0.0,0.0,0.0,0.0,0.0,0.0,0.0,0.0,0.0,0.0,0.0,0.0,0.0,0.0,0.0,0.0,0.0,0.0,0.0,0.0,0.0,0.0,0.0,0.0,0.0,0.0,0.0,0.0,0.0,0.0,0.0,0.0,0.0,0.0,0.0,0.0,0.0,0.0,0.0,0.0,0.0,0.0,0.0,0.0,0.0,0.0,0.0,0.0,0.0,0.0,0.0,0.0,0.0,0.0,1.9811,1.9811,1.9811,1.9811,1.9811,1.9811,2.0446,2.0497,1.9837,0.0,0.0,0.0,0.0,0.0,0.0,0.0,0.0,0.0,0.0,0.0,0.0,0.0,0.0,0.0,0.0,0.0,0.0,0.0,0.0,0.0,0.0,0.0,0.0,0.0,0.0,0.0,0.0,0.0,0.0,0.0,0.0,0.0,0.0,0.0,0.0,0.0,0.0,1.7333,1.7636,0.0,0.0,0.0,0.0,0.0,0.0,0.0,0.0,1.9123,0.0,0.0,0.0,0.0,0.0,0.0,0.0,0.0,0.0,0.0,0.0,0.0,0.0,0.0,0.0,0.0,0.0,0.0,0.0,0.0,0.0,0.0,0.0,0.0,0.0,0.0,0.0,0.0,0.0,0.0,0.0,0.0,0.0,0.0,0.0,0.0,0.0,0.0,0.0,0.0,0.0,0.0,0.0,0.0,0.0,0.0,0.0,0.0,0.0,0.0,0.0,0.0,0.0,0.0,0.0,0.0,1.9798,1.9811,1.9811,1.9811,1.9811,1.9811,1.9837,2.0446,2.0484,1.9901,0.0,0.0,0.0,0.0,0.0,0.0,0.0,0.0,0.0,0.0,0.0,0.0,0.0,0.0,0.0,0.0,0.0,0.0,0.0,0.0,0.0,0.0,0.0,0.0,0.0,0.0,0.0,0.0,0.0,0.0,0.0,0.0,0.0,0.0,0.0,0.0,0.0,0.0,0.0,1.798,1.8088,0.0,0.0,0.0,0.0,0.0,0.0,0.0,0.0,1.8035,0.0,0.0,0.0,0.0,0.0,0.0,0.0,0.0,0.0,0.0,0.0,0.0,0.0,0.0,0.0,0.0,0.0,0.0,0.0,0.0,0.0,0.0,0.0,0.0,0.0,0.0,0.0,0.0,0.0,0.0,0.0,0.0,0.0,0.0,0.0,0.0,0.0,0.0,0.0,0.0,0.0,0.0,0.0,0.0,0.0,0.0,0.0,0.0,0.0,0.0,0.0,0.0,0.0,0.0,0.0,1.9811,2.0113,2.0263,2.0277,2.054,2.0865,2.125,2.1898,2.2266,0.0,0.0,0.0,0.0,0.0,0.0,0.0,0.0,0.0,0.0,0.0,0.0,0.0,0.0,0.0,0.0,0.0,0.0,0.0,0.0,0.0,0.0,0.0,0.0,0.0,0.0,0.0,0.0,0.0,0.0,0.0,0.0,0.0,0.0,0.0,0.0,0.0,0.0,0.0,0.0,1.7825,1.8002,1.9084,0.0,0.0,0.0,0.0,0.0,0.0,1.9549,1.9577,0.0,0.0,0.0,0.0,0.0,0.0,0.0,0.0,0.0,0.0,0.0,0.0,0.0,0.0,0.0,0.0,0.0,0.0,0.0,0.0,0.0,0.0,0.0,0.0,0.0,0.0,0.0,0.0,0.0,0.0,0.0,0.0,0.0,0.0,0.0,0.0,0.0,0.0,0.0,0.0,0.0,0.0,0.0,0.0,0.0,0.0,0.0,0.0,0.0,0.0,0.0,0.0,0.0,0.0,0.0,2.0162,2.0629,2.0855,2.088,2.1434,2.2008,2.2604,2.3381,2.402,0.0,0.0,0.0,0.0,0.0,0.0,0.0,0.0,0.0,0.0,0.0,0.0,0.0,0.0,0.0,0.0,0.0,0.0,0.0,0.0,0.0,0.0,0.0,0.0,0.0,0.0,0.0,0.0,0.0,0.0,0.0,0.0,0.0,0.0,0.0,0.0,0.0,0.0,0.0,0.0,0.0,1.8274,1.9002,1.9695,0.0,0.0,0.0,0.0,2.0482,2.1048,0.0,0.0,0.0,0.0,0.0,0.0,0.0,0.0,0.0,0.0,0.0,0.0,0.0,0.0,0.0,0.0,0.0,0.0,0.0,0.0,0.0,0.0,0.0,0.0,0.0,0.0,0.0,0.0,0.0,0.0,0.0,0.0,0.0,0.0,0.0,0.0,0.0,0.0,0.0,0.0,0.0,0.0,0.0,0.0,0.0,0.0,0.0,0.0,0.0,0.0,0.0,0.0,0.0,0.0,0.0,0.0,2.128,2.1369,2.1407,2.1434,2.2093,2.2497,2.2618,2.388,2.4346,0.0,0.0,0.0,0.0,0.0,0.0,0.0,0.0,0.0,0.0,0.0,0.0,0.0,0.0,0.0,0.0,0.0,0.0,0.0,0.0,0.0,0.0,0.0,0.0,0.0,0.0,0.0,0.0,0.0,0.0,0.0,0.0,0.0,0.0,0.0,0.0,0.0,0.0,0.0,0.0,0.0,1.9633,2.0364,2.0937,2.129,0.0,0.0,2.1391,2.1369,2.1439,0.0,0.0,0.0,0.0,0.0,0.0,0.0,0.0,0.0,0.0,0.0,0.0,0.0,0.0,0.0,0.0,0.0,0.0,0.0,0.0,0.0,0.0,0.0,0.0,0.0,0.0,0.0,0.0,0.0,0.0,0.0,0.0,0.0,0.0,0.0,0.0,0.0,0.0,0.0,0.0,0.0,0.0,0.0,0.0,0.0,0.0,0.0,0.0,0.0,0.0,0.0,0.0,0.0,0.0,0.0,2.1268,2.1507,2.1794,2.2158,2.2581,2.3217,2.3972,2.4798,2.5403,2.5776,0.0,0.0,0.0,0.0,0.0,0.0,0.0,0.0,0.0,0.0,0.0,0.0,0.0,0.0,0.0,0.0,0.0,0.0,0.0,0.0,0.0,0.0,0.0,0.0,0.0,0.0,0.0,0.0,0.0,0.0,0.0,0.0,0.0,0.0,0.0,0.0,0.0,0.0,0.0,0.0,0.0,0.0,2.106,2.1356,0.0,0.0,0.0,2.1912,2.1746,0.0,0.0,0.0,0.0,0.0,0.0,0.0,0.0,0.0,0.0,0.0,0.0,0.0,0.0,0.0,0.0,0.0,0.0,0.0,0.0,0.0,0.0,0.0,0.0,0.0,0.0,0.0,0.0,0.0,0.0,0.0,0.0,0.0,0.0,0.0,0.0,0.0,0.0,0.0,0.0,0.0,0.0,0.0,0.0,0.0,0.0,0.0,0.0,0.0,0.0,0.0,0.0,0.0,0.0,0.0,0.0,0.0,2.1907,2.2295,2.2875,2.3619,2.4241,2.5189,2.6457,2.6682,0.0,0.0,0.0,0.0,0.0,0.0,0.0,0.0,0.0,0.0,0.0,0.0,0.0,0.0,0.0,0.0,0.0,0.0,0.0,0.0,0.0,0.0,0.0,0.0,0.0,0.0,0.0,2.0025,0.0,0.0,0.0,0.0,0.0,0.0,0.0,0.0,0.0,0.0,0.0,0.0,0.0,0.0,2.0858,2.1609,2.1821,2.2031,0.0,0.0,2.2427,2.2231,2.2702,2.2887,0.0,0.0,0.0,0.0,0.0,0.0,0.0,0.0,0.0,0.0,0.0,0.0,0.0,0.0,0.0,0.0,0.0,0.0,0.0,0.0,0.0,0.0,0.0,0.0,0.0,0.0,0.0,0.0,0.0,0.0,0.0,0.0,0.0,0.0,0.0,0.0,0.0,0.0,0.0,0.0,0.0,0.0,0.0,0.0,0.0,0.0,0.0,0.0,0.0,0.0,0.0,0.0,0.0,0.0,0.0,2.2955,2.3032,2.345,2.4226,2.4951,2.5701,2.6469,2.7178,2.7549,0.0,0.0,0.0,0.0,0.0,0.0,0.0,0.0,0.0,0.0,0.0,0.0,0.0,0.0,0.0,0.0,0.0,0.0,0.0,0.0,0.0,0.0,0.0,0.0,0.0,0.0,0.0,0.0,0.0,0.0,0.0,0.0,0.0,0.0,0.0,0.0,0.0,0.0,0.0,0.0,0.0,2.1417,2.2145,2.2684,2.2995,0.0,0.0,2.3027,2.3005,2.3063,2.3078,2.3032,0.0,0.0,0.0,0.0,0.0,0.0,0.0,0.0,0.0,0.0,0.0,0.0,0.0,0.0,0.0,0.0,0.0,0.0,0.0,0.0,0.0,0.0,0.0,0.0,0.0,0.0,0.0,0.0,0.0,0.0,0.0,0.0,0.0,0.0,0.0,0.0,0.0,0.0,0.0,0.0,0.0,0.0,0.0,0.0,0.0,0.0,0.0,0.0,0.0,0.0,0.0,0.0,0.0,2.3134,2.3826,2.384,2.4424,2.5605,2.5919,2.6416,2.715,2.7431,2.7585,0.0,0.0,0.0,0.0,0.0,0.0,0.0,0.0,0.0,0.0,0.0,0.0,0.0,0.0,0.0,0.0,0.0,0.0,0.0,0.0,0.0,0.0,0.0,0.0,0.0,0.0,0.0,0.0,2.1683,2.2133,2.2445,0.0,0.0,0.0,0.0,0.0,0.0,0.0,0.0,0.0,0.0,2.2471,2.2752,2.297,0.0,0.0,2.3095,2.3233,2.36,2.365,2.3775,2.4114,2.4148,0.0,0.0,0.0,0.0,0.0,0.0,0.0,0.0,0.0,0.0,0.0,0.0,0.0,0.0,0.0,0.0,0.0,0.0,0.0,0.0,0.0,0.0,0.0,0.0,0.0,0.0,0.0,0.0,0.0,0.0,0.0,0.0,0.0,0.0,0.0,0.0,0.0,0.0,0.0,0.0,0.0,0.0,0.0,0.0,0.0,0.0,0.0,0.0,0.0,0.0,0.0,0.0,2.3499,2.4279,2.448,2.5307,2.6785,2.6985,2.742,2.816,2.8186,2.8199,0.0,0.0,0.0,0.0,0.0,0.0,0.0,0.0,0.0,0.0,0.0,0.0,0.0,0.0,0.0,0.0,0.0,0.0,0.0,0.0,0.0,0.0,0.0,0.0,0.0,0.0,0.0,0.0,2.2219,2.2696,2.307,0.0,0.0,0.0,0.0,0.0,0.0,0.0,0.0,0.0,0.0,2.3386,2.3371,2.3496,2.3594,2.3609,2.3609,2.3747,2.4192,2.4243,2.4381,2.4754,0.0,0.0,0.0,0.0,0.0,0.0,0.0,0.0,0.0,0.0,0.0,0.0,0.0,0.0,0.0,0.0,0.0,0.0,0.0,0.0,0.0,0.0,0.0,0.0,0.0,0.0,0.0,0.0,0.0,0.0,0.0,0.0,0.0,0.0,0.0,0.0,0.0,0.0,0.0,0.0,0.0,0.0,0.0,0.0,0.0,0.0,0.0,0.0,0.0,0.0,0.0,0.0,0.0,2.3526,2.4319,2.4951,2.5966,2.746,2.8049,2.8716,2.9491,2.9548,2.9548,2.9533,0.0,0.0,0.0,0.0,0.0,0.0,0.0,0.0,0.0,0.0,0.0,0.0,0.0,0.0,0.0,0.0,0.0,0.0,0.0,0.0,0.0,0.0,0.0,0.0,0.0,0.0,2.2297,2.2757,2.3083,0.0,0.0,0.0,0.0,0.0,0.0,0.0,0.0,0.0,0.0,2.36,2.3979,2.3991,2.4415,2.4729,2.4741,2.4741,2.4766,2.4779,2.4775,2.4804,0.0,0.0,0.0,0.0,0.0,0.0,0.0,0.0,0.0,0.0,0.0,0.0,0.0,0.0,0.0,0.0,0.0,0.0,0.0,0.0,0.0,0.0,0.0,0.0,0.0,0.0,0.0,1.569,1.572,0.0,0.0,0.0,0.0,0.0,0.0,0.0,0.0,0.0,0.0,0.0,1.9339,2.0064,0.0,0.0,0.0,0.0,0.0,0.0,0.0,0.0,0.0,0.0,0.0,0.0,2.5063,2.6206,2.694,2.7825,2.8856,2.9089,2.9332,2.9593,2.9608,2.9608,2.9608,0.0,0.0,0.0,0.0,0.0,0.0,0.0,0.0,0.0,0.0,0.0,0.0,0.0,0.0,0.0,0.0,0.0,0.0,0.0,0.0,0.0,0.0,0.0,0.0,0.0,2.2832,0.0,0.0,0.0,0.0,0.0,0.0,0.0,0.0,0.0,0.0,0.0,2.3825,2.4173,2.4402,2.4528,2.4528,2.4691,2.4816,0.0,0.0,0.0,0.0,0.0,0.0,0.0,0.0,0.0,0.0,0.0,0.0,0.0,0.0,2.569,2.4942,2.4816,2.4816,2.4816,0.0,0.0,0.0,0.0,0.0,0.0,0.0,0.0,0.0,0.0,0.0,0.0,0.0,0.0,0.0,0.0,1.7355,0.0,0.0,0.0,0.0,0.0,0.0,0.0,0.0,2.0668,2.1079,2.0658,2.138,2.1789,0.0,2.2377,2.2466,0.0,0.0,0.0,0.0,0.0,0.0,0.0,0.0,2.6203,2.7591,2.8354,2.9125,2.9881,3.0133,3.0268,3.0253,3.0253,3.0268,3.0268,3.0268,3.0268,0.0,0.0,0.0,0.0,0.0,0.0,0.0,0.0,0.0,0.0,0.0,0.0,0.0,0.0,0.0,0.0,0.0,0.0,0.0,0.0,0.0,0.0,0.0,2.3684,0.0,0.0,0.0,0.0,0.0,0.0,0.0,0.0,0.0,2.433,2.4264,2.4418,2.4754,2.4954,2.5067,2.508,0.0,0.0,0.0,0.0,0.0,0.0,0.0,2.6059,2.6436,2.6487,2.6487,2.6487,2.6487,2.6487,2.6487,0.0,0.0,2.5523,2.5385,2.5398,2.5398,2.5398,2.5398,2.5398,2.5385,2.5385,0.0,0.0,0.0,0.0,0.0,0.0,0.0,0.0,1.7668,1.8043,0.0,1.8943,0.0,0.0,0.0,0.0,0.0,0.0,0.0,0.0,2.2547,2.3155,2.3143,2.314,2.3143,2.3195,2.3735,2.4001,2.3963,2.3479,0.0,0.0,0.0,0.0,0.0,0.0,2.6937,2.844,2.9146,2.9812,3.0524,3.1166,3.1466,3.1466,3.1466,3.1466,3.1481,3.1466,3.1481,3.1481,3.1466,0.0,0.0,0.0,0.0,0.0,0.0,0.0,0.0,0.0,0.0,0.0,0.0,0.0,0.0,0.0,0.0,0.0,0.0,0.0,0.0,2.4478,0.0,0.0,0.0,0.0,0.0,0.0,0.0,0.0,0.0,0.0,2.4879,2.4842,2.4842,2.4867,0.0,0.0,0.0,0.0,2.6474,2.6474,2.6487,2.6474,2.6474,2.6487,2.6487,2.6487,0.0,0.0,2.6487,2.6487,2.6487,2.6487,2.6487,2.6487,2.6461,2.6424,2.6436,2.6436,2.6411,2.6474,2.6491,2.6442,2.6518,1.8379,0.0,0.0,0.0,0.0,1.7646,1.7926,1.8422,1.8657,1.918,1.9876,2.0113,0.0,0.0,0.0,0.0,0.0,0.0,2.2611,2.2882,2.3862,2.4327,2.4327,2.4311,2.4299,2.4327,2.449,2.4566,2.4598,2.504,2.5024,2.4598,0.0,0.0,0.0,0.0,2.8879,2.9737,3.0499,3.101,3.1227,3.1406,3.1496,3.1496,3.1496,3.1496,3.1496,3.1496,3.1496,3.1496,3.1496,0.0,0.0,0.0,0.0,0.0,0.0,0.0,0.0,0.0,0.0,0.0,0.0,0.0,0.0,0.0,0.0,0.0,0.0,0.0,2.455,2.4716,2.4816,0.0,0.0,0.0,0.0,0.0,0.0,0.0,0.0,0.0,2.6021,2.5624,2.5523,0.0,0.0,2.6235,2.6248,2.6386,2.6487,2.6487,0.0,0.0,0.0,2.6487,2.6487,2.6487,2.6487,2.6487,2.6487,2.6487,2.6487,2.6504,2.6487,2.6487,2.6487,2.6487,2.6504,2.6487,2.6487,2.6487,2.6521,2.6939,2.7351,2.078,2.0483,1.9798,1.9563,1.965,1.9668,1.9902,2.0363,2.0681,2.1178,2.1779,2.2114,2.2147,2.1925,2.1864,0.0,0.0,0.0,2.3679,2.4038,2.4565,2.4816,2.4816,2.4816,2.4816,2.4816,2.5005,2.5301,2.5643,2.6746,2.6994,2.6502,0.0,0.0,2.8251,2.9245,3.0103,3.0763,3.1248,3.1496,3.1496,3.1496,3.1496,3.1496,3.1496,3.1496,3.1496,3.1496,3.1496,3.1496,3.1496,3.1496,0.0,0.0,0.0,0.0,0.0,0.0,0.0,0.0,0.0,0.0,0.0,2.5881,2.5358,0.0,0.0,0.0,2.5206,2.5205,2.5464,2.5473,0.0,0.0,0.0,0.0,0.0,0.0,0.0,2.5971,2.6273,2.6487,2.6487,2.6197,2.6109,2.6449,2.6487,2.6487,2.6487,0.0,2.6487,2.6487,2.6487,2.6487,2.6487,2.6487,2.6487,2.6487,2.6794,2.6985,2.699,2.7246,2.7471,2.7488,2.7501,2.7501,2.7471,2.7501,2.7246,2.6658,2.6765,2.696,2.696,2.7637,2.8217,2.3585,2.3472,2.1836,2.159,2.2291,2.2308,2.2291,2.236,2.3138,2.3549,2.3683,2.4464,2.4415,2.3699,2.2901,0.0,2.3733,2.3733,2.4172,2.4926,2.4929,2.4929,2.4929,2.4942,2.4929,2.4954,2.5501,2.6178,2.699,2.8395,2.9097,2.9085,2.8666,2.9093,3.024,3.0359,3.0762,3.1496,3.1496,3.1496,3.1496,3.1496,3.1496,3.1496,3.1496,3.1496,3.1496,3.1496,3.1496,3.1496,3.1496,3.1496,3.1481,0.0,0.0,0.0,0.0,0.0,0.0,0.0,0.0,0.0,0.0,0.0,0.0,0.0,0.0,0.0,2.59,0.0,2.6449,2.6487,0.0,0.0,0.0,2.6487,2.6487,2.6487,2.6487,2.6487,0.0,0.0,2.6487,0.0,2.6487,2.6487,2.6487,2.6487,2.6487,2.6572,2.6602,2.6504,2.6585,2.6589,2.6521,2.6589,2.6714,2.6867,2.7317,2.7786,2.7838,2.8363,2.8923,2.8878,2.8973,2.8941,2.8973,2.8876,2.8524,2.704,2.733,2.7789,2.7851,2.8492,2.9097,2.4306,2.4606,2.4182,2.3699,2.3196,2.3185,2.3185,2.3203,2.3412,2.3913,2.4653,2.4863,2.5251,2.5779,2.5578,2.5578,2.5766,2.5766,2.5898,2.6097,2.608,2.608,2.6097,2.6109,2.6092,2.6143,2.6858,2.7324,2.7574,2.9185,2.9996,3.0011,3.0483,3.0572,3.0344,3.0911,3.1307,3.1496,3.1496,3.1496,3.1496,3.1496,3.1496,3.1496,3.1496,3.1496,3.1496,3.1496,3.1496,3.1496,3.1496,3.1496,3.1496,3.1322,0.0,0.0,0.0,0.0,0.0,0.0,0.0,0.0,0.0,2.8037,2.7376,0.0,2.7327,0.0,2.6691,2.6348,2.6487,2.6487,0.0,0.0,2.6487,2.6487,2.6487,2.6487,2.6487,2.6487,2.6487,2.6487,2.6487,2.6487,2.6487,2.6487,2.6504,2.6487,2.6504,2.704,2.7196,2.6752,2.7092,2.7166,2.6781,2.704,2.7676,2.8312,2.8572,2.8684,2.8714,2.8844,2.8989,2.8989,2.8989,2.8989,2.9077,2.8989,2.8923,2.8492,2.8572,2.8698,2.8716,2.938,2.9981,2.614,2.6371,2.6389,2.607,2.5507,2.5027,2.4826,2.4838,2.4838,2.5134,2.5664,2.5664,2.599,2.6487,2.6487,2.6487,2.6487,2.6487,2.6487,2.6487,2.6487,2.6487,2.6516,2.6867,2.7027,2.7074,2.7871,2.8476,2.8907,2.9843,3.0479,3.0837,3.1292,3.1278,3.0866,3.1278,3.1496,3.1496,3.1496,3.1496,3.1496,3.1496,3.1496,3.1496,3.1496,3.1496,3.1496,3.1496,3.1496,3.1496,3.1496,3.1496,3.1496,3.1496,3.1496,0.0,0.0,0.0,0.0,0.0,0.0,0.0,0.0,0.0,0.0,0.0,2.854,2.7769,2.7284,2.6888,2.6538,2.6816,2.704,2.704,2.7384,2.7633,2.7617,2.7604,2.7633,2.7604,2.762,2.7617,2.7604,2.7617,2.7742,2.8012,2.8068,2.793,2.7571,2.7816,2.8118,2.8452,2.8501,2.8552,2.8467,2.8876,2.9312,2.9803,3.0191,3.0415,3.0431,3.0761,3.0996,3.0996,3.101,3.101,3.0996,3.0721,3.065,3.0896,3.0765,3.0339,2.9716,3.0238,3.0837,2.8172,2.8109,2.8109,2.8109,2.8016,2.7085,2.67,2.6683,2.67,2.67,2.6713,2.67,2.67,2.67,2.67,2.67,2.6713,2.67,2.67,2.67,2.6713,2.6769,2.6912,2.7605,2.798,2.8163,2.8997,2.9763,3.04,3.0505,3.0895,3.1482,3.1496,3.1496,3.1496,3.1496,3.1496,3.1496,3.1496,3.1496,3.1496,3.1496,3.1496,3.1496,3.1496,3.1496,3.1496,3.1496,3.1496,3.1496,3.1496,3.1496,3.1496,3.1496,3.1496,0.0,3.0837,0.0,0.0,0.0,0.0,0.0,0.0,0.0,0.0,3.0313,2.9627,2.8002,2.7871,2.7571,2.6871,2.7451,2.7855,2.7901,2.8554,2.8989,2.9002,2.8989,2.8989,2.8989,2.9071,2.9129,2.9093,2.9184,2.949,2.9914,3.0125,3.0017,2.947,2.9218,2.9564,3.0862,3.0256,2.9963,3.0737,3.1059,3.1112,3.1335,3.1815,3.2347,3.2305,3.2885,3.3439,3.3409,3.3273,3.3378,3.3499,3.2945,3.2781,3.3183,3.2825,3.2123,3.1185,3.1323,3.1721,2.8505,2.8122,2.8109,2.8109,2.8084,2.7883,2.7783,2.7783,2.7808,2.7814,2.7783,2.7795,2.7795,2.7795,2.7795,2.7801,2.7795,2.7795,2.7783,2.7814,2.7795,2.8188,2.8909,2.9083,2.9586,3.0386,3.1205,3.1397,3.105,3.175,3.1886,3.1511,3.1496,3.1496,3.1496,0.0,0.0,0.0,3.1496,3.1496,3.1496,3.1496,3.1496,3.1496,3.1496,0.0,3.1496,3.1496,3.1496,3.1496,3.1496,0.0,0.0,0.0,0.0,0.0,0.0,0.0,0.0,0.0,0.0,0.0,3.1278,3.0984,3.0359,3.0313,2.9859,2.8876,2.8748,2.87,2.8554,2.8652,2.8764,2.8764,2.8894,2.8989,2.8989,2.9018,2.8989,2.9002,2.9495,2.9818,2.991,3.0264,3.0665,3.092,3.1389,3.1927,3.2283,3.1768,3.1382,3.1085,3.0945,3.1074,3.1836,3.2037,3.2335,3.2835,3.3115,3.3268,3.3297,3.336,3.3514,3.3544,3.3499,3.3529,3.3544,3.338,3.3365,3.3484,3.3395,3.3214,3.2958,3.3004,3.3125,2.9183,0.0,2.8938,2.8938,0.0,2.8938,2.8938,2.89,2.8348,2.8109,2.8109,2.8109,2.8109,2.8109,2.8109,2.8109,2.8109,2.8109,2.8109,2.8128,2.8579,2.9036,2.9535,3.0409,3.1082,3.1624,3.2443,3.2659,3.2367,3.2779,3.2811,3.2482,3.2482,3.2482,3.2482,3.2482,3.2153,3.1496,3.1496,3.1496,3.1496,3.1496,3.1496,3.1496,0.0,0.0,0.0,0.0,0.0,0.0,0.0,0.0,0.0,0.0,0.0,3.1496,3.1496,3.1496,3.1496,3.1496,3.1496,3.1496,3.1496,3.1336,3.0925,3.0881,3.0554,2.9735,2.9658,2.9473,2.9066,2.938,2.9628,2.9659,2.9996,3.0238,3.0253,3.0527,3.0715,3.0787,3.1322,3.1727,3.1729,3.1988,3.2367,3.2688,3.3067,3.3571,3.4068,3.3374,3.2538,3.2508,3.2975,3.3367,3.3724,3.3836,3.3902,3.4392,3.4471,3.4487,3.4487,3.4471,3.4487,3.4487,3.4487,3.4487,3.4457,3.4248,3.4099,3.4352,3.4233,3.4158,3.4337,3.3963,3.3499,3.0068,3.008,3.01,3.008,3.008,3.0087,3.0037,2.9867,0.0,0.0,0.0,2.8411,2.8398,2.8411,2.8398,2.8417,2.8398,2.8398,2.8478,2.8685,2.943,2.9984,3.0373,3.1834,3.26,3.2824,3.3517,3.3799,3.3679,3.3664,3.362,3.3514,3.3499,3.3499,3.3499,3.3499,3.2961,3.1899,3.1735,3.163,3.1511,3.1496,3.1496,3.1496,3.1496,3.1496,3.1496,3.1496,3.1496,3.1496,3.1496,3.1496,3.1496,3.1496,3.1496,3.1496,3.1496,3.1496,3.1496,3.1496,3.1496,3.1496,3.1496,3.1496,3.1496,3.1496,3.1234,3.0569,3.051,3.0209,2.952,3.0057,3.0568,3.0684,3.1279,3.1705,3.1855,3.2333,3.2587,3.2751,3.3169,3.3664,3.3602,3.3721,3.4039,3.4517,3.4572,3.4847,3.5199,3.4398,3.375,3.4143,3.4694,3.535,3.5458,3.5381,3.5489,3.5368,3.5429,3.5489,3.5489,3.5489,3.5489,3.5385,3.5489,3.5444,3.5444,3.5027,3.4892,3.5385,3.507,3.4847,3.5235,3.4621,3.3948,3.116,3.118,3.116,3.1173,3.116,3.116,3.0909,3.0425,2.9829,2.9553,2.9553,2.9553,2.9572,2.9572,2.9553,2.9553,2.9553,2.9553,2.998,0.0,3.0906,3.1825,3.3331,3.3635,3.4199,3.5011,3.5157,3.4921,3.4413,3.4353,3.4069,3.3574,3.3499,3.3514,3.3499,3.3499,3.3395,3.3215,3.2662,3.2064,3.1525,3.1496,3.1496,3.1496,3.1481,3.1496,3.1496,3.1496,3.1496,3.1496,3.1496,3.1496,3.1496,3.1496,3.1496,3.1496,3.1496,3.1496,3.1496,3.1496,3.1496,3.1496,3.1496,3.1496,3.1496,3.1496,3.1452,3.1321,3.1322,3.1292,3.1175,3.1264,3.1575,3.208,3.2288,3.2587,3.3066,3.326,3.3365,3.3365,3.3949,3.4369,3.4398,3.4801,3.513,3.5295,3.525,3.5385,3.5397,3.5317,3.5206,3.528,3.5407,3.5504,3.5489,3.5489,3.5489,3.5489,3.5489,3.5489,3.5489,3.5489,3.5489,3.5489,3.5489,3.5489,3.5489,3.5459,3.537,3.5489,3.534,3.537,3.5489,3.525,3.5114,3.1406,3.1406,3.1406,3.1406,3.1406,3.1406,3.126,3.1022,3.0791,3.0331,2.9804,2.9779,2.9779,2.9779,2.9779,2.9779,2.983,3.0324,3.0809,3.1273,3.2249,3.3171,3.3979,3.456,3.505,3.5488,3.5489,3.534,3.5086,3.504,3.4891,3.4592,3.4592,3.4577,3.4592,3.4577,3.4412,3.4039,3.338,3.2901,3.2587,3.2243,3.2048,3.2034,3.1705,3.1496,3.1496,3.1496,3.1496,3.1496,3.1496,3.1496,3.1496,3.1496,3.1496,3.1496,3.1496,3.1496,3.1496,3.1496,3.1496,3.1496,3.1496,3.166,3.2033,3.1705,3.1496,3.1525,3.1809,3.2034,3.2049,3.2377,3.2721,3.3006,3.3036,3.317,3.3469,3.3859,3.4024,3.4099,3.4637,3.5042,3.5056,3.531,3.5489,3.5489,3.5489,3.5489,3.5489,3.5489,3.5489,3.5489,3.5489,3.5489,3.5489,3.5489,3.5489,3.5489,3.5489,3.5489,3.5489,3.5489,3.5489,3.5489,3.5489,3.5489,3.5489,3.5489,3.5489,3.5489,3.5489,3.5489,3.5489,3.5489,3.5489,3.1783,3.1796,3.1796,3.1783,3.1783,3.1783,3.1712,3.1574,3.1562,3.1175,3.0538,3.0273,3.0156,3.0163,3.0238,3.031,3.0401,3.1134,3.1646,3.1992,3.3328,3.4126,3.4394,3.5149,3.5489,3.5489,3.5489,3.5489,3.5489,3.5489,3.5489,3.5489,3.5489,3.5489,3.5489,3.5489,3.5251,3.4712,3.4203,3.3799,3.3499,3.2991,3.2721,3.2677,3.2228,3.1884,3.175,3.172,3.166,3.1511,3.1496,3.1496,3.1496,3.1496,3.1496,3.1496,3.1496,3.1496,3.1511,3.1631,3.1735,3.1735,3.1869,3.2168,3.2602,3.2273,3.1959,3.1989,3.2452,3.2721,3.2766,3.314,3.3559,3.3679,3.3709,3.3814,3.3978,3.4428,3.4727,3.4787,3.519,3.5474,3.5489,3.5489,3.5489,3.5489,3.5489,3.5489,3.5489,3.5489,3.5489,3.5489,3.5489,3.5489,3.5489,3.5489,3.5489,3.5489,3.5489,3.5489,3.5489,3.5489,3.5489,3.5489,3.5489,3.5489,3.5489,3.5489,3.5489,3.5489,3.5489,3.5489,3.5489,3.5489,3.5489,3.2927,3.2939,3.2901,3.2939,3.2901,3.2901,3.2625,3.2185,3.2127,3.2363,3.262,3.17,3.1304,3.1302,3.1649,3.1819,3.1843,3.2277,3.2936,3.3679,3.3925,3.4493,3.532,3.5485,3.5504,3.5519,3.5534,3.5549,3.5489,3.5489,3.5489,3.5489,3.5489,3.5489,3.5489,3.5489,3.5474,3.54,3.5355,3.4726,3.3574,3.344,3.341,3.341,3.3335,3.302,3.2437,3.2407,3.2123,3.157,3.154,3.1525,3.1525,3.1511,3.1511,3.154,3.1525,3.1496,3.1555,3.2064,3.2407,3.2452,3.2916,3.329,3.3395,3.335,3.3305,3.3335,3.3395,3.341,3.3395,3.3514,3.3859,3.4353,3.4398,3.4652,3.5115,3.537,3.5398,3.5415,3.5429,3.5489,3.5489,3.5489,3.5489,3.5489,3.5489,3.5489,3.5489,3.5489,3.5489,3.5489,3.5489,3.5489,3.5489,3.5489,3.5489,3.5489,3.5489,3.5489,3.5489,3.5489,3.5489,3.5489,3.5489,3.5489,3.5489,3.5489,3.5489,3.5489,3.5489,3.5489,3.5489,3.5489,3.5489,3.3102,3.3102,3.3102,3.3102,3.3102,3.3102,3.3322,3.3674,3.3682,3.4142,3.4803,3.4433,3.388,3.3298,3.3452,3.3547,3.3595,3.4275,3.4804,3.5223,3.5753,3.6245,3.6593,3.661,3.6447,3.6103,3.6104,3.5895,3.5549,3.5504,3.5489,3.5489,3.5489,3.5489,3.5489,3.5489,3.5489,3.5489,3.5489,3.522,3.4726,3.4293,3.4084,3.4054,3.3709,3.338,3.3125,3.3095,3.2976,3.2706,3.2662,3.2677,3.2691,3.2677,3.2677,3.2677,3.2677,3.2677,3.2691,3.2946,3.3095,3.308,3.3335,3.3649,3.4054,3.4099,3.4248,3.4577,3.4338,3.4084,3.4128,3.4442,3.4801,3.504,3.5085,3.519,3.5444,3.5489,3.5489,3.5489,3.5489,3.5489,3.5489,3.5489,3.5489,3.5489,3.5489,3.5489,3.5489,3.5489,3.5489,3.5489,3.5489,3.5489,3.5489,3.5489,3.5489,3.5489,3.5489,3.5489,3.5489,3.5489,3.5489,3.5489,3.5489,3.5489,3.5489,3.5489,3.5489,3.5489,3.5489,3.5489,3.5489,3.5489,3.5489,3.3102,3.3102,3.3102,3.327,3.3522,3.3535,3.4129,3.5027,3.5109,3.5668,3.6599,3.6643,3.6408,3.5896,3.5433,3.5199,3.5302,3.6036,3.6391,3.6444,3.7082,3.7372,3.7387,3.7387,3.718,3.6806,3.6746,3.6492,3.6026,3.5833,3.5774,3.5759,3.5578,3.5489,3.5489,3.5489,3.5489,3.5489,3.5489,3.5489,3.5415,3.5027,3.4787,3.4727,3.4308,3.3963,3.3769,3.3784,3.3679,3.3499,3.3499,3.3499,3.3499,3.3499,3.3499,3.3499,3.3499,3.3499,3.3499,3.3664,3.3769,3.3784,3.3933,3.4247,3.4652,3.4772,3.4981,3.5324,3.5055,3.4772,3.4832,3.5205,3.5474,3.5489,3.5489,3.5489,3.5489,3.5489,3.5489,3.5489,3.5489,3.5489,3.5489,3.5489,3.5489,3.5489,3.5489,3.5489,3.5489,3.5489,3.5489,3.5489,3.5489,3.5489,3.5489,3.5489,3.5489,3.5489,3.5489,3.5489,3.5489,3.5489,3.5489,3.5489,3.5489,3.5489,3.5489,3.5489,3.5489,3.5489,3.5489,3.5489,3.5489,3.5489,3.5489,3.3102,3.3124,3.3102,3.3734,3.4622,3.4635,3.521,3.6152,3.6152,3.6735,3.7677,3.7734,3.8246,3.886,3.736,3.6714,3.6756,3.7178,3.7386,3.7386,3.7458,3.7417,3.7387,3.7387,3.7404,3.7357,3.7375,3.7315,3.7178,3.6701,3.6449,3.6434,3.5863,3.5534,3.5533,3.5519,3.5489,3.5489,3.5489,3.5489,3.5489,3.5459,3.54,3.5385,3.5383,3.504,3.4533,3.4474,3.4188,3.3544,3.3589,3.3559,3.3544,3.3559,3.3589,3.3574,3.3544,3.3559,3.3649,3.4143,3.4458,3.4518,3.4951,3.537,3.534,3.5355,3.54,3.5489,3.5429,3.5385,3.5385,3.5429,3.5489,3.5489,3.5489,3.5489,3.5489,3.5489,3.5489,3.5489,3.5489,3.5489,3.5489,3.5489,3.5489,3.5489,3.5489,3.5489,3.5489,3.5489,3.5489,3.5489,3.5489,3.5489,3.5489,3.5489,3.5489,3.5489,3.5489,3.5489,3.5489,3.5489,3.5489,3.5489,3.5489,3.5489,3.5489,3.5489,3.5489,3.5489,3.5489,3.5489,3.5489,3.5489,3.5489,3.3505,3.4121,3.4129,3.4712,3.5628,3.5648,3.6265,3.719,3.7214,3.7814,3.8708,3.88,3.905,3.934,3.8765,3.8465,3.8471,3.8621,3.8673,3.8688,3.8673,3.8673,3.8673,3.8673,3.8437,3.8078,3.8048,3.7808,3.7419,3.718,3.7075,3.6971,3.6447,3.6133,3.6058,3.5714,3.5489,3.5504,3.5489,3.5489,3.5489,3.5489,3.5489,3.5489,3.5489,3.5385,3.5161,3.513,3.5026,3.4786,3.4786,3.4786,3.4786,3.4786,3.4786,3.4786,3.4771,3.4786,3.4816,3.4996,3.513,3.5145,3.5355,3.5489,3.5489,3.5489,3.5489,3.5489,3.5489,3.5489,3.5489,3.5489,3.5489,3.5489,3.5489,3.5489,3.5489,3.5489,3.5489,3.5489,3.5489,3.5489,3.5489,3.5489,3.5489,3.5489,3.5489,3.5489,3.5489,3.5489,3.5489,3.5489,3.5489,3.5489,3.5489,3.5489,3.5489,3.5489,3.5489,3.5489,3.5489,3.5489,3.5489,3.5489,3.5489,3.5489,3.5489,3.5489,3.5489,3.5489,3.5489,3.5489,3.5489,3.5594,3.5564,3.4254,3.5109,3.519,3.5788,3.6663,3.6702,3.7324,3.8271,3.8327,3.8727,3.9334,3.9406,3.9406,3.9406,3.9406,3.9406,3.9406,3.9391,3.9406,3.9406,3.9406,3.9406,3.9406,3.9406,3.9167,3.8781,3.8721,3.8482,3.8078,3.7806,3.7701,3.7689,3.709,3.6791,3.6688,3.6148,3.5818,3.5804,3.5624,3.5489,3.5489,3.5489,3.5489,3.5489,3.5489,3.5489,3.5489,3.5489,3.5489,3.5489,3.5489,3.5489,3.5489,3.5489,3.5489,3.5489,3.5489,3.5489,3.5489,3.5489,3.5489,3.5489,3.5489,3.5489,3.5489,3.5489,3.5489,3.5489,3.5489,3.5489,3.5489,3.5489,3.5489,3.5489,3.5489,3.5489,3.5489,3.5489,3.5489,3.5489,3.5489,3.5489,3.5489,3.5489,3.5489,3.5489,3.5489,3.5489,3.5489,3.5489,3.5489,3.5489,3.5489,3.5489,3.5504,3.5519,3.5549,3.5549,3.5504,3.5489,3.5489,3.5489,3.5489,3.5489,3.5489,3.5489,3.5489,3.5506,3.5506,3.5522,3.5489,3.5489,3.5594,3.5744,3.5915,3.5278,3.6138,3.6212,3.6833,3.7738,3.781,3.8416,3.9177,3.9301,3.9301,3.9406,3.9406,3.9406,3.9406,3.9406,3.9406,3.9406,3.9406,3.9406,3.9406,3.9406,3.9406,3.9406,3.9406,3.9391,3.9302,3.9361,3.9361,3.9197,3.8676,3.8392,3.8287,3.7734,3.7434,3.7387,3.6821,3.6492,3.6404,3.5983,3.5624,3.5519,3.5579,3.5564,3.5519,3.5489,3.5489,3.5489,3.5489,3.5489,3.5489,3.5489,3.5489,3.5489,3.5489,3.5489,3.5489,3.5489,3.5489,3.5489,3.5489,3.5489,3.5489,3.5489,3.5489,3.5489,3.5489,3.5534,3.5609,3.5609,3.5579,3.5654,3.5699,3.5624,3.5504,3.5564,3.5624,3.5579,3.5534,3.5519,3.5564,3.5564,3.5504,3.5489,3.5489,3.5489,3.5489,3.5489,3.5564,3.5639,3.5669,3.5564,3.5639,3.5833,3.5998,3.5774,3.5564,3.5578,3.5593,3.5534,3.5489,3.5489,3.5489,3.5489,3.5489,3.5489,3.5506,3.5847,3.5847,3.5798,3.5782,3.5668,3.5694,3.5851,3.611,3.6562,3.6344,3.7266,3.7305,3.7909,3.8837,3.8907,3.9123,3.9373,3.9406,3.9406,3.9406,3.9406,3.9406,3.9406,3.9406,3.9406,3.9406,3.9406,3.9406,3.9406,3.9406,3.9406,3.9406,3.9406,3.9406,3.9406,3.9406,3.9406,3.9361,3.9167,3.9077,3.8975,3.8407,3.8108,3.8048,3.7464,3.712,3.709,3.6909,3.6626,3.6237,3.6209,3.5983,3.5564,3.5489,3.5489,3.5489,3.5489,3.5489,3.5504,3.5489,3.5489,3.5489,3.5489,3.5489,3.5489,3.5489,3.5489,3.5489,3.5504,3.5504,3.5504,3.5504,3.5489,3.5489,3.5534,3.5759,3.6088,3.6209,3.6312,3.6701,3.6806,3.643,3.5593,3.5908,3.6194,3.6178,3.6194,3.6194,3.6134,3.5789,3.5534,3.5519,3.5549,3.5609,3.5594,3.5594,3.5699,3.6073,3.6178,3.6402,3.6701,3.6746,3.6641,3.6505,3.6415,3.643,3.6191,3.5938,3.5729,3.5669,3.5489,3.5489,3.5538,3.5538,3.5718,3.6054,3.6275,3.6275,3.6305,3.6383,3.6376,3.6303,3.6781,3.7556,3.742,3.8379,3.8383,3.8778,3.9388,3.9406,3.9406,3.9406,3.9406,3.9406,3.9406,3.9406,3.9406,3.9406,3.9406,3.9406,3.9406,3.9406,3.9406,3.9406,3.9406,3.9406,3.9406,3.9406,3.9406,3.9406,3.9406,3.9406,3.9406,3.9406,3.9406,3.9302,3.8975,3.8766,3.8706,3.8123,3.7778,3.7749,3.7492,3.7225,3.6928,3.6853,3.6626,3.6282,3.6206,3.6222,3.6191,3.6207,3.5967,3.5609,3.5489,3.5489,3.5489,3.5489,3.5489,3.5489,3.5489,3.5489,3.5489,3.5489,3.5639,3.5804,3.5863,3.5998,3.6148,3.6207,3.6447,3.6731,3.6836,3.6985,3.7283,3.7372,3.6998,3.6342,3.6582,3.6821,3.6821,3.6838,3.6853,3.6761,3.6507,3.6252,3.6191,3.6206,3.6207,3.6207,3.6206,3.6282,3.6716,3.6821,3.712,3.7315,3.7208,3.7193,3.7298,3.7313,3.7313,3.6909,3.6477,3.6207,3.6044,3.5654,3.5489,3.5668,3.5702,3.6055,3.6415,3.6889,3.7071,3.7117,3.7228,3.7282,3.748,3.8479,3.9187,3.8476,3.9337,3.9388,3.9337,3.9406,3.9406,3.9406,3.9406,3.9406,3.9406,3.9406,3.9406,3.9406,3.9406,3.9406,3.9406,3.9406,3.9406,3.9406,3.9406,3.9406,3.9406,3.9406,3.9406,3.9406,3.9406,3.9406,3.9406,3.9406,3.9406,3.9406,3.9391,3.9346,3.9361,3.9197,3.8736,3.8452,3.8377,3.7913,3.7612,3.7494,3.7447,3.7389,3.73,3.7255,3.724,3.7193,3.7163,3.6744,3.5804,3.5774,3.5804,3.5684,3.5609,3.5744,3.5774,3.5639,3.5729,3.5669,3.5818,3.5983,3.6462,3.6552,3.6778,3.7135,3.7133,3.7223,3.7434,3.7479,3.7492,3.7597,3.7656,3.7614,3.7522,3.7494,3.7509,3.7522,3.7507,3.7462,3.7432,3.7417,3.7357,3.7208,3.7223,3.7223,3.724,3.7208,3.7223,3.7419,3.7479,3.7494,3.7659,3.7881,3.7941,3.812,3.812,3.812,3.7926,3.7375,3.6896,3.6493,3.6043,3.5744,3.5864,3.6098,3.6445,3.6889,3.7427,3.7919,3.8197,3.8292,3.8344,3.8947,3.991,4.0606,3.9141,3.9406,3.9406,3.9406,3.9406,3.9406,3.9406,3.9406,3.9406,3.9406,3.9406,3.9406,3.9406,3.9406,3.9406,3.9406,3.9406,3.9406,3.9406,3.9406,3.9406,3.9406,3.9406,3.9406,3.9406,3.9406,3.9406,3.9406,3.9406,3.9406,3.9406,3.9406,3.9406,3.9406,3.9346,3.9197,3.9137,3.9137,3.8987,3.8571,3.8182,3.8138,3.7883,3.7417,3.7432,3.7432,3.7402,3.7387,3.7298,3.6985,3.6894,3.6894,3.6804,3.6804,3.6774,3.6789,3.6851,3.6881,3.6849,3.6834,3.6954,3.712,3.7165,3.724,3.7342,3.7387,3.7644,3.7958,3.8138,3.8347,3.8718,3.8808,3.8823,3.8808,3.8407,3.8317,3.8599,3.8437,3.8123,3.8093,3.7749,3.7552,3.7507,3.7507,3.7507,3.7507,3.7552,3.7674,3.8003,3.8153,3.8182,3.8688,3.8958,3.8928,3.8928,3.8928,3.8928,3.8883,3.8407,3.7734,3.721,3.6626,3.6402,3.6335,3.6636,3.6987,3.7555,3.8124,3.8608,3.9336,3.9672,3.9894,4.0394,4.1169,4.1859,3.9406,3.9406,3.9406,3.9406,3.9406,3.9406,3.9406,3.9406,3.9406,3.9406,3.9406,3.9406,3.9406,3.9406,3.9406,3.9406,3.9406,3.9406,3.9406,3.9406,3.9406,3.9406,3.9406,3.9406,3.9406,3.9406,3.9406,3.9406,3.9406,3.9406,3.9406,3.9406,3.9406,3.9406,3.9406,3.9406,3.9406,3.9391,3.9406,3.9182,3.8838,3.8826,3.8676,3.8285,3.824,3.824,3.824,3.824,3.8015,3.7552,3.7372,3.7387,3.7387,3.7387,3.7387,3.7387,3.7387,3.7372,3.7387,3.7387,3.7537,3.7749,3.7841,3.7988,3.818,3.824,3.8464,3.8751,3.8811,3.9002,3.9287,3.9406,3.9406,3.9302,3.9047,3.899,3.9376,3.9035,3.8856,3.8721,3.8512,3.8257,3.8225,3.821,3.821,3.827,3.8359,3.8542,3.8751,3.8811,3.8871,3.9212,3.9406,3.9272,3.9197,3.9197,3.9182,3.9197,3.9062,3.8452,3.7823,3.7193,3.703,3.6961,3.7237,3.7623,3.8227,3.9017,4.005,4.0685,4.1081,4.1387,4.1729,4.1972,4.2694,3.9406,3.9406,3.9406,3.9406,3.9406,3.9406,3.9406,3.9406,3.9406,3.9406,3.9406,3.9406,3.9406,3.9406,3.9406,3.9406,3.9406,3.9406,3.9406,3.9406,3.9406,3.9406,3.9406,3.9406,3.9406,3.9406,3.9406,3.9406,3.9406,3.9406,3.9406,3.9406,3.9406,3.9406,3.9406,3.9406,3.9406,3.9406,3.9406,3.9376,3.9287,3.9272,3.9212,3.9182,3.9152,3.9182,3.9227,3.9227,3.8808,3.7686,3.7597,3.7731,3.7686,3.7642,3.7671,3.7731,3.7806,3.7776,3.7671,3.7806,3.7913,3.8377,3.8497,3.8721,3.9092,3.9182,3.9212,3.9272,3.9391,3.9346,3.9376,3.9406,3.9406,3.9391,3.9361,3.9391,3.9406,3.9406,3.9406,3.9406,3.9376,3.9391,3.9406,3.9406,3.9346,3.8868,3.8943,3.9002,3.9107,3.9137,3.9182,3.9316,3.9406,3.9406,3.9376,3.9376,3.9361,3.9361,3.9346,3.8928,3.8317,3.7823,3.7629,3.7615,3.7817,3.8275,3.8951,3.9929,4.0998,4.1786,4.2028,4.2306,4.2576,4.2706,4.3189,3.9406,3.9406,3.9406,3.9406,3.9406,3.9406,3.9406,3.9406,3.9406,3.9406,3.9406,3.9406,3.9406,3.9406,3.9406,3.9406,3.9406,3.9406,3.9406,3.9406,3.9406,3.9406,3.9406,3.9406,3.9406,3.9406,3.9406,3.9406,3.9406,3.9406,3.9406,3.9406,3.9406,3.9406,3.9406,3.9406,3.9406,3.9406,3.9406,3.9406,3.9406,3.9406,3.9406,3.9406,3.9406,3.9406,3.9406,3.9406,3.9257,3.9032,3.8895,3.8808,3.8823,3.8853,3.8838,3.8823,3.8868,3.8913,3.8943,3.8868,3.9002,3.9062,3.9092,3.9242,3.9346,3.9406,3.9406,3.9406,3.9406,3.9406,3.9406,3.9406,3.9406,3.9406,3.9406,3.9406,3.9406,3.9406,3.9406,3.9406,3.9406,3.9406,3.9406,3.9406,3.9406,3.9406,3.9406,3.9406,3.9406,3.9406,3.9406,3.9406,3.9406,3.9406,3.9406,3.9406,3.9406,3.9406,3.9406,3.9376,3.8748,3.8452,3.8257,3.8252,3.836,3.8907,3.95,4.0204,4.1151,4.2021,4.2861,4.302,4.318,4.3353,4.3246,3.9406,3.9406,3.9406,3.9406,3.9406,3.9406,3.9406,3.9406,3.9406,3.9406,3.9406,3.9406,3.9406,3.9406,3.9406,3.9406,3.9406,3.9406,3.9406,3.9406,3.9406,3.9406,3.9406,3.9406,3.9406,3.9406,3.9406,3.9406,3.9406,3.9406,3.9406,3.9406,3.9406,3.9406,3.9406,3.9406,3.9406,3.9406,3.9406,3.9406,3.9406,3.9406,3.9406,3.9406,3.9406,3.9406,3.9406,3.9406,3.9406,3.9406,3.9406,3.9406,3.9406,3.9406,3.9406,3.9406,3.9406,3.9406,3.9391,3.9406,3.9376,3.9406,3.9406,3.9406,3.9406,3.9406,3.9406,3.9406,3.9406,3.9406,3.9406,3.9406,3.9406,3.9406,3.9406,3.9406,3.9406,3.9406,3.9406,3.9406,3.9406,3.9406,3.9406,3.9406,3.9406,3.9406,3.9406,3.9406,3.9406,3.9406,3.9406,3.9406,3.9406,3.9406,3.9406,3.9406,3.9406,3.9406,3.9406,3.9406,3.9152,3.8987,3.8901,3.8883,3.887,3.9351,3.9968,4.0642,4.1321,4.2392,4.3138,4.3467,4.345,4.3073,4.3017,3.9406,3.9406,3.9406,3.9406,3.9406,3.9406,3.9406,3.9406,3.9406,3.9406,3.9406,3.9406,3.9406,3.9406,3.9406,3.9406,3.9406,3.9406,3.9406,3.9406,3.9406,3.9406,3.9406,3.9406,3.9406,3.9406,3.9406,3.9406,3.9406,3.9406,3.9406,3.9406,3.9406,3.9406,3.9406,3.9406,3.9406,3.9406,3.9406,3.9406,3.9406,3.9406,3.9406,3.9406,3.9406,3.9406,3.9406,3.9406,3.9406,3.9406,3.9406,3.9406,3.9406,3.9406,3.9406,3.9406,3.9406,3.9406,3.9406,3.9406,3.9406,3.9406,3.9406,3.9406,3.9406,3.9406,3.9406,3.9406,3.9406,3.9406,3.9406,3.9406,3.9406,3.9406,3.9406,3.9406,3.9406,3.9406,3.9406,3.9406,3.9406,3.9406,3.9406,3.9406,3.9406,3.9406,3.9406,3.9406,3.9406,3.9406,3.9406,3.9406,3.9406,3.9406,3.9406,3.9406,3.9406,3.9406,3.9406,3.9406,3.9406,3.9302,3.9167,3.9272,3.9417,3.9755,4.006,4.0489,4.1374,4.266,4.2983,4.2855,4.2734,4.2613,4.2599,3.9406,3.9406,3.9406,3.9406,3.9406,3.9406,3.9406,3.9406,3.9406,3.9406,3.9406,3.9406,3.9406,3.9406,3.9406,3.9406,3.9406,3.9406,3.9406,3.9406,3.9406,3.9406,3.9406,3.9406,3.9406,3.9406,3.9406,3.9406,3.9406,3.9406,3.9406,3.9406,3.9406,3.9406,3.9406,3.9406,3.9406,3.9406,3.9406,3.9406,3.9406,3.9406,3.9406,3.9406,3.9406,3.9406,3.9406,3.9406,3.9406,3.9406,3.9406,3.9406,3.9406,3.9406,3.9406,3.9406,3.9406,3.9406,3.9406,3.9406,3.9406,3.9406,3.9406,3.9406,3.9406,3.9406,3.9406,3.9406,3.9406,3.9406,3.9406,3.9406,3.9406,3.9406,3.9406,3.9406,3.9406,3.9406,3.9406,3.9406,3.9406,3.9406,3.9406,3.9406,3.9406,3.9406,3.9406,3.9406,3.9406,3.9406,3.9406,3.9406,3.9406,3.9406,3.9406,3.9406,3.9406,3.9406,3.9406,3.9406,3.9406,3.9406,3.9406,3.9406,3.9406,3.9511,3.9872,4.0257,4.0792,4.1609,4.1853,4.2046,4.2013,4.1917,4.1593,3.9406,3.9406,3.9406,3.9406,3.9406,3.9406,3.9406,3.9406,3.9406,3.9406,3.9406,3.9406,3.9406,3.9406,3.9406,3.9406,3.9406,3.9406,3.9406,3.9406,3.9406,3.9406,3.9406,3.9406,3.9406,3.9406,3.9406,3.9406,3.9406,3.9406,3.9406,3.9406,3.9406,3.9406,3.9406,3.9406,3.9406,3.9406,3.9406,3.9406,3.9406,3.9406,3.9406,3.9406,3.9406,3.9406,3.9406,3.9406,3.9406,3.9406,3.9406,3.9406,3.9406,3.9406,3.9406,3.9406,3.9406,3.9406,3.9406,3.9406,3.9406,3.9406,3.9406,3.9406,3.9406,3.9406,3.9406,3.9406,3.9406,3.9406,3.9406,3.9406,3.9406,3.9406,3.9406,3.9406,3.9406,3.9406,3.9406,3.9406,3.9406,3.9406,3.9406,3.9406,3.9406,3.9406,3.9406,3.9406,3.9406,3.9406,3.9406,3.9406,3.9406,3.9406,3.9406,3.9406,3.9406,3.9406,3.9406,3.9406,3.9406,3.9406,3.9406,3.9406,3.9406,3.9406,3.9481,3.9811,4.0202,4.0569,4.0946,4.1263,4.1313,4.1213,4.0944,3.9406,3.9406,3.9406,3.9406,3.9406,3.9406,3.9406,3.9406,3.9406,3.9406,3.9406,3.9406,3.9406,3.9406,3.9406,3.9406,3.9409,3.9538,3.9628,3.9463,3.9648,3.9663,3.9424,3.9406,3.9406,3.9406,3.9406,3.9406,3.9406,3.9406,3.9406,3.9406,3.9406,3.9406,3.9406,3.9406,3.9406,3.9406,3.9406,3.9406,3.9406,3.9406,3.9406,3.9406,3.9406,3.9406,3.9406,3.9406,3.9406,3.9406,3.9406,3.9406,3.9406,3.9406,3.9406,3.9406,3.9406,3.9406,3.9406,3.9406,3.9406,3.9406,3.9406,3.9406,3.9406,3.9406,3.9406,3.9406,3.9406,3.9406,3.9406,3.9406,3.9406,3.9406,3.9406,3.9406,3.9406,3.9406,3.9406,3.9406,3.9406,3.9406,3.9406,3.9406,3.9406,3.9406,3.9406,3.9406,3.9406,3.9406,3.9406,3.9406,3.9406,3.9406,3.9406,3.9406,3.9406,3.9406,3.9406,3.9406,3.9406,3.9406,3.9424,3.9481,3.9406,3.9406,3.9406,3.9424,3.9755,4.008,4.0328,4.0449,4.0464,4.0569,4.0499,3.9406,3.9406,3.9406,3.9406,3.9406,3.9406,3.9406,3.9406,3.9406,3.9406,3.9406,3.9406,3.9406,3.9406,3.9406,3.9406,3.9592,4.0063,4.0025,3.9574,4.0045,3.9993,3.9481,3.9406,3.9406,3.9406,3.9406,3.9406,3.9406,3.9406,3.9406,3.9406,3.9406,3.9406,3.9406,3.9406,3.9406,3.9406,3.9406,3.9406,3.9406,3.9406,3.9406,3.9406,3.9406,3.9406,3.9406,3.9406,3.9406,3.9406,3.9406,3.9406,3.9406,3.9406,3.9406,3.9406,3.9406,3.9406,3.9406,3.9406,3.9406,3.9406,3.9406,3.9406,3.9406,3.9406,3.9406,3.9406,3.9406,3.9406,3.9406,3.9406,3.9406,3.9406,3.9406,3.9406,3.9406,3.9406,3.9406,3.9406,3.9406,3.9406,3.9406,3.9406,3.9406,3.9406,3.9406,3.9406,3.9406,3.9406,3.9406,3.9406,3.9406,3.9406,3.9406,3.9406,3.9406,3.9406,3.9406,3.9442,3.961,3.9681,3.9592,3.961,3.9574,3.9592,3.9666,3.9666,3.9556,3.961,3.9864,3.9755,3.9571,3.972,4.0043,3.9406,3.9406,3.9406,3.9406,3.9406,3.9406,3.9406,3.9406,3.9406,3.9406,3.9406,3.9406,3.9406,3.9406,3.9406,3.9406,3.9592,4.0343,4.0205,3.9773,4.0202,4.0239,3.9574,3.9406,3.9406,3.9406,3.9406,3.9406,3.9406,3.9406,3.9406,3.9406,3.9406,3.9406,3.9406,3.9406,3.9406,3.9406,3.9406,3.9406,3.9406,3.9406,3.9406,3.9406,3.9406,3.9406,3.9406,3.9406,3.9406,3.9406,3.9406,3.9406,3.9406,3.9406,3.9406,3.9406,3.9406,3.9406,3.9406,3.9406,3.9406,3.9406,3.9406,3.9406,3.9406,3.9406,3.9406,3.9406,3.9406,3.9406,3.9406,3.9406,3.9406,3.9406,3.9406,3.9406,3.9406,3.9406,3.9406,3.9406,3.9406,3.9406,3.9406,3.9406,3.9406,3.9406,3.9406,3.9406,3.9406,3.9406,3.9406,3.9406,3.9406,3.9406,3.9406,3.9406,3.9406,3.9406,3.9406,3.9535,3.992,4.0025,3.999,4.022,4.0499,4.0395,4.015,3.99,3.9755,3.9589,3.9406,3.9553,3.9648,3.9427,3.972,3.9406,3.9406,3.9406,3.9406,3.9406,3.9406,3.9406,3.9406,3.9406,3.9406,3.9406,3.9406,3.9406,3.9406,3.9406,3.9406,3.9496,4.0518,4.038,4.0272,4.0413,4.05,3.997,3.9646,3.9406,3.9406,3.9406,3.9406,3.9406,3.9406,3.9406,3.9406,3.9406,3.9406,3.9406,3.9406,3.9406,3.9406,3.9406,3.9406,3.9406,3.9406,3.9406,3.9406,3.9406,3.9406,3.9406,3.9406,3.9406,3.9406,3.9406,3.9406,3.9406,3.9406,3.9406,3.9406,3.9406,3.9406,3.9406,3.9406,3.9406,3.9406,3.9406,3.9406,3.9406,3.9406,3.9406,3.9406,3.9406,3.9406,3.9406,3.9406,3.9406,3.9406,3.9406,3.9406,3.9406,3.9406,3.9406,3.9406,3.9406,3.9406,3.9406,3.9406,3.9406,3.9406,3.9406,3.9406,3.9406,3.9406,3.9406,3.9406,3.9406,3.9406,3.9406,3.9406,3.9406,3.9463,3.9463,3.9773,4.0274,4.0466,4.0481,4.0809,4.1362,4.123,4.0996,4.0481,4.0005,4.0078,4.013,4.0025,3.9955,3.9648,3.9445,3.9406,3.9406,3.9406,3.9406,3.9406,3.9406,3.9406,3.9406,3.9406,3.9406,3.9406,3.9406,3.9406,3.9406,3.9406,3.9406,3.9463,4.113,4.108,4.103,4.1347,4.1313,4.0689,3.999,3.9517,3.9484,3.9427,3.9406,3.9406,3.9406,3.9406,3.9406,3.9406,3.9406,3.9406,3.9406,3.9406,3.9406,3.9406,3.9406,3.9406,3.9406,3.9406,3.9406,3.9406,3.9406,3.9406,3.9406,3.9406,3.9406,3.9406,3.9406,3.9406,3.9406,3.9406,3.9406,3.9406,3.9406,3.9406,3.9406,3.9406,3.9406,3.9406,3.9406,3.9406,3.9406,3.9406,3.9406,3.9406,3.9406,3.9406,3.9406,3.9406,3.9406,3.9406,3.9406,3.9406,3.9406,3.9406,3.9406,3.9406,3.9406,3.9406,3.9406,3.9406,3.9406,3.9406,3.9406,3.9406,3.9406,3.9406,3.9406,3.9406,3.9406,3.9406,3.9424,3.9499,3.9681,3.9791,4.0255,4.0809,4.0911,4.1028,4.1755,4.2284,4.2061,4.1949,4.182,4.1576,4.1112,4.0877,4.0741,4.038,4.001,3.9684,3.9406,3.9406,3.9406,3.9406,3.9406,3.9406,3.9406,3.9406,3.9406,3.9406,3.946,3.9406,3.9406,3.9424,3.9406,3.9406,3.9646,4.1197,4.1247,4.1478,4.182,4.2125,4.1462,4.0707,4.022,4.0045,3.972,3.9406,3.9406,3.9406,3.9406,3.9406,3.9481,3.9406,3.9406,3.9406,3.9406,3.9406,3.9406,3.9406,3.9406,3.9406,3.9406,3.9406,3.9406,3.9406,3.9406,3.9406,3.9406,3.9406,3.9406,3.9406,3.9406,3.9406,3.9406,3.9406,3.9406,3.9406,3.9406,3.9406,3.9406,3.9406,3.9406,3.9406,3.9406,3.9406,3.9406,3.9406,3.9406,3.9406,3.9406,3.9406,3.9406,3.9406,3.9406,3.9406,3.9406,3.9406,3.9406,3.9406,3.9406,3.9406,3.9406,3.9406,3.9406,3.9406,3.9406,3.9406,3.9406,3.9406,3.9406,3.9406,3.9406,3.9406,3.9406,3.9481,3.9628,3.9882,4.0133,4.0877,4.1511,4.156,4.182,4.2582,4.3107,4.2908,4.2953,4.3318,4.2969,4.2046,4.1609,4.1428,4.0995,4.0535,4.0098,3.9212,3.9391,3.9406,3.9406,3.9406,3.9406,3.9556,3.9758,3.9826,3.9955,4.0165,4.0168,4.0183,4.013,3.9882,3.9829,4.0237,4.1197,4.1445,4.1853,4.2411,4.28,4.2189,4.1346,4.0586,4.05,3.9882,3.9406,3.9406,3.9406,3.961,3.9773,3.9758,3.9737,3.9406,3.9406,3.9406,3.9406,3.9406,3.9406,3.9406,3.9406,3.9406,3.9406,3.9406,3.9406,3.9406,3.9406,3.9406,3.9406,3.9406,3.9406,3.9406,3.9406,3.9406,3.9406,3.9406,3.9406,3.9406,3.9406,3.9406,3.9406,3.9406,3.9406,3.9406,3.9406,3.9406,3.9406,3.9406,3.9406,3.9406,3.9406,3.9406,3.9406,3.9406,3.9406,3.9406,3.9406,3.9406,3.9406,3.9406,3.9406,3.9406,3.9406,3.9406,3.9406,3.9406,3.9406,3.9406,3.9406,3.9406,3.9406,3.9406,3.9406,3.9406,3.9826,4.0202,4.0395,4.0809,4.1739,4.2268,4.2331,4.2723,4.3545,4.3873,4.3724,4.3783,4.3958,4.3439,4.2661,4.2442,4.2284,4.2013,4.1543,4.0741,3.8837,3.9376,3.9403,3.9406,3.9436,3.9409,3.9902,4.0638,4.0673,4.1062,4.1625,4.1707,4.1723,4.156,4.0911,4.069,4.0877,4.1658,4.2046,4.23,4.3032,4.3276,4.2785,4.1965,4.1147,4.0569,4.0025,3.961,3.9406,3.9406,3.9809,4.0413,4.0535,4.0378,3.9535,3.9424,3.9424,3.9424,3.9481,3.9406,3.9406,3.9406,3.9406,3.9406,3.9406,3.9406,3.9406,3.9406,3.9406,3.9406,3.9406,3.9406,3.9406,3.9406,3.9406,3.9406,3.9406,3.9406,3.9406,3.9406,3.9406,3.9406,3.9406,3.9406,3.9406,3.9406,3.9406,3.9406,3.9406,3.9406,3.9406,3.9406,3.9406,3.9406,3.9406,3.9406,3.9406,3.9406,3.9406,3.9406,3.9406,3.9406,3.9406,3.9406,3.9406,3.9406,3.9406,3.9406,3.9406,3.9406,3.9406,3.9535,3.9571,3.9773,3.9935,4.0413,4.0775,4.0978,4.1511,4.2458,4.3061,4.3244,4.3768,4.4499,4.444,4.415,4.4293,4.4494,4.3733,4.3049,4.327,4.3184,4.2955,4.2441,4.1546,3.9466,3.9669,3.9653,3.9669,3.9728,4.0095,4.0758,4.1446,4.1577,4.1755,4.1949,4.1981,4.1981,4.1869,4.1804,4.1576,4.1723,4.2442,4.2862,4.2939,4.3711,4.4064,4.3724,4.2909,4.2062,4.1446,4.0707,3.9917,3.9406,3.9589,3.9988,4.0569,4.1413,4.138,4.1028,4.0689,4.0274,4.015,3.9776,3.9406,3.9424,3.946,3.946,3.946,3.946,3.9406,3.9406,3.9406,3.9406,3.9406,3.9406,3.9406,3.9406,3.9406,3.9406,3.9406,3.9406,3.9406,3.9406,3.9406,3.9406,3.9406,3.9406,3.9406,3.9406,3.9406,3.9406,3.9406,3.9406,3.9406,3.9406,3.9406,3.9406,3.9406,3.9406,3.9406,3.9406,3.9406,3.9406,3.9406,3.9406,3.9406,3.9406,3.9406,3.9406,3.9406,3.9406,3.9406,3.9406,3.9406,3.9406,3.9681,3.9862,4.0133,4.0483,4.1046,4.1707,4.2109,4.2552,4.3214,4.3697,4.3948,4.4181,4.457,4.4584,4.4584,4.4381,4.4133,4.3796,4.3488,4.3437,4.3176,4.2672,4.2386,4.2043,3.9587,3.9795,3.9811,3.9978,4.0213,4.0356,4.1007,4.2039,4.2623,4.2892,4.2923,4.2939,4.2955,4.2878,4.2599,4.2458,4.252,4.297,4.3291,4.3426,4.4196,4.444,4.4267,4.377,4.294,4.2284,4.1544,4.0724,4.0008,4.0202,4.0892,4.1772,4.2426,4.2862,4.2582,4.1949,4.1163,4.1028,4.0723,4.0481,4.0376,4.0168,3.9902,3.9793,3.9646,3.9406,3.9406,3.9406,3.9406,3.9406,3.9406,3.9406,3.9406,3.9406,3.9406,3.9406,3.9406,3.9406,3.9406,3.9406,3.9406,3.9406,3.9406,3.9406,3.9406,3.9406,3.9406,3.9406,3.9406,3.9406,3.9406,3.9406,3.9406,3.9406,3.9406,3.9406,3.9406,3.9406,3.9406,3.9406,3.9406,3.9406,3.9406,3.9406,3.9406,3.9406,3.9406,3.9406,3.9406,3.9406,3.9481,3.9773,4.013,4.0466,4.1046,4.1804,4.2473,4.3169,4.3577,4.3916,4.4121,4.4324,4.4483,4.4567,4.4516,4.4381,4.3995,4.368,4.3165,4.3047,4.3141,4.2811,4.232,4.2191,4.2152,3.923,3.9759,3.9807,4.0239,4.0725,4.0248,4.0818,4.2292,4.3745,4.4316,4.4361,4.41,4.3998,4.4149,4.3582,4.3302,4.3351,4.3443,4.3487,4.3636,4.4312,4.4483,4.4352,4.3858,4.3396,4.3017,4.2426,4.1625,4.0912,4.1428,4.23,4.3078,4.3724,4.4018,4.3678,4.3077,4.2268,4.2046,4.1445,4.1197,4.1012,4.0656,4.0274,4.0025,3.9737,3.946,3.9406,3.9406,3.9406,3.9406,3.9406,3.9406,3.9406,3.9406,3.9406,3.9406,3.9406,3.9406,3.9406,3.9406,3.9406,3.9406,3.9406,3.9406,3.9406,3.9406,3.9406,3.9406,3.9406,3.9406,3.9406,3.9406,3.9406,3.9406,3.9406,3.9406,3.9406,3.9406,3.9406,3.9406,3.9406,3.9406,3.9406,3.9406,3.9406,3.9406,3.9406,3.9406,3.9406,3.9406,3.9553,3.9902,4.0309,4.0826,4.1528,4.2536,4.3107,4.3785,4.4047,4.4367,4.4553,4.4347,4.411,4.4042,4.4296,4.4127,4.3484,4.2895,4.2371,4.2367,4.2354,4.2284,4.1758,4.2158,4.2116,3.9847,3.9987,4.0004,4.0154,4.0383,4.0668,4.137,4.2306,4.2838,4.2959,4.2959,4.2959,4.3349,4.3683,4.3474,4.3692,4.3994,4.4241,4.4255,4.4386,4.4426,4.4542,4.4483,4.4253,4.3858,4.3441,4.2955,4.2505,4.1981,4.2489,4.2893,4.3366,4.421,4.4497,4.4412,4.4078,4.3486,4.2847,4.2029,4.1691,4.1213,4.062,4.0257,3.9955,3.9681,3.9442,3.9406,3.9406,3.9406,3.9406,3.9406,3.9406,3.9406,3.9406,3.9406,3.9406,3.9406,3.9406,3.9406,3.9406,3.9406,3.9406,3.9406,3.9406,3.9406,3.9406,3.9406,3.9406,3.9406,3.9406,3.9406,3.9406,3.9406,3.9406,3.9406,3.9406,3.9406,3.9406,3.9406,3.9406,3.9406,3.9406,3.9406,3.9406,3.9406,3.9406,3.9406,3.9406,3.9499,3.9535,3.9737,4.0115,4.0962,4.1626,4.2488,4.3453,4.3871,4.431,4.4297,4.4127,4.3859,4.3606,4.342,4.3332,4.3332,4.3112,4.2723,4.2147,4.1538,4.1288,4.1255,4.1288,4.1373,4.1664,4.1697,4.0113,4.0113,4.0113,4.0113,4.0168,4.0561,4.1048,4.1471,4.2046,4.2303,4.2303,4.2337,4.2553,4.2912,4.2973,4.3294,4.3987,4.3976,4.4111,4.4514,4.4533,4.4584,4.4584,4.457,4.4298,4.3916,4.368,4.3381,4.2878,4.2955,4.3366,4.3887,4.444,4.4511,4.4525,4.444,4.4267,4.3651,4.3,4.2363,4.1675,4.0944,4.0552,4.0148,3.9847,3.9442,3.9406,3.9406,3.9406,3.9406,3.9406,3.9406,3.9406,3.9406,3.9406,3.9406,3.9406,3.9406,3.9406,3.9406,3.9406,3.9406,3.9406,3.9406,3.9406,3.9406,3.9406,3.9406,3.9406,3.9406,3.9406,3.9406,3.9406,3.9406,3.9406,3.9406,3.9406,3.9406,3.9406,3.9406,3.9406,3.9406,3.9406,3.9406,3.9406,3.9406,3.9406,3.9406,3.9646,3.9917,4.0133,4.0466,4.1577,4.2645,4.3405,4.3736,4.3765,4.3732,4.3432,4.325,4.3047,4.2912,4.276,4.2469,4.2164,4.1995,4.1877,4.1267,4.0726,4.0574,4.054,4.0641,4.0743,4.0861,4.0731,4.0113,4.0113,4.0113,4.0113,4.0113,4.0134,4.0168,4.0248,4.1471,4.208,4.2029,4.2063,4.2046,4.2185,4.2219,4.2628,4.3149,4.3352,4.3724,4.4448,4.433,4.4364,4.455,4.457,4.4485,4.4542,4.4426,4.402,4.3591,4.3591,4.3977,4.457,4.457,4.4584,4.4584,4.4584,4.4468,4.4281,4.3931,4.3529,4.3258,4.2676,4.1804,4.1279,4.0324,3.9406,3.9406,3.9406,3.9406,3.9406,3.9406,3.9406,3.9406,3.9406,3.9406,3.9406,3.9406,3.9406,3.9406,3.9406,3.9406,3.9406,3.9406,3.9406,3.9406,3.9406,3.9406,3.9406,3.9406,3.9406,3.9406,3.9406,3.9406,3.9406,3.9406,3.9406,3.9406,3.9406,3.9406,3.9406,3.9406,3.9406,3.9406,3.9406,3.9406,3.9406,3.9406,3.9406,3.974,4.0152,4.0576,4.0883,4.1757,4.2731,4.3151,4.3381,4.3268,4.3102,4.2743,4.2439,4.2286,4.2185,4.2097,4.169,4.1267,4.12,4.0984,4.0574,4.0337,4.0269,4.0235,4.0163,4.0197,4.0307,4.029,4.0113,4.0113,4.0113,4.0113,4.0113,4.0113,4.0113,4.0113,4.0434,4.0705,4.0641,4.0709,4.0997,4.1424,4.1457,4.1863,4.2422,4.2625,4.3047,4.347,4.369,4.4042,4.4462,4.4448,4.4533,4.4584,4.4542,4.4485,4.4224,4.4224,4.4296,4.4556,4.4542,4.4454,4.444,4.444,4.431,4.4222,4.3844,4.3275,4.2582,4.1723,4.0758,4.0307,3.946,3.9406,3.9406,3.9406,3.9406,3.9406,3.9406,3.9406,3.9406,3.9406,3.9406,3.9406,3.9406,3.9406,3.9406,3.9406,3.9406,3.9406,3.9406,3.9406,3.9406,3.9406,3.9406,3.9406,3.9406,3.9406,3.9406,3.9406,3.9406,3.9406,3.9406,3.9406,3.9406,3.9406,3.9406,3.9406,3.9406,3.9406,3.9406,3.9406,3.9406,3.9406,3.9406,3.9517,3.9957,4.0403,4.1056,4.1404,4.1793,4.2507,4.2898,4.2861,4.2645,4.2506,4.2232,4.1897,4.1542,4.1335,4.1132,4.0756,4.0417,4.0506,4.054,4.032,4.0146,4.0113,4.0113,4.0113,4.0033,4.0109,4.0126,4.0113,4.0113,4.0113,4.0113,4.0113,4.0113,4.0113,4.0113,4.0113,4.0113,4.0113,4.0146,4.0354,4.0696,4.0713,4.1119,4.1711,4.1813,4.2286,4.2713,4.2983,4.342,4.3775,4.4144,4.4381,4.4448,4.455,4.4584,4.4584,4.457,4.4556,4.4542,4.4384,4.4107,4.4018,4.3768,4.3575,4.3363,4.2985,4.23,4.156,4.0911,4.0535,4.0025,3.9663,3.9517,3.9406,3.9406,3.9406,3.9406,3.9406,3.9406,3.9406,3.9406,3.9406,3.9406,3.9406,3.9406,3.9406,3.9406,3.9406,3.9406,3.9406,3.9406,3.9406,3.9406,3.9406,3.9406,3.9406,3.9406,3.9406,3.9406,3.9406,3.9406,3.9406,3.9406,3.9406,3.9406,3.9406,3.9406,3.9406,3.9406,3.9406,3.9406,3.9406,3.9406,3.9406,3.9406,3.9869,4.0459,4.1179,4.1704,4.1919,4.2202,4.2542,4.2297,4.1841,4.1728,4.164,4.12,4.076,4.0438,4.013,4.0163,4.0163,4.018,4.0146,4.0113,4.0113,4.0113,4.0113,4.0113,4.0007,3.9821,3.9769,4.0113,4.0113,4.0113,4.0113,4.0113,4.0113,4.0113,4.0113,4.0113,4.0113,4.0113,4.0113,4.0113,4.0113,4.013,4.0574,4.0895,4.1035,4.1508,4.1982,4.2134,4.2642,4.3081,4.3453,4.3961,4.4381,4.4567,4.4584,4.4584,4.4584,4.4542,4.4443,4.402,4.3501,4.3199,4.277,4.2552,4.2504,4.2157,4.1495,4.1013,4.0673,4.0519,4.0257,3.9882,3.9442,3.9406,3.9406,3.9406,3.9406,3.9406,3.9406,3.9406,3.9406,3.9406,3.9406,3.9406,3.9406,3.9406,3.9406,3.9406,3.9406,3.9406,3.9406,3.9406,3.9406,3.9406,3.9406,3.9406,3.9406,3.9406,3.9406,3.9406,3.9406,3.9406,3.9406,3.9406,3.9406,3.9406,3.9406,3.9406,3.9406,3.9406,3.9406,3.9406,3.9406,3.9406,3.9406,3.9596,4.0246,4.0912,4.1337,4.1605,4.1891,4.2115,4.169,4.1132,4.0997,4.0861,4.0405,4.0113,4.0113,4.0113,4.0113,4.0113,4.0113,4.0113,4.0113,4.0113,4.0113,4.0113,4.0033,3.961,3.945,3.9328,4.0113,4.0113,4.0113,4.0113,4.0113,4.0113,4.0113,4.0113,4.0113,4.0113,4.0113,4.0113,4.0113,4.0113,4.0113,4.0286,4.0405,4.0438,4.0798,4.1322,4.139,4.188,4.251,4.3152,4.3842,4.4262,4.4516,4.4584,4.4584,4.4584,4.4584,4.4542,4.4499,4.421,4.4107,4.3471,4.2692,4.2363,4.156,4.0878,4.0792,4.0483,4.0187,3.9882,3.9499,3.9406,3.9406,3.9406,3.9406,3.9406,3.9406,3.9406,3.9406,3.9406,3.9406,3.9406,3.9406,3.9406,3.9406,3.9406,3.9406,3.9406,3.9406,3.9406,3.9406,3.9406,3.9406,3.9406,3.9406,3.9406,3.9406,3.9406,3.9406,3.9406,3.9406,3.9406,3.9406,3.9406,3.9406,3.9406,3.9406,3.9406,3.9406,3.9406,3.9406,3.9406,3.9406,3.9394,3.9313,3.9958,4.0624,4.0841,4.1104,4.1312,4.1407,4.0929,4.0472,4.032,4.0252,4.0163,4.0113,4.0113,4.0113,4.0113,4.0113,4.0113,4.0113,4.0113,4.0113,4.0113,4.0113,3.9952,3.945,3.8992,3.8829]}]]